<?xml version="1.0" encoding="UTF-8" standalone="no" ?>
<gpx xmlns="http://www.topografix.com/GPX/1/1" xmlns:xsi="http://www.w3.org/2001/XMLSchema-instance" xsi:schemaLocation="http://www.topografix.com/GPX/1/1 http://www.topografix.com/GPX/1/1/gpx.xsd" version="1.1" creator="VisuGPX - https://www.visugpx.com">
  <metadata>
    <name>Cleppé</name>
  </metadata>
  <trk>
    <name><![CDATA[Cleppé_1]]></name>
    <extensions>
      <line xmlns="http://www.topografix.com/GPX/gpx_style/0/2">
        <color>0000FF</color>
        <width>4</width>
      </line>
    </extensions>
    <trkseg>
      <trkpt lat="45.77083" lon="4.17956">
        <ele>413.6</ele>
        <time>2022-05-09T12:19:47Z</time>
      </trkpt>
      <trkpt lat="45.77083" lon="4.17955">
        <ele>413.6</ele>
        <time>2022-05-09T12:19:52Z</time>
      </trkpt>
      <trkpt lat="45.77084" lon="4.17935">
        <ele>413.6</ele>
        <time>2022-05-09T12:19:57Z</time>
      </trkpt>
      <trkpt lat="45.77082" lon="4.17913">
        <ele>413.6</ele>
        <time>2022-05-09T12:20:02Z</time>
      </trkpt>
      <trkpt lat="45.77082" lon="4.17904">
        <ele>413.6</ele>
        <time>2022-05-09T12:20:08Z</time>
      </trkpt>
      <trkpt lat="45.77078" lon="4.17897">
        <ele>413.6</ele>
        <time>2022-05-09T12:20:13Z</time>
      </trkpt>
      <trkpt lat="45.77078" lon="4.17897">
        <ele>413.6</ele>
        <time>2022-05-09T12:20:19Z</time>
      </trkpt>
      <trkpt lat="45.77078" lon="4.17898">
        <ele>413.6</ele>
        <time>2022-05-09T12:20:25Z</time>
      </trkpt>
      <trkpt lat="45.77077" lon="4.17898">
        <ele>413.6</ele>
        <time>2022-05-09T12:20:31Z</time>
      </trkpt>
      <trkpt lat="45.77079" lon="4.1789">
        <ele>413.6</ele>
        <time>2022-05-09T12:20:36Z</time>
      </trkpt>
      <trkpt lat="45.77084" lon="4.17878">
        <ele>413.6</ele>
        <time>2022-05-09T12:20:41Z</time>
      </trkpt>
      <trkpt lat="45.77089" lon="4.17867">
        <ele>413.6</ele>
        <time>2022-05-09T12:20:47Z</time>
      </trkpt>
      <trkpt lat="45.77091" lon="4.17857">
        <ele>413.6</ele>
        <time>2022-05-09T12:20:52Z</time>
      </trkpt>
      <trkpt lat="45.77095" lon="4.17848">
        <ele>413.6</ele>
        <time>2022-05-09T12:20:57Z</time>
      </trkpt>
      <trkpt lat="45.77101" lon="4.17837">
        <ele>403.3</ele>
        <time>2022-05-09T12:21:03Z</time>
      </trkpt>
      <trkpt lat="45.771" lon="4.17826">
        <ele>403.2</ele>
        <time>2022-05-09T12:21:09Z</time>
      </trkpt>
      <trkpt lat="45.77097" lon="4.17815">
        <ele>403.4</ele>
        <time>2022-05-09T12:21:15Z</time>
      </trkpt>
      <trkpt lat="45.77092" lon="4.17805">
        <ele>403.2</ele>
        <time>2022-05-09T12:21:21Z</time>
      </trkpt>
      <trkpt lat="45.77086" lon="4.17797">
        <ele>403.1</ele>
        <time>2022-05-09T12:21:27Z</time>
      </trkpt>
      <trkpt lat="45.77084" lon="4.17797">
        <ele>403.2</ele>
        <time>2022-05-09T12:21:33Z</time>
      </trkpt>
      <trkpt lat="45.7708" lon="4.17795">
        <ele>403.2</ele>
        <time>2022-05-09T12:21:39Z</time>
      </trkpt>
      <trkpt lat="45.77074" lon="4.17788">
        <ele>403.3</ele>
        <time>2022-05-09T12:21:44Z</time>
      </trkpt>
      <trkpt lat="45.77073" lon="4.17782">
        <ele>403.2</ele>
        <time>2022-05-09T12:21:49Z</time>
      </trkpt>
      <trkpt lat="45.77072" lon="4.17771">
        <ele>403.3</ele>
        <time>2022-05-09T12:21:54Z</time>
      </trkpt>
      <trkpt lat="45.77073" lon="4.17758">
        <ele>403.3</ele>
        <time>2022-05-09T12:21:59Z</time>
      </trkpt>
      <trkpt lat="45.77073" lon="4.17741">
        <ele>404.2</ele>
        <time>2022-05-09T12:22:04Z</time>
      </trkpt>
      <trkpt lat="45.77069" lon="4.1773">
        <ele>403.3</ele>
        <time>2022-05-09T12:22:09Z</time>
      </trkpt>
      <trkpt lat="45.77061" lon="4.17718">
        <ele>403.2</ele>
        <time>2022-05-09T12:22:14Z</time>
      </trkpt>
      <trkpt lat="45.7706" lon="4.17709">
        <ele>403.3</ele>
        <time>2022-05-09T12:22:19Z</time>
      </trkpt>
      <trkpt lat="45.77058" lon="4.17696">
        <ele>403.2</ele>
        <time>2022-05-09T12:22:25Z</time>
      </trkpt>
      <trkpt lat="45.77056" lon="4.17687">
        <ele>403.3</ele>
        <time>2022-05-09T12:22:30Z</time>
      </trkpt>
      <trkpt lat="45.77053" lon="4.17676">
        <ele>402.5</ele>
        <time>2022-05-09T12:22:35Z</time>
      </trkpt>
      <trkpt lat="45.77054" lon="4.17663">
        <ele>412.5</ele>
        <time>2022-05-09T12:22:41Z</time>
      </trkpt>
      <trkpt lat="45.7706" lon="4.1765">
        <ele>412.5</ele>
        <time>2022-05-09T12:22:46Z</time>
      </trkpt>
      <trkpt lat="45.77066" lon="4.17639">
        <ele>412.5</ele>
        <time>2022-05-09T12:22:51Z</time>
      </trkpt>
      <trkpt lat="45.77067" lon="4.17628">
        <ele>412.5</ele>
        <time>2022-05-09T12:22:58Z</time>
      </trkpt>
      <trkpt lat="45.77066" lon="4.17621">
        <ele>412.5</ele>
        <time>2022-05-09T12:23:03Z</time>
      </trkpt>
      <trkpt lat="45.7706" lon="4.17617">
        <ele>412.5</ele>
        <time>2022-05-09T12:23:08Z</time>
      </trkpt>
      <trkpt lat="45.77058" lon="4.17609">
        <ele>412.5</ele>
        <time>2022-05-09T12:23:13Z</time>
      </trkpt>
      <trkpt lat="45.77057" lon="4.17601">
        <ele>411.6</ele>
        <time>2022-05-09T12:23:18Z</time>
      </trkpt>
      <trkpt lat="45.77058" lon="4.17595">
        <ele>411.6</ele>
        <time>2022-05-09T12:23:23Z</time>
      </trkpt>
      <trkpt lat="45.7706" lon="4.17605">
        <ele>411.6</ele>
        <time>2022-05-09T12:23:29Z</time>
      </trkpt>
      <trkpt lat="45.77059" lon="4.17605">
        <ele>411.6</ele>
        <time>2022-05-09T12:23:34Z</time>
      </trkpt>
      <trkpt lat="45.77057" lon="4.17605">
        <ele>411.6</ele>
        <time>2022-05-09T12:23:39Z</time>
      </trkpt>
      <trkpt lat="45.77053" lon="4.17608">
        <ele>411.6</ele>
        <time>2022-05-09T12:23:45Z</time>
      </trkpt>
      <trkpt lat="45.77053" lon="4.17608">
        <ele>411.6</ele>
        <time>2022-05-09T12:23:50Z</time>
      </trkpt>
      <trkpt lat="45.77053" lon="4.17608">
        <ele>411.6</ele>
        <time>2022-05-09T12:23:55Z</time>
      </trkpt>
      <trkpt lat="45.77053" lon="4.17608">
        <ele>411.6</ele>
        <time>2022-05-09T12:24:01Z</time>
      </trkpt>
      <trkpt lat="45.77053" lon="4.17608">
        <ele>411.6</ele>
        <time>2022-05-09T12:24:06Z</time>
      </trkpt>
      <trkpt lat="45.77053" lon="4.17608">
        <ele>411.6</ele>
        <time>2022-05-09T12:24:12Z</time>
      </trkpt>
      <trkpt lat="45.77053" lon="4.17608">
        <ele>411.6</ele>
        <time>2022-05-09T12:24:18Z</time>
      </trkpt>
      <trkpt lat="45.77053" lon="4.17608">
        <ele>411.6</ele>
        <time>2022-05-09T12:24:24Z</time>
      </trkpt>
      <trkpt lat="45.77053" lon="4.17608">
        <ele>411.6</ele>
        <time>2022-05-09T12:24:30Z</time>
      </trkpt>
      <trkpt lat="45.77053" lon="4.17607">
        <ele>411.6</ele>
        <time>2022-05-09T12:24:35Z</time>
      </trkpt>
      <trkpt lat="45.77053" lon="4.17607">
        <ele>411.6</ele>
        <time>2022-05-09T12:24:41Z</time>
      </trkpt>
      <trkpt lat="45.77054" lon="4.17605">
        <ele>411.6</ele>
        <time>2022-05-09T12:24:46Z</time>
      </trkpt>
      <trkpt lat="45.77056" lon="4.17601">
        <ele>411.6</ele>
        <time>2022-05-09T12:24:51Z</time>
      </trkpt>
      <trkpt lat="45.77058" lon="4.17595">
        <ele>411.6</ele>
        <time>2022-05-09T12:24:57Z</time>
      </trkpt>
      <trkpt lat="45.77059" lon="4.17585">
        <ele>411.6</ele>
        <time>2022-05-09T12:25:02Z</time>
      </trkpt>
      <trkpt lat="45.77061" lon="4.17574">
        <ele>411.6</ele>
        <time>2022-05-09T12:25:08Z</time>
      </trkpt>
      <trkpt lat="45.77062" lon="4.17567">
        <ele>411.6</ele>
        <time>2022-05-09T12:25:14Z</time>
      </trkpt>
      <trkpt lat="45.77058" lon="4.17554">
        <ele>411.6</ele>
        <time>2022-05-09T12:25:19Z</time>
      </trkpt>
      <trkpt lat="45.77058" lon="4.17531">
        <ele>411.6</ele>
        <time>2022-05-09T12:25:24Z</time>
      </trkpt>
      <trkpt lat="45.77064" lon="4.17528">
        <ele>411.6</ele>
        <time>2022-05-09T12:25:30Z</time>
      </trkpt>
      <trkpt lat="45.77069" lon="4.17527">
        <ele>411.6</ele>
        <time>2022-05-09T12:25:35Z</time>
      </trkpt>
      <trkpt lat="45.77073" lon="4.17525">
        <ele>411.6</ele>
        <time>2022-05-09T12:25:40Z</time>
      </trkpt>
      <trkpt lat="45.77077" lon="4.17522">
        <ele>411.6</ele>
        <time>2022-05-09T12:25:45Z</time>
      </trkpt>
      <trkpt lat="45.77082" lon="4.17518">
        <ele>411.7</ele>
        <time>2022-05-09T12:25:51Z</time>
      </trkpt>
      <trkpt lat="45.77088" lon="4.17513">
        <ele>412.5</ele>
        <time>2022-05-09T12:25:56Z</time>
      </trkpt>
      <trkpt lat="45.77092" lon="4.17507">
        <ele>412.5</ele>
        <time>2022-05-09T12:26:02Z</time>
      </trkpt>
      <trkpt lat="45.77096" lon="4.17503">
        <ele>411.7</ele>
        <time>2022-05-09T12:26:07Z</time>
      </trkpt>
      <trkpt lat="45.77097" lon="4.17502">
        <ele>411.7</ele>
        <time>2022-05-09T12:26:12Z</time>
      </trkpt>
      <trkpt lat="45.77102" lon="4.17499">
        <ele>655.3</ele>
        <time>2022-05-09T12:26:18Z</time>
      </trkpt>
      <trkpt lat="45.77108" lon="4.17493">
        <ele>620.7</ele>
        <time>2022-05-09T12:26:23Z</time>
      </trkpt>
      <trkpt lat="45.77115" lon="4.17487">
        <ele>411.7</ele>
        <time>2022-05-09T12:26:29Z</time>
      </trkpt>
      <trkpt lat="45.77121" lon="4.17484">
        <ele>411.7</ele>
        <time>2022-05-09T12:26:34Z</time>
      </trkpt>
      <trkpt lat="45.77127" lon="4.17483">
        <ele>411.7</ele>
        <time>2022-05-09T12:26:39Z</time>
      </trkpt>
      <trkpt lat="45.77132" lon="4.17484">
        <ele>411.7</ele>
        <time>2022-05-09T12:26:44Z</time>
      </trkpt>
      <trkpt lat="45.77138" lon="4.17484">
        <ele>414.8</ele>
        <time>2022-05-09T12:26:50Z</time>
      </trkpt>
      <trkpt lat="45.77141" lon="4.17483">
        <ele>414.8</ele>
        <time>2022-05-09T12:26:55Z</time>
      </trkpt>
      <trkpt lat="45.77141" lon="4.17482">
        <ele>414.8</ele>
        <time>2022-05-09T12:27:01Z</time>
      </trkpt>
      <trkpt lat="45.77141" lon="4.17482">
        <ele>414.8</ele>
        <time>2022-05-09T12:27:06Z</time>
      </trkpt>
      <trkpt lat="45.77144" lon="4.17483">
        <ele>414.8</ele>
        <time>2022-05-09T12:27:12Z</time>
      </trkpt>
      <trkpt lat="45.7715" lon="4.17483">
        <ele>414.8</ele>
        <time>2022-05-09T12:27:17Z</time>
      </trkpt>
      <trkpt lat="45.77159" lon="4.17483">
        <ele>414.8</ele>
        <time>2022-05-09T12:27:22Z</time>
      </trkpt>
      <trkpt lat="45.77169" lon="4.17483">
        <ele>414.8</ele>
        <time>2022-05-09T12:27:28Z</time>
      </trkpt>
      <trkpt lat="45.77176" lon="4.17485">
        <ele>414.8</ele>
        <time>2022-05-09T12:27:34Z</time>
      </trkpt>
      <trkpt lat="45.77182" lon="4.17491">
        <ele>414.8</ele>
        <time>2022-05-09T12:27:39Z</time>
      </trkpt>
      <trkpt lat="45.77188" lon="4.17493">
        <ele>414.8</ele>
        <time>2022-05-09T12:27:44Z</time>
      </trkpt>
      <trkpt lat="45.77198" lon="4.1749">
        <ele>414.8</ele>
        <time>2022-05-09T12:27:50Z</time>
      </trkpt>
      <trkpt lat="45.77207" lon="4.17481">
        <ele>415.2</ele>
        <time>2022-05-09T12:27:56Z</time>
      </trkpt>
      <trkpt lat="45.77211" lon="4.1746">
        <ele>415.2</ele>
        <time>2022-05-09T12:28:02Z</time>
      </trkpt>
      <trkpt lat="45.77209" lon="4.1745">
        <ele>415.2</ele>
        <time>2022-05-09T12:28:08Z</time>
      </trkpt>
      <trkpt lat="45.77211" lon="4.17448">
        <ele>415.2</ele>
        <time>2022-05-09T12:28:14Z</time>
      </trkpt>
      <trkpt lat="45.77209" lon="4.17448">
        <ele>415.2</ele>
        <time>2022-05-09T12:28:20Z</time>
      </trkpt>
      <trkpt lat="45.77208" lon="4.17447">
        <ele>415.2</ele>
        <time>2022-05-09T12:28:26Z</time>
      </trkpt>
      <trkpt lat="45.77211" lon="4.17446">
        <ele>415.2</ele>
        <time>2022-05-09T12:28:32Z</time>
      </trkpt>
      <trkpt lat="45.77214" lon="4.1744">
        <ele>415.2</ele>
        <time>2022-05-09T12:28:37Z</time>
      </trkpt>
      <trkpt lat="45.77223" lon="4.17436">
        <ele>415.2</ele>
        <time>2022-05-09T12:28:42Z</time>
      </trkpt>
      <trkpt lat="45.77228" lon="4.17434">
        <ele>415.2</ele>
        <time>2022-05-09T12:28:48Z</time>
      </trkpt>
      <trkpt lat="45.77232" lon="4.1743">
        <ele>415.2</ele>
        <time>2022-05-09T12:28:53Z</time>
      </trkpt>
      <trkpt lat="45.7724" lon="4.17429">
        <ele>415.2</ele>
        <time>2022-05-09T12:28:58Z</time>
      </trkpt>
      <trkpt lat="45.77248" lon="4.1743">
        <ele>415.2</ele>
        <time>2022-05-09T12:29:03Z</time>
      </trkpt>
      <trkpt lat="45.77255" lon="4.17431">
        <ele>415.2</ele>
        <time>2022-05-09T12:29:08Z</time>
      </trkpt>
      <trkpt lat="45.77261" lon="4.17429">
        <ele>415.2</ele>
        <time>2022-05-09T12:29:13Z</time>
      </trkpt>
      <trkpt lat="45.77267" lon="4.17428">
        <ele>415.2</ele>
        <time>2022-05-09T12:29:18Z</time>
      </trkpt>
      <trkpt lat="45.77273" lon="4.17425">
        <ele>415.2</ele>
        <time>2022-05-09T12:29:23Z</time>
      </trkpt>
      <trkpt lat="45.77277" lon="4.1742">
        <ele>415.2</ele>
        <time>2022-05-09T12:29:29Z</time>
      </trkpt>
      <trkpt lat="45.77275" lon="4.17417">
        <ele>415.2</ele>
        <time>2022-05-09T12:29:34Z</time>
      </trkpt>
      <trkpt lat="45.77272" lon="4.17412">
        <ele>415.2</ele>
        <time>2022-05-09T12:29:40Z</time>
      </trkpt>
      <trkpt lat="45.77268" lon="4.17411">
        <ele>415.2</ele>
        <time>2022-05-09T12:29:46Z</time>
      </trkpt>
      <trkpt lat="45.77267" lon="4.17408">
        <ele>415.2</ele>
        <time>2022-05-09T12:29:52Z</time>
      </trkpt>
      <trkpt lat="45.77267" lon="4.17409">
        <ele>414.6</ele>
        <time>2022-05-09T12:29:57Z</time>
      </trkpt>
      <trkpt lat="45.77267" lon="4.17409">
        <ele>415.2</ele>
        <time>2022-05-09T12:30:02Z</time>
      </trkpt>
      <trkpt lat="45.7727" lon="4.17407">
        <ele>415.2</ele>
        <time>2022-05-09T12:30:08Z</time>
      </trkpt>
      <trkpt lat="45.77268" lon="4.17405">
        <ele>415.2</ele>
        <time>2022-05-09T12:30:13Z</time>
      </trkpt>
      <trkpt lat="45.77266" lon="4.17404">
        <ele>415.2</ele>
        <time>2022-05-09T12:30:19Z</time>
      </trkpt>
      <trkpt lat="45.77266" lon="4.17404">
        <ele>415.2</ele>
        <time>2022-05-09T12:30:25Z</time>
      </trkpt>
      <trkpt lat="45.77266" lon="4.17404">
        <ele>415.2</ele>
        <time>2022-05-09T12:30:31Z</time>
      </trkpt>
      <trkpt lat="45.77266" lon="4.174">
        <ele>415.2</ele>
        <time>2022-05-09T12:30:37Z</time>
      </trkpt>
      <trkpt lat="45.77264" lon="4.17392">
        <ele>415.2</ele>
        <time>2022-05-09T12:30:42Z</time>
      </trkpt>
      <trkpt lat="45.7726" lon="4.1738">
        <ele>415.2</ele>
        <time>2022-05-09T12:30:47Z</time>
      </trkpt>
      <trkpt lat="45.77259" lon="4.17373">
        <ele>415.2</ele>
        <time>2022-05-09T12:30:52Z</time>
      </trkpt>
      <trkpt lat="45.7726" lon="4.1736">
        <ele>415.2</ele>
        <time>2022-05-09T12:30:58Z</time>
      </trkpt>
      <trkpt lat="45.77259" lon="4.17347">
        <ele>415.2</ele>
        <time>2022-05-09T12:31:03Z</time>
      </trkpt>
      <trkpt lat="45.77256" lon="4.17335">
        <ele>415.2</ele>
        <time>2022-05-09T12:31:08Z</time>
      </trkpt>
      <trkpt lat="45.77255" lon="4.17322">
        <ele>415.2</ele>
        <time>2022-05-09T12:31:14Z</time>
      </trkpt>
      <trkpt lat="45.77254" lon="4.1731">
        <ele>415.2</ele>
        <time>2022-05-09T12:31:19Z</time>
      </trkpt>
      <trkpt lat="45.77253" lon="4.17297">
        <ele>415.2</ele>
        <time>2022-05-09T12:31:25Z</time>
      </trkpt>
      <trkpt lat="45.77251" lon="4.17285">
        <ele>415.2</ele>
        <time>2022-05-09T12:31:30Z</time>
      </trkpt>
      <trkpt lat="45.77249" lon="4.17274">
        <ele>415.2</ele>
        <time>2022-05-09T12:31:35Z</time>
      </trkpt>
      <trkpt lat="45.77242" lon="4.17263">
        <ele>415.2</ele>
        <time>2022-05-09T12:31:41Z</time>
      </trkpt>
      <trkpt lat="45.77236" lon="4.17256">
        <ele>415.2</ele>
        <time>2022-05-09T12:31:46Z</time>
      </trkpt>
      <trkpt lat="45.7723" lon="4.1724">
        <ele>415.2</ele>
        <time>2022-05-09T12:31:52Z</time>
      </trkpt>
      <trkpt lat="45.77228" lon="4.17228">
        <ele>415.2</ele>
        <time>2022-05-09T12:31:57Z</time>
      </trkpt>
      <trkpt lat="45.77227" lon="4.17217">
        <ele>415.2</ele>
        <time>2022-05-09T12:32:03Z</time>
      </trkpt>
      <trkpt lat="45.77228" lon="4.17207">
        <ele>415.2</ele>
        <time>2022-05-09T12:32:08Z</time>
      </trkpt>
      <trkpt lat="45.7723" lon="4.17195">
        <ele>415.2</ele>
        <time>2022-05-09T12:32:14Z</time>
      </trkpt>
      <trkpt lat="45.77233" lon="4.17181">
        <ele>415.2</ele>
        <time>2022-05-09T12:32:20Z</time>
      </trkpt>
      <trkpt lat="45.77235" lon="4.17171">
        <ele>415.2</ele>
        <time>2022-05-09T12:32:25Z</time>
      </trkpt>
      <trkpt lat="45.77238" lon="4.1716">
        <ele>415.2</ele>
        <time>2022-05-09T12:32:31Z</time>
      </trkpt>
      <trkpt lat="45.77237" lon="4.1715">
        <ele>415.2</ele>
        <time>2022-05-09T12:32:36Z</time>
      </trkpt>
      <trkpt lat="45.7724" lon="4.17141">
        <ele>415.2</ele>
        <time>2022-05-09T12:32:42Z</time>
      </trkpt>
      <trkpt lat="45.77239" lon="4.17135">
        <ele>415.2</ele>
        <time>2022-05-09T12:32:48Z</time>
      </trkpt>
      <trkpt lat="45.77241" lon="4.17131">
        <ele>415.2</ele>
        <time>2022-05-09T12:32:53Z</time>
      </trkpt>
      <trkpt lat="45.77243" lon="4.17125">
        <ele>415.2</ele>
        <time>2022-05-09T12:32:59Z</time>
      </trkpt>
      <trkpt lat="45.77244" lon="4.17117">
        <ele>415.2</ele>
        <time>2022-05-09T12:33:04Z</time>
      </trkpt>
      <trkpt lat="45.77241" lon="4.17108">
        <ele>415.2</ele>
        <time>2022-05-09T12:33:09Z</time>
      </trkpt>
      <trkpt lat="45.77244" lon="4.17099">
        <ele>415.2</ele>
        <time>2022-05-09T12:33:15Z</time>
      </trkpt>
      <trkpt lat="45.77245" lon="4.1709">
        <ele>415.2</ele>
        <time>2022-05-09T12:33:20Z</time>
      </trkpt>
      <trkpt lat="45.77245" lon="4.17082">
        <ele>415.2</ele>
        <time>2022-05-09T12:33:25Z</time>
      </trkpt>
      <trkpt lat="45.77246" lon="4.17071">
        <ele>415.2</ele>
        <time>2022-05-09T12:33:31Z</time>
      </trkpt>
      <trkpt lat="45.7725" lon="4.17061">
        <ele>415.2</ele>
        <time>2022-05-09T12:33:36Z</time>
      </trkpt>
      <trkpt lat="45.77254" lon="4.17052">
        <ele>415.2</ele>
        <time>2022-05-09T12:33:41Z</time>
      </trkpt>
      <trkpt lat="45.77258" lon="4.17045">
        <ele>643.9</ele>
        <time>2022-05-09T12:33:47Z</time>
      </trkpt>
      <trkpt lat="45.77263" lon="4.17037">
        <ele>648.1</ele>
        <time>2022-05-09T12:33:52Z</time>
      </trkpt>
      <trkpt lat="45.77267" lon="4.17029">
        <ele>640.2</ele>
        <time>2022-05-09T12:33:57Z</time>
      </trkpt>
      <trkpt lat="45.77271" lon="4.17021">
        <ele>637.4</ele>
        <time>2022-05-09T12:34:02Z</time>
      </trkpt>
      <trkpt lat="45.77273" lon="4.17009">
        <ele>404</ele>
        <time>2022-05-09T12:34:08Z</time>
      </trkpt>
      <trkpt lat="45.77274" lon="4.17">
        <ele>403.8</ele>
        <time>2022-05-09T12:34:13Z</time>
      </trkpt>
      <trkpt lat="45.77276" lon="4.1699">
        <ele>404</ele>
        <time>2022-05-09T12:34:18Z</time>
      </trkpt>
      <trkpt lat="45.77279" lon="4.16982">
        <ele>404</ele>
        <time>2022-05-09T12:34:23Z</time>
      </trkpt>
      <trkpt lat="45.77282" lon="4.16975">
        <ele>404.6</ele>
        <time>2022-05-09T12:34:28Z</time>
      </trkpt>
      <trkpt lat="45.77285" lon="4.16968">
        <ele>404</ele>
        <time>2022-05-09T12:34:34Z</time>
      </trkpt>
      <trkpt lat="45.77286" lon="4.1696">
        <ele>405</ele>
        <time>2022-05-09T12:34:40Z</time>
      </trkpt>
      <trkpt lat="45.77289" lon="4.16951">
        <ele>404.8</ele>
        <time>2022-05-09T12:34:45Z</time>
      </trkpt>
      <trkpt lat="45.77291" lon="4.16944">
        <ele>403.9</ele>
        <time>2022-05-09T12:34:50Z</time>
      </trkpt>
      <trkpt lat="45.77293" lon="4.16936">
        <ele>404.4</ele>
        <time>2022-05-09T12:34:55Z</time>
      </trkpt>
      <trkpt lat="45.77296" lon="4.16929">
        <ele>403.8</ele>
        <time>2022-05-09T12:35:01Z</time>
      </trkpt>
      <trkpt lat="45.77294" lon="4.16923">
        <ele>403.9</ele>
        <time>2022-05-09T12:35:07Z</time>
      </trkpt>
      <trkpt lat="45.77288" lon="4.16917">
        <ele>403.7</ele>
        <time>2022-05-09T12:35:12Z</time>
      </trkpt>
      <trkpt lat="45.77286" lon="4.16911">
        <ele>403.7</ele>
        <time>2022-05-09T12:35:17Z</time>
      </trkpt>
      <trkpt lat="45.77286" lon="4.16907">
        <ele>403.3</ele>
        <time>2022-05-09T12:35:23Z</time>
      </trkpt>
      <trkpt lat="45.77298" lon="4.16914">
        <ele>405.5</ele>
        <time>2022-05-09T12:35:28Z</time>
      </trkpt>
      <trkpt lat="45.77297" lon="4.16905">
        <ele>407.1</ele>
        <time>2022-05-09T12:35:34Z</time>
      </trkpt>
      <trkpt lat="45.77297" lon="4.16897">
        <ele>407</ele>
        <time>2022-05-09T12:35:39Z</time>
      </trkpt>
      <trkpt lat="45.77293" lon="4.1689">
        <ele>407</ele>
        <time>2022-05-09T12:35:44Z</time>
      </trkpt>
      <trkpt lat="45.77289" lon="4.16885">
        <ele>406.1</ele>
        <time>2022-05-09T12:35:49Z</time>
      </trkpt>
      <trkpt lat="45.77287" lon="4.16882">
        <ele>407.4</ele>
        <time>2022-05-09T12:35:55Z</time>
      </trkpt>
      <trkpt lat="45.77284" lon="4.16876">
        <ele>404.9</ele>
        <time>2022-05-09T12:36:00Z</time>
      </trkpt>
      <trkpt lat="45.77282" lon="4.16867">
        <ele>404.8</ele>
        <time>2022-05-09T12:36:05Z</time>
      </trkpt>
      <trkpt lat="45.77281" lon="4.16858">
        <ele>406.4</ele>
        <time>2022-05-09T12:36:10Z</time>
      </trkpt>
      <trkpt lat="45.7728" lon="4.16848">
        <ele>406.2</ele>
        <time>2022-05-09T12:36:16Z</time>
      </trkpt>
      <trkpt lat="45.77279" lon="4.16839">
        <ele>404.8</ele>
        <time>2022-05-09T12:36:21Z</time>
      </trkpt>
      <trkpt lat="45.77278" lon="4.16831">
        <ele>405.5</ele>
        <time>2022-05-09T12:36:27Z</time>
      </trkpt>
      <trkpt lat="45.77278" lon="4.16822">
        <ele>404.7</ele>
        <time>2022-05-09T12:36:32Z</time>
      </trkpt>
      <trkpt lat="45.77277" lon="4.16814">
        <ele>403.7</ele>
        <time>2022-05-09T12:36:37Z</time>
      </trkpt>
      <trkpt lat="45.77275" lon="4.16807">
        <ele>403.8</ele>
        <time>2022-05-09T12:36:42Z</time>
      </trkpt>
      <trkpt lat="45.77272" lon="4.16799">
        <ele>405</ele>
        <time>2022-05-09T12:36:48Z</time>
      </trkpt>
      <trkpt lat="45.7727" lon="4.16795">
        <ele>403.9</ele>
        <time>2022-05-09T12:36:53Z</time>
      </trkpt>
      <trkpt lat="45.77268" lon="4.16791">
        <ele>404.8</ele>
        <time>2022-05-09T12:36:58Z</time>
      </trkpt>
      <trkpt lat="45.77268" lon="4.16789">
        <ele>405.2</ele>
        <time>2022-05-09T12:37:04Z</time>
      </trkpt>
      <trkpt lat="45.77276" lon="4.16786">
        <ele>404.6</ele>
        <time>2022-05-09T12:37:09Z</time>
      </trkpt>
      <trkpt lat="45.7728" lon="4.16782">
        <ele>405.2</ele>
        <time>2022-05-09T12:37:14Z</time>
      </trkpt>
      <trkpt lat="45.77285" lon="4.16775">
        <ele>404.2</ele>
        <time>2022-05-09T12:37:20Z</time>
      </trkpt>
      <trkpt lat="45.77287" lon="4.16768">
        <ele>403.5</ele>
        <time>2022-05-09T12:37:26Z</time>
      </trkpt>
      <trkpt lat="45.77287" lon="4.16761">
        <ele>403.5</ele>
        <time>2022-05-09T12:37:31Z</time>
      </trkpt>
      <trkpt lat="45.77287" lon="4.16752">
        <ele>403.5</ele>
        <time>2022-05-09T12:37:36Z</time>
      </trkpt>
      <trkpt lat="45.77286" lon="4.16743">
        <ele>403.5</ele>
        <time>2022-05-09T12:37:42Z</time>
      </trkpt>
      <trkpt lat="45.77285" lon="4.16735">
        <ele>403.5</ele>
        <time>2022-05-09T12:37:47Z</time>
      </trkpt>
      <trkpt lat="45.77283" lon="4.16727">
        <ele>403.9</ele>
        <time>2022-05-09T12:37:52Z</time>
      </trkpt>
      <trkpt lat="45.77284" lon="4.16717">
        <ele>403.9</ele>
        <time>2022-05-09T12:37:58Z</time>
      </trkpt>
      <trkpt lat="45.77285" lon="4.16707">
        <ele>404.4</ele>
        <time>2022-05-09T12:38:03Z</time>
      </trkpt>
      <trkpt lat="45.77286" lon="4.16698">
        <ele>403.8</ele>
        <time>2022-05-09T12:38:08Z</time>
      </trkpt>
      <trkpt lat="45.77288" lon="4.16688">
        <ele>403.6</ele>
        <time>2022-05-09T12:38:14Z</time>
      </trkpt>
      <trkpt lat="45.7729" lon="4.16678">
        <ele>403.4</ele>
        <time>2022-05-09T12:38:19Z</time>
      </trkpt>
      <trkpt lat="45.77291" lon="4.1667">
        <ele>403.5</ele>
        <time>2022-05-09T12:38:25Z</time>
      </trkpt>
      <trkpt lat="45.77291" lon="4.16663">
        <ele>404.4</ele>
        <time>2022-05-09T12:38:30Z</time>
      </trkpt>
      <trkpt lat="45.77292" lon="4.16657">
        <ele>403.5</ele>
        <time>2022-05-09T12:38:35Z</time>
      </trkpt>
      <trkpt lat="45.77292" lon="4.16651">
        <ele>403.7</ele>
        <time>2022-05-09T12:38:41Z</time>
      </trkpt>
      <trkpt lat="45.77292" lon="4.16647">
        <ele>403.6</ele>
        <time>2022-05-09T12:38:46Z</time>
      </trkpt>
      <trkpt lat="45.77293" lon="4.16651">
        <ele>403.9</ele>
        <time>2022-05-09T12:38:51Z</time>
      </trkpt>
      <trkpt lat="45.77296" lon="4.16649">
        <ele>403.8</ele>
        <time>2022-05-09T12:38:57Z</time>
      </trkpt>
      <trkpt lat="45.77301" lon="4.1665">
        <ele>403.5</ele>
        <time>2022-05-09T12:39:02Z</time>
      </trkpt>
      <trkpt lat="45.77306" lon="4.16652">
        <ele>403.5</ele>
        <time>2022-05-09T12:39:08Z</time>
      </trkpt>
      <trkpt lat="45.7731" lon="4.16653">
        <ele>403.5</ele>
        <time>2022-05-09T12:39:13Z</time>
      </trkpt>
      <trkpt lat="45.77312" lon="4.16648">
        <ele>403.5</ele>
        <time>2022-05-09T12:39:18Z</time>
      </trkpt>
      <trkpt lat="45.77313" lon="4.16642">
        <ele>403.6</ele>
        <time>2022-05-09T12:39:24Z</time>
      </trkpt>
      <trkpt lat="45.77312" lon="4.16635">
        <ele>403.5</ele>
        <time>2022-05-09T12:39:29Z</time>
      </trkpt>
      <trkpt lat="45.77312" lon="4.16629">
        <ele>403.8</ele>
        <time>2022-05-09T12:39:34Z</time>
      </trkpt>
      <trkpt lat="45.77312" lon="4.16622">
        <ele>403.8</ele>
        <time>2022-05-09T12:39:39Z</time>
      </trkpt>
      <trkpt lat="45.77311" lon="4.16615">
        <ele>403.6</ele>
        <time>2022-05-09T12:39:45Z</time>
      </trkpt>
      <trkpt lat="45.77306" lon="4.16609">
        <ele>403.4</ele>
        <time>2022-05-09T12:39:51Z</time>
      </trkpt>
      <trkpt lat="45.77304" lon="4.16601">
        <ele>403.4</ele>
        <time>2022-05-09T12:39:56Z</time>
      </trkpt>
      <trkpt lat="45.77302" lon="4.16594">
        <ele>403.4</ele>
        <time>2022-05-09T12:40:01Z</time>
      </trkpt>
      <trkpt lat="45.77299" lon="4.16587">
        <ele>403.7</ele>
        <time>2022-05-09T12:40:06Z</time>
      </trkpt>
      <trkpt lat="45.77298" lon="4.16579">
        <ele>403.7</ele>
        <time>2022-05-09T12:40:11Z</time>
      </trkpt>
      <trkpt lat="45.77298" lon="4.16566">
        <ele>403.5</ele>
        <time>2022-05-09T12:40:18Z</time>
      </trkpt>
      <trkpt lat="45.77298" lon="4.16555">
        <ele>403.4</ele>
        <time>2022-05-09T12:40:23Z</time>
      </trkpt>
      <trkpt lat="45.77297" lon="4.16546">
        <ele>403.4</ele>
        <time>2022-05-09T12:40:28Z</time>
      </trkpt>
      <trkpt lat="45.77297" lon="4.16537">
        <ele>403.6</ele>
        <time>2022-05-09T12:40:34Z</time>
      </trkpt>
      <trkpt lat="45.77296" lon="4.16527">
        <ele>403.2</ele>
        <time>2022-05-09T12:40:39Z</time>
      </trkpt>
      <trkpt lat="45.77294" lon="4.1652">
        <ele>403.2</ele>
        <time>2022-05-09T12:40:45Z</time>
      </trkpt>
      <trkpt lat="45.77296" lon="4.16509">
        <ele>403.2</ele>
        <time>2022-05-09T12:40:50Z</time>
      </trkpt>
      <trkpt lat="45.77297" lon="4.16502">
        <ele>403.6</ele>
        <time>2022-05-09T12:40:55Z</time>
      </trkpt>
      <trkpt lat="45.77299" lon="4.16492">
        <ele>403.5</ele>
        <time>2022-05-09T12:41:01Z</time>
      </trkpt>
      <trkpt lat="45.77302" lon="4.16482">
        <ele>403.3</ele>
        <time>2022-05-09T12:41:06Z</time>
      </trkpt>
      <trkpt lat="45.77306" lon="4.16473">
        <ele>403.3</ele>
        <time>2022-05-09T12:41:11Z</time>
      </trkpt>
      <trkpt lat="45.77306" lon="4.16465">
        <ele>403.4</ele>
        <time>2022-05-09T12:41:17Z</time>
      </trkpt>
      <trkpt lat="45.77305" lon="4.16458">
        <ele>403.5</ele>
        <time>2022-05-09T12:41:22Z</time>
      </trkpt>
      <trkpt lat="45.77303" lon="4.16451">
        <ele>404.1</ele>
        <time>2022-05-09T12:41:27Z</time>
      </trkpt>
      <trkpt lat="45.773" lon="4.16445">
        <ele>421.9</ele>
        <time>2022-05-09T12:41:33Z</time>
      </trkpt>
      <trkpt lat="45.77297" lon="4.16438">
        <ele>423.4</ele>
        <time>2022-05-09T12:41:38Z</time>
      </trkpt>
      <trkpt lat="45.77294" lon="4.16433">
        <ele>403.5</ele>
        <time>2022-05-09T12:41:43Z</time>
      </trkpt>
      <trkpt lat="45.77291" lon="4.16429">
        <ele>403.3</ele>
        <time>2022-05-09T12:41:48Z</time>
      </trkpt>
      <trkpt lat="45.77287" lon="4.16426">
        <ele>404.7</ele>
        <time>2022-05-09T12:41:54Z</time>
      </trkpt>
      <trkpt lat="45.77285" lon="4.16422">
        <ele>422.9</ele>
        <time>2022-05-09T12:41:59Z</time>
      </trkpt>
      <trkpt lat="45.77284" lon="4.16419">
        <ele>422.4</ele>
        <time>2022-05-09T12:42:04Z</time>
      </trkpt>
      <trkpt lat="45.77284" lon="4.16413">
        <ele>420.2</ele>
        <time>2022-05-09T12:42:09Z</time>
      </trkpt>
      <trkpt lat="45.77282" lon="4.16404">
        <ele>420.2</ele>
        <time>2022-05-09T12:42:15Z</time>
      </trkpt>
      <trkpt lat="45.77281" lon="4.16398">
        <ele>420.1</ele>
        <time>2022-05-09T12:42:20Z</time>
      </trkpt>
      <trkpt lat="45.7728" lon="4.16392">
        <ele>419.9</ele>
        <time>2022-05-09T12:42:26Z</time>
      </trkpt>
      <trkpt lat="45.77281" lon="4.16386">
        <ele>419.7</ele>
        <time>2022-05-09T12:42:32Z</time>
      </trkpt>
      <trkpt lat="45.77281" lon="4.16378">
        <ele>419.6</ele>
        <time>2022-05-09T12:42:37Z</time>
      </trkpt>
      <trkpt lat="45.77284" lon="4.16369">
        <ele>419.7</ele>
        <time>2022-05-09T12:42:42Z</time>
      </trkpt>
      <trkpt lat="45.77285" lon="4.16363">
        <ele>419.8</ele>
        <time>2022-05-09T12:42:47Z</time>
      </trkpt>
      <trkpt lat="45.77284" lon="4.16361">
        <ele>419.8</ele>
        <time>2022-05-09T12:42:52Z</time>
      </trkpt>
      <trkpt lat="45.77282" lon="4.16355">
        <ele>419.9</ele>
        <time>2022-05-09T12:42:58Z</time>
      </trkpt>
      <trkpt lat="45.77279" lon="4.16351">
        <ele>419.8</ele>
        <time>2022-05-09T12:43:03Z</time>
      </trkpt>
      <trkpt lat="45.77275" lon="4.16348">
        <ele>419.7</ele>
        <time>2022-05-09T12:43:09Z</time>
      </trkpt>
      <trkpt lat="45.7727" lon="4.16345">
        <ele>420</ele>
        <time>2022-05-09T12:43:14Z</time>
      </trkpt>
      <trkpt lat="45.77266" lon="4.1634">
        <ele>403.4</ele>
        <time>2022-05-09T12:43:19Z</time>
      </trkpt>
      <trkpt lat="45.77265" lon="4.16334">
        <ele>403.3</ele>
        <time>2022-05-09T12:43:25Z</time>
      </trkpt>
      <trkpt lat="45.77272" lon="4.16319">
        <ele>403.4</ele>
        <time>2022-05-09T12:43:30Z</time>
      </trkpt>
      <trkpt lat="45.77275" lon="4.16309">
        <ele>403.3</ele>
        <time>2022-05-09T12:43:36Z</time>
      </trkpt>
      <trkpt lat="45.7728" lon="4.16296">
        <ele>403.4</ele>
        <time>2022-05-09T12:43:41Z</time>
      </trkpt>
      <trkpt lat="45.77286" lon="4.16283">
        <ele>403.2</ele>
        <time>2022-05-09T12:43:46Z</time>
      </trkpt>
      <trkpt lat="45.77296" lon="4.16269">
        <ele>403</ele>
        <time>2022-05-09T12:43:52Z</time>
      </trkpt>
      <trkpt lat="45.77302" lon="4.1626">
        <ele>403</ele>
        <time>2022-05-09T12:43:57Z</time>
      </trkpt>
      <trkpt lat="45.77308" lon="4.1625">
        <ele>403</ele>
        <time>2022-05-09T12:44:03Z</time>
      </trkpt>
      <trkpt lat="45.77313" lon="4.16241">
        <ele>403.2</ele>
        <time>2022-05-09T12:44:08Z</time>
      </trkpt>
      <trkpt lat="45.77316" lon="4.16229">
        <ele>403.1</ele>
        <time>2022-05-09T12:44:13Z</time>
      </trkpt>
      <trkpt lat="45.77319" lon="4.16219">
        <ele>403</ele>
        <time>2022-05-09T12:44:19Z</time>
      </trkpt>
      <trkpt lat="45.77323" lon="4.1621">
        <ele>403.1</ele>
        <time>2022-05-09T12:44:24Z</time>
      </trkpt>
      <trkpt lat="45.77328" lon="4.16203">
        <ele>403</ele>
        <time>2022-05-09T12:44:29Z</time>
      </trkpt>
      <trkpt lat="45.77333" lon="4.16194">
        <ele>403</ele>
        <time>2022-05-09T12:44:34Z</time>
      </trkpt>
      <trkpt lat="45.77336" lon="4.16185">
        <ele>402.9</ele>
        <time>2022-05-09T12:44:40Z</time>
      </trkpt>
      <trkpt lat="45.77336" lon="4.16176">
        <ele>402.9</ele>
        <time>2022-05-09T12:44:45Z</time>
      </trkpt>
      <trkpt lat="45.77334" lon="4.16167">
        <ele>403</ele>
        <time>2022-05-09T12:44:50Z</time>
      </trkpt>
      <trkpt lat="45.77332" lon="4.16161">
        <ele>403</ele>
        <time>2022-05-09T12:44:56Z</time>
      </trkpt>
      <trkpt lat="45.77329" lon="4.16154">
        <ele>403</ele>
        <time>2022-05-09T12:45:01Z</time>
      </trkpt>
      <trkpt lat="45.77327" lon="4.16147">
        <ele>403</ele>
        <time>2022-05-09T12:45:06Z</time>
      </trkpt>
      <trkpt lat="45.77327" lon="4.16143">
        <ele>403</ele>
        <time>2022-05-09T12:45:12Z</time>
      </trkpt>
      <trkpt lat="45.77329" lon="4.16138">
        <ele>403</ele>
        <time>2022-05-09T12:45:18Z</time>
      </trkpt>
      <trkpt lat="45.77334" lon="4.16133">
        <ele>403</ele>
        <time>2022-05-09T12:45:23Z</time>
      </trkpt>
      <trkpt lat="45.7734" lon="4.16129">
        <ele>403</ele>
        <time>2022-05-09T12:45:28Z</time>
      </trkpt>
      <trkpt lat="45.77341" lon="4.16127">
        <ele>403</ele>
        <time>2022-05-09T12:45:34Z</time>
      </trkpt>
      <trkpt lat="45.77345" lon="4.16121">
        <ele>403</ele>
        <time>2022-05-09T12:45:39Z</time>
      </trkpt>
      <trkpt lat="45.7735" lon="4.16114">
        <ele>403</ele>
        <time>2022-05-09T12:45:45Z</time>
      </trkpt>
      <trkpt lat="45.77354" lon="4.16106">
        <ele>403</ele>
        <time>2022-05-09T12:45:50Z</time>
      </trkpt>
      <trkpt lat="45.77361" lon="4.1609">
        <ele>405.3</ele>
        <time>2022-05-09T12:45:56Z</time>
      </trkpt>
      <trkpt lat="45.77371" lon="4.16073">
        <ele>405.5</ele>
        <time>2022-05-09T12:46:01Z</time>
      </trkpt>
      <trkpt lat="45.77372" lon="4.16063">
        <ele>407.1</ele>
        <time>2022-05-09T12:46:06Z</time>
      </trkpt>
      <trkpt lat="45.77371" lon="4.16057">
        <ele>406.6</ele>
        <time>2022-05-09T12:46:12Z</time>
      </trkpt>
      <trkpt lat="45.77372" lon="4.16052">
        <ele>407.3</ele>
        <time>2022-05-09T12:46:17Z</time>
      </trkpt>
      <trkpt lat="45.77373" lon="4.16043">
        <ele>407</ele>
        <time>2022-05-09T12:46:22Z</time>
      </trkpt>
      <trkpt lat="45.77375" lon="4.16035">
        <ele>410.2</ele>
        <time>2022-05-09T12:46:27Z</time>
      </trkpt>
      <trkpt lat="45.77377" lon="4.1603">
        <ele>411.5</ele>
        <time>2022-05-09T12:46:33Z</time>
      </trkpt>
      <trkpt lat="45.77378" lon="4.1603">
        <ele>412.7</ele>
        <time>2022-05-09T12:46:39Z</time>
      </trkpt>
      <trkpt lat="45.77378" lon="4.16028">
        <ele>416.5</ele>
        <time>2022-05-09T12:46:44Z</time>
      </trkpt>
      <trkpt lat="45.77377" lon="4.16024">
        <ele>416.2</ele>
        <time>2022-05-09T12:46:50Z</time>
      </trkpt>
      <trkpt lat="45.77377" lon="4.16023">
        <ele>416.2</ele>
        <time>2022-05-09T12:46:56Z</time>
      </trkpt>
      <trkpt lat="45.77377" lon="4.16023">
        <ele>416.5</ele>
        <time>2022-05-09T12:47:01Z</time>
      </trkpt>
      <trkpt lat="45.77377" lon="4.16023">
        <ele>415.1</ele>
        <time>2022-05-09T12:47:06Z</time>
      </trkpt>
      <trkpt lat="45.77377" lon="4.16023">
        <ele>413.4</ele>
        <time>2022-05-09T12:47:12Z</time>
      </trkpt>
      <trkpt lat="45.77377" lon="4.16023">
        <ele>413.6</ele>
        <time>2022-05-09T12:47:18Z</time>
      </trkpt>
      <trkpt lat="45.77377" lon="4.16023">
        <ele>412.7</ele>
        <time>2022-05-09T12:47:23Z</time>
      </trkpt>
      <trkpt lat="45.77377" lon="4.16023">
        <ele>416.5</ele>
        <time>2022-05-09T12:47:29Z</time>
      </trkpt>
      <trkpt lat="45.77377" lon="4.16023">
        <ele>416.5</ele>
        <time>2022-05-09T12:47:35Z</time>
      </trkpt>
      <trkpt lat="45.77377" lon="4.16023">
        <ele>417.2</ele>
        <time>2022-05-09T12:47:40Z</time>
      </trkpt>
      <trkpt lat="45.77377" lon="4.16023">
        <ele>417.3</ele>
        <time>2022-05-09T12:47:46Z</time>
      </trkpt>
      <trkpt lat="45.77377" lon="4.16023">
        <ele>419.4</ele>
        <time>2022-05-09T12:47:51Z</time>
      </trkpt>
      <trkpt lat="45.77377" lon="4.16023">
        <ele>417.2</ele>
        <time>2022-05-09T12:47:57Z</time>
      </trkpt>
      <trkpt lat="45.77377" lon="4.16023">
        <ele>417.4</ele>
        <time>2022-05-09T12:48:02Z</time>
      </trkpt>
      <trkpt lat="45.77377" lon="4.16023">
        <ele>418</ele>
        <time>2022-05-09T12:48:08Z</time>
      </trkpt>
      <trkpt lat="45.77377" lon="4.16023">
        <ele>416.1</ele>
        <time>2022-05-09T12:48:20Z</time>
      </trkpt>
      <trkpt lat="45.77377" lon="4.16023">
        <ele>416.6</ele>
        <time>2022-05-09T12:48:26Z</time>
      </trkpt>
      <trkpt lat="45.77377" lon="4.16023">
        <ele>418.8</ele>
        <time>2022-05-09T12:48:31Z</time>
      </trkpt>
      <trkpt lat="45.77377" lon="4.16024">
        <ele>416</ele>
        <time>2022-05-09T12:48:37Z</time>
      </trkpt>
      <trkpt lat="45.7738" lon="4.16028">
        <ele>411</ele>
        <time>2022-05-09T12:48:42Z</time>
      </trkpt>
      <trkpt lat="45.77384" lon="4.16029">
        <ele>406.6</ele>
        <time>2022-05-09T12:48:48Z</time>
      </trkpt>
      <trkpt lat="45.77387" lon="4.16025">
        <ele>405.8</ele>
        <time>2022-05-09T12:48:53Z</time>
      </trkpt>
      <trkpt lat="45.7739" lon="4.16018">
        <ele>406.8</ele>
        <time>2022-05-09T12:48:58Z</time>
      </trkpt>
      <trkpt lat="45.77393" lon="4.16011">
        <ele>405.2</ele>
        <time>2022-05-09T12:49:03Z</time>
      </trkpt>
      <trkpt lat="45.77395" lon="4.16004">
        <ele>407.8</ele>
        <time>2022-05-09T12:49:09Z</time>
      </trkpt>
      <trkpt lat="45.77395" lon="4.15997">
        <ele>407.5</ele>
        <time>2022-05-09T12:49:14Z</time>
      </trkpt>
      <trkpt lat="45.77396" lon="4.15989">
        <ele>406</ele>
        <time>2022-05-09T12:49:19Z</time>
      </trkpt>
      <trkpt lat="45.77399" lon="4.15982">
        <ele>405.4</ele>
        <time>2022-05-09T12:49:24Z</time>
      </trkpt>
      <trkpt lat="45.77401" lon="4.15976">
        <ele>406.1</ele>
        <time>2022-05-09T12:49:29Z</time>
      </trkpt>
      <trkpt lat="45.77404" lon="4.15972">
        <ele>405.2</ele>
        <time>2022-05-09T12:49:34Z</time>
      </trkpt>
      <trkpt lat="45.77408" lon="4.15968">
        <ele>405.3</ele>
        <time>2022-05-09T12:49:40Z</time>
      </trkpt>
      <trkpt lat="45.77413" lon="4.15964">
        <ele>405.4</ele>
        <time>2022-05-09T12:49:45Z</time>
      </trkpt>
      <trkpt lat="45.77417" lon="4.1596">
        <ele>405.2</ele>
        <time>2022-05-09T12:49:50Z</time>
      </trkpt>
      <trkpt lat="45.77419" lon="4.15954">
        <ele>405</ele>
        <time>2022-05-09T12:49:55Z</time>
      </trkpt>
      <trkpt lat="45.77419" lon="4.15947">
        <ele>404.9</ele>
        <time>2022-05-09T12:50:00Z</time>
      </trkpt>
      <trkpt lat="45.77419" lon="4.15941">
        <ele>404.8</ele>
        <time>2022-05-09T12:50:06Z</time>
      </trkpt>
      <trkpt lat="45.7742" lon="4.15937">
        <ele>404.9</ele>
        <time>2022-05-09T12:50:11Z</time>
      </trkpt>
      <trkpt lat="45.77421" lon="4.15932">
        <ele>404.6</ele>
        <time>2022-05-09T12:50:16Z</time>
      </trkpt>
      <trkpt lat="45.77421" lon="4.15925">
        <ele>404.4</ele>
        <time>2022-05-09T12:50:21Z</time>
      </trkpt>
      <trkpt lat="45.77422" lon="4.15917">
        <ele>404.4</ele>
        <time>2022-05-09T12:50:27Z</time>
      </trkpt>
      <trkpt lat="45.77421" lon="4.15909">
        <ele>405.4</ele>
        <time>2022-05-09T12:50:32Z</time>
      </trkpt>
      <trkpt lat="45.7742" lon="4.159">
        <ele>404.5</ele>
        <time>2022-05-09T12:50:37Z</time>
      </trkpt>
      <trkpt lat="45.77419" lon="4.15893">
        <ele>405.5</ele>
        <time>2022-05-09T12:50:42Z</time>
      </trkpt>
      <trkpt lat="45.7742" lon="4.15887">
        <ele>404.3</ele>
        <time>2022-05-09T12:50:47Z</time>
      </trkpt>
      <trkpt lat="45.77421" lon="4.15881">
        <ele>404.4</ele>
        <time>2022-05-09T12:50:53Z</time>
      </trkpt>
      <trkpt lat="45.77422" lon="4.15874">
        <ele>405.3</ele>
        <time>2022-05-09T12:50:58Z</time>
      </trkpt>
      <trkpt lat="45.77422" lon="4.15867">
        <ele>404.3</ele>
        <time>2022-05-09T12:51:03Z</time>
      </trkpt>
      <trkpt lat="45.77422" lon="4.1586">
        <ele>404.6</ele>
        <time>2022-05-09T12:51:08Z</time>
      </trkpt>
      <trkpt lat="45.77423" lon="4.15851">
        <ele>405.9</ele>
        <time>2022-05-09T12:51:14Z</time>
      </trkpt>
      <trkpt lat="45.77425" lon="4.15844">
        <ele>404.6</ele>
        <time>2022-05-09T12:51:19Z</time>
      </trkpt>
      <trkpt lat="45.77429" lon="4.15837">
        <ele>405.2</ele>
        <time>2022-05-09T12:51:24Z</time>
      </trkpt>
      <trkpt lat="45.77433" lon="4.1583">
        <ele>404.5</ele>
        <time>2022-05-09T12:51:29Z</time>
      </trkpt>
      <trkpt lat="45.77436" lon="4.15822">
        <ele>404.4</ele>
        <time>2022-05-09T12:51:35Z</time>
      </trkpt>
      <trkpt lat="45.7744" lon="4.15815">
        <ele>411.7</ele>
        <time>2022-05-09T12:51:40Z</time>
      </trkpt>
      <trkpt lat="45.77445" lon="4.15811">
        <ele>408.4</ele>
        <time>2022-05-09T12:51:45Z</time>
      </trkpt>
      <trkpt lat="45.77451" lon="4.15807">
        <ele>411.4</ele>
        <time>2022-05-09T12:51:50Z</time>
      </trkpt>
      <trkpt lat="45.77456" lon="4.15802">
        <ele>411.3</ele>
        <time>2022-05-09T12:51:56Z</time>
      </trkpt>
      <trkpt lat="45.7746" lon="4.15796">
        <ele>407.1</ele>
        <time>2022-05-09T12:52:01Z</time>
      </trkpt>
      <trkpt lat="45.77464" lon="4.15789">
        <ele>407</ele>
        <time>2022-05-09T12:52:07Z</time>
      </trkpt>
      <trkpt lat="45.77467" lon="4.15782">
        <ele>406.2</ele>
        <time>2022-05-09T12:52:12Z</time>
      </trkpt>
      <trkpt lat="45.77469" lon="4.15773">
        <ele>409.5</ele>
        <time>2022-05-09T12:52:17Z</time>
      </trkpt>
      <trkpt lat="45.77468" lon="4.15764">
        <ele>408.5</ele>
        <time>2022-05-09T12:52:22Z</time>
      </trkpt>
      <trkpt lat="45.77469" lon="4.15756">
        <ele>407.2</ele>
        <time>2022-05-09T12:52:27Z</time>
      </trkpt>
      <trkpt lat="45.7747" lon="4.15748">
        <ele>407.1</ele>
        <time>2022-05-09T12:52:32Z</time>
      </trkpt>
      <trkpt lat="45.77473" lon="4.15741">
        <ele>406.2</ele>
        <time>2022-05-09T12:52:38Z</time>
      </trkpt>
      <trkpt lat="45.7748" lon="4.1574">
        <ele>408.5</ele>
        <time>2022-05-09T12:52:43Z</time>
      </trkpt>
      <trkpt lat="45.77487" lon="4.15739">
        <ele>411</ele>
        <time>2022-05-09T12:52:48Z</time>
      </trkpt>
      <trkpt lat="45.77493" lon="4.15735">
        <ele>411.4</ele>
        <time>2022-05-09T12:52:54Z</time>
      </trkpt>
      <trkpt lat="45.77498" lon="4.15729">
        <ele>415.7</ele>
        <time>2022-05-09T12:52:59Z</time>
      </trkpt>
      <trkpt lat="45.77503" lon="4.15724">
        <ele>415.7</ele>
        <time>2022-05-09T12:53:05Z</time>
      </trkpt>
      <trkpt lat="45.77507" lon="4.15721">
        <ele>418.1</ele>
        <time>2022-05-09T12:53:10Z</time>
      </trkpt>
      <trkpt lat="45.77511" lon="4.15715">
        <ele>417.9</ele>
        <time>2022-05-09T12:53:15Z</time>
      </trkpt>
      <trkpt lat="45.77515" lon="4.15709">
        <ele>416.6</ele>
        <time>2022-05-09T12:53:20Z</time>
      </trkpt>
      <trkpt lat="45.77517" lon="4.15704">
        <ele>416.6</ele>
        <time>2022-05-09T12:53:25Z</time>
      </trkpt>
      <trkpt lat="45.77521" lon="4.15697">
        <ele>414.9</ele>
        <time>2022-05-09T12:53:31Z</time>
      </trkpt>
      <trkpt lat="45.77523" lon="4.15692">
        <ele>419.3</ele>
        <time>2022-05-09T12:53:36Z</time>
      </trkpt>
      <trkpt lat="45.77525" lon="4.15683">
        <ele>416.3</ele>
        <time>2022-05-09T12:53:42Z</time>
      </trkpt>
      <trkpt lat="45.77527" lon="4.15674">
        <ele>410.4</ele>
        <time>2022-05-09T12:53:47Z</time>
      </trkpt>
      <trkpt lat="45.77531" lon="4.15666">
        <ele>411.1</ele>
        <time>2022-05-09T12:53:53Z</time>
      </trkpt>
      <trkpt lat="45.77538" lon="4.15662">
        <ele>413.4</ele>
        <time>2022-05-09T12:53:58Z</time>
      </trkpt>
      <trkpt lat="45.77544" lon="4.15658">
        <ele>412.8</ele>
        <time>2022-05-09T12:54:03Z</time>
      </trkpt>
      <trkpt lat="45.77548" lon="4.15652">
        <ele>414.1</ele>
        <time>2022-05-09T12:54:08Z</time>
      </trkpt>
      <trkpt lat="45.77551" lon="4.15647">
        <ele>415.5</ele>
        <time>2022-05-09T12:54:14Z</time>
      </trkpt>
      <trkpt lat="45.77555" lon="4.15642">
        <ele>419.5</ele>
        <time>2022-05-09T12:54:19Z</time>
      </trkpt>
      <trkpt lat="45.77557" lon="4.15633">
        <ele>413</ele>
        <time>2022-05-09T12:54:25Z</time>
      </trkpt>
      <trkpt lat="45.77555" lon="4.15624">
        <ele>412.5</ele>
        <time>2022-05-09T12:54:30Z</time>
      </trkpt>
      <trkpt lat="45.77551" lon="4.15617">
        <ele>412.9</ele>
        <time>2022-05-09T12:54:36Z</time>
      </trkpt>
      <trkpt lat="45.77546" lon="4.15611">
        <ele>418.1</ele>
        <time>2022-05-09T12:54:41Z</time>
      </trkpt>
      <trkpt lat="45.77543" lon="4.15604">
        <ele>424.8</ele>
        <time>2022-05-09T12:54:46Z</time>
      </trkpt>
      <trkpt lat="45.77539" lon="4.15596">
        <ele>421.7</ele>
        <time>2022-05-09T12:54:52Z</time>
      </trkpt>
      <trkpt lat="45.77537" lon="4.15589">
        <ele>420.2</ele>
        <time>2022-05-09T12:54:58Z</time>
      </trkpt>
      <trkpt lat="45.77536" lon="4.15582">
        <ele>422.3</ele>
        <time>2022-05-09T12:55:03Z</time>
      </trkpt>
      <trkpt lat="45.77535" lon="4.15576">
        <ele>419.1</ele>
        <time>2022-05-09T12:55:08Z</time>
      </trkpt>
      <trkpt lat="45.77534" lon="4.15568">
        <ele>416.6</ele>
        <time>2022-05-09T12:55:14Z</time>
      </trkpt>
      <trkpt lat="45.77534" lon="4.15559">
        <ele>411</ele>
        <time>2022-05-09T12:55:19Z</time>
      </trkpt>
      <trkpt lat="45.77533" lon="4.1555">
        <ele>413.5</ele>
        <time>2022-05-09T12:55:25Z</time>
      </trkpt>
      <trkpt lat="45.77531" lon="4.15542">
        <ele>413.4</ele>
        <time>2022-05-09T12:55:30Z</time>
      </trkpt>
      <trkpt lat="45.77529" lon="4.15534">
        <ele>408.1</ele>
        <time>2022-05-09T12:55:35Z</time>
      </trkpt>
      <trkpt lat="45.77528" lon="4.15526">
        <ele>410.3</ele>
        <time>2022-05-09T12:55:41Z</time>
      </trkpt>
      <trkpt lat="45.77526" lon="4.15519">
        <ele>409</ele>
        <time>2022-05-09T12:55:46Z</time>
      </trkpt>
      <trkpt lat="45.77525" lon="4.1551">
        <ele>406.7</ele>
        <time>2022-05-09T12:55:51Z</time>
      </trkpt>
      <trkpt lat="45.77524" lon="4.15502">
        <ele>407.4</ele>
        <time>2022-05-09T12:55:57Z</time>
      </trkpt>
      <trkpt lat="45.77523" lon="4.15493">
        <ele>407.4</ele>
        <time>2022-05-09T12:56:02Z</time>
      </trkpt>
      <trkpt lat="45.77521" lon="4.15485">
        <ele>406.8</ele>
        <time>2022-05-09T12:56:07Z</time>
      </trkpt>
      <trkpt lat="45.77517" lon="4.15479">
        <ele>405.2</ele>
        <time>2022-05-09T12:56:12Z</time>
      </trkpt>
      <trkpt lat="45.77513" lon="4.15476">
        <ele>405.5</ele>
        <time>2022-05-09T12:56:17Z</time>
      </trkpt>
      <trkpt lat="45.77508" lon="4.15473">
        <ele>405.3</ele>
        <time>2022-05-09T12:56:23Z</time>
      </trkpt>
      <trkpt lat="45.77504" lon="4.15469">
        <ele>404.7</ele>
        <time>2022-05-09T12:56:28Z</time>
      </trkpt>
      <trkpt lat="45.775" lon="4.15464">
        <ele>404.5</ele>
        <time>2022-05-09T12:56:34Z</time>
      </trkpt>
      <trkpt lat="45.77496" lon="4.15458">
        <ele>404.2</ele>
        <time>2022-05-09T12:56:40Z</time>
      </trkpt>
      <trkpt lat="45.77492" lon="4.15451">
        <ele>404.1</ele>
        <time>2022-05-09T12:56:45Z</time>
      </trkpt>
      <trkpt lat="45.77489" lon="4.15442">
        <ele>404.1</ele>
        <time>2022-05-09T12:56:51Z</time>
      </trkpt>
      <trkpt lat="45.77486" lon="4.15433">
        <ele>404.4</ele>
        <time>2022-05-09T12:56:56Z</time>
      </trkpt>
      <trkpt lat="45.77487" lon="4.1542">
        <ele>404.6</ele>
        <time>2022-05-09T12:57:01Z</time>
      </trkpt>
      <trkpt lat="45.77485" lon="4.15413">
        <ele>404.5</ele>
        <time>2022-05-09T12:57:06Z</time>
      </trkpt>
      <trkpt lat="45.77484" lon="4.15404">
        <ele>404.6</ele>
        <time>2022-05-09T12:57:12Z</time>
      </trkpt>
      <trkpt lat="45.77483" lon="4.15396">
        <ele>404.7</ele>
        <time>2022-05-09T12:57:17Z</time>
      </trkpt>
      <trkpt lat="45.77482" lon="4.15388">
        <ele>405</ele>
        <time>2022-05-09T12:57:22Z</time>
      </trkpt>
      <trkpt lat="45.77481" lon="4.15381">
        <ele>406.3</ele>
        <time>2022-05-09T12:57:27Z</time>
      </trkpt>
      <trkpt lat="45.7748" lon="4.15374">
        <ele>404.5</ele>
        <time>2022-05-09T12:57:32Z</time>
      </trkpt>
      <trkpt lat="45.7748" lon="4.15365">
        <ele>404.4</ele>
        <time>2022-05-09T12:57:38Z</time>
      </trkpt>
      <trkpt lat="45.7748" lon="4.15357">
        <ele>405.7</ele>
        <time>2022-05-09T12:57:44Z</time>
      </trkpt>
      <trkpt lat="45.77479" lon="4.1535">
        <ele>404.1</ele>
        <time>2022-05-09T12:57:49Z</time>
      </trkpt>
      <trkpt lat="45.77477" lon="4.15344">
        <ele>404.5</ele>
        <time>2022-05-09T12:57:54Z</time>
      </trkpt>
      <trkpt lat="45.77473" lon="4.15341">
        <ele>404.6</ele>
        <time>2022-05-09T12:57:59Z</time>
      </trkpt>
      <trkpt lat="45.77469" lon="4.15339">
        <ele>404.2</ele>
        <time>2022-05-09T12:58:04Z</time>
      </trkpt>
      <trkpt lat="45.77464" lon="4.15338">
        <ele>404</ele>
        <time>2022-05-09T12:58:09Z</time>
      </trkpt>
      <trkpt lat="45.77459" lon="4.15338">
        <ele>404.2</ele>
        <time>2022-05-09T12:58:14Z</time>
      </trkpt>
      <trkpt lat="45.77454" lon="4.15336">
        <ele>404.3</ele>
        <time>2022-05-09T12:58:20Z</time>
      </trkpt>
      <trkpt lat="45.77449" lon="4.15333">
        <ele>404.2</ele>
        <time>2022-05-09T12:58:25Z</time>
      </trkpt>
      <trkpt lat="45.77445" lon="4.15326">
        <ele>403.9</ele>
        <time>2022-05-09T12:58:31Z</time>
      </trkpt>
      <trkpt lat="45.77445" lon="4.15316">
        <ele>404.9</ele>
        <time>2022-05-09T12:58:36Z</time>
      </trkpt>
      <trkpt lat="45.77447" lon="4.15307">
        <ele>403.9</ele>
        <time>2022-05-09T12:58:41Z</time>
      </trkpt>
      <trkpt lat="45.77448" lon="4.15297">
        <ele>404.2</ele>
        <time>2022-05-09T12:58:47Z</time>
      </trkpt>
      <trkpt lat="45.77449" lon="4.15286">
        <ele>404.3</ele>
        <time>2022-05-09T12:58:52Z</time>
      </trkpt>
      <trkpt lat="45.77452" lon="4.15277">
        <ele>404.1</ele>
        <time>2022-05-09T12:58:57Z</time>
      </trkpt>
      <trkpt lat="45.77457" lon="4.1527">
        <ele>404.2</ele>
        <time>2022-05-09T12:59:02Z</time>
      </trkpt>
      <trkpt lat="45.7746" lon="4.15261">
        <ele>404</ele>
        <time>2022-05-09T12:59:08Z</time>
      </trkpt>
      <trkpt lat="45.77465" lon="4.15253">
        <ele>403.7</ele>
        <time>2022-05-09T12:59:13Z</time>
      </trkpt>
      <trkpt lat="45.77469" lon="4.15247">
        <ele>403.8</ele>
        <time>2022-05-09T12:59:18Z</time>
      </trkpt>
      <trkpt lat="45.77475" lon="4.15243">
        <ele>403.8</ele>
        <time>2022-05-09T12:59:24Z</time>
      </trkpt>
      <trkpt lat="45.77482" lon="4.15243">
        <ele>404.5</ele>
        <time>2022-05-09T12:59:29Z</time>
      </trkpt>
      <trkpt lat="45.77488" lon="4.1524">
        <ele>404.1</ele>
        <time>2022-05-09T12:59:34Z</time>
      </trkpt>
      <trkpt lat="45.77494" lon="4.15241">
        <ele>406.9</ele>
        <time>2022-05-09T12:59:40Z</time>
      </trkpt>
      <trkpt lat="45.77497" lon="4.15235">
        <ele>406.1</ele>
        <time>2022-05-09T12:59:45Z</time>
      </trkpt>
      <trkpt lat="45.77498" lon="4.15225">
        <ele>409.1</ele>
        <time>2022-05-09T12:59:50Z</time>
      </trkpt>
      <trkpt lat="45.77499" lon="4.15218">
        <ele>408.4</ele>
        <time>2022-05-09T12:59:55Z</time>
      </trkpt>
      <trkpt lat="45.77503" lon="4.15213">
        <ele>409.3</ele>
        <time>2022-05-09T13:00:00Z</time>
      </trkpt>
      <trkpt lat="45.77508" lon="4.15209">
        <ele>409.7</ele>
        <time>2022-05-09T13:00:06Z</time>
      </trkpt>
      <trkpt lat="45.77511" lon="4.15199">
        <ele>416.2</ele>
        <time>2022-05-09T13:00:11Z</time>
      </trkpt>
      <trkpt lat="45.77512" lon="4.15186">
        <ele>419.4</ele>
        <time>2022-05-09T13:00:16Z</time>
      </trkpt>
      <trkpt lat="45.77514" lon="4.15176">
        <ele>423.3</ele>
        <time>2022-05-09T13:00:22Z</time>
      </trkpt>
      <trkpt lat="45.77517" lon="4.15169">
        <ele>425.3</ele>
        <time>2022-05-09T13:00:27Z</time>
      </trkpt>
      <trkpt lat="45.77523" lon="4.15165">
        <ele>427.5</ele>
        <time>2022-05-09T13:00:33Z</time>
      </trkpt>
      <trkpt lat="45.77527" lon="4.15162">
        <ele>427.8</ele>
        <time>2022-05-09T13:00:38Z</time>
      </trkpt>
      <trkpt lat="45.77531" lon="4.15158">
        <ele>432.5</ele>
        <time>2022-05-09T13:00:44Z</time>
      </trkpt>
      <trkpt lat="45.77536" lon="4.15155">
        <ele>433.5</ele>
        <time>2022-05-09T13:00:49Z</time>
      </trkpt>
      <trkpt lat="45.7754" lon="4.15154">
        <ele>434.8</ele>
        <time>2022-05-09T13:00:54Z</time>
      </trkpt>
      <trkpt lat="45.77541" lon="4.15156">
        <ele>426.5</ele>
        <time>2022-05-09T13:01:00Z</time>
      </trkpt>
      <trkpt lat="45.77543" lon="4.15154">
        <ele>426.9</ele>
        <time>2022-05-09T13:01:05Z</time>
      </trkpt>
      <trkpt lat="45.77546" lon="4.15153">
        <ele>429.4</ele>
        <time>2022-05-09T13:01:10Z</time>
      </trkpt>
      <trkpt lat="45.7755" lon="4.15153">
        <ele>433.9</ele>
        <time>2022-05-09T13:01:15Z</time>
      </trkpt>
      <trkpt lat="45.77556" lon="4.15155">
        <ele>424.9</ele>
        <time>2022-05-09T13:01:20Z</time>
      </trkpt>
      <trkpt lat="45.77563" lon="4.15154">
        <ele>427.5</ele>
        <time>2022-05-09T13:01:26Z</time>
      </trkpt>
      <trkpt lat="45.77569" lon="4.15155">
        <ele>420.4</ele>
        <time>2022-05-09T13:01:31Z</time>
      </trkpt>
      <trkpt lat="45.77574" lon="4.15157">
        <ele>417.2</ele>
        <time>2022-05-09T13:01:36Z</time>
      </trkpt>
      <trkpt lat="45.7758" lon="4.1516">
        <ele>418.7</ele>
        <time>2022-05-09T13:01:42Z</time>
      </trkpt>
      <trkpt lat="45.77584" lon="4.15161">
        <ele>419.3</ele>
        <time>2022-05-09T13:01:47Z</time>
      </trkpt>
      <trkpt lat="45.77588" lon="4.15161">
        <ele>418</ele>
        <time>2022-05-09T13:01:53Z</time>
      </trkpt>
      <trkpt lat="45.77594" lon="4.15161">
        <ele>425.8</ele>
        <time>2022-05-09T13:01:58Z</time>
      </trkpt>
      <trkpt lat="45.77599" lon="4.15156">
        <ele>426.9</ele>
        <time>2022-05-09T13:02:04Z</time>
      </trkpt>
      <trkpt lat="45.77602" lon="4.15153">
        <ele>431</ele>
        <time>2022-05-09T13:02:10Z</time>
      </trkpt>
      <trkpt lat="45.77605" lon="4.15152">
        <ele>432.4</ele>
        <time>2022-05-09T13:02:15Z</time>
      </trkpt>
      <trkpt lat="45.77606" lon="4.15149">
        <ele>432.3</ele>
        <time>2022-05-09T13:02:20Z</time>
      </trkpt>
      <trkpt lat="45.77608" lon="4.15146">
        <ele>433.6</ele>
        <time>2022-05-09T13:02:25Z</time>
      </trkpt>
      <trkpt lat="45.77611" lon="4.15144">
        <ele>413.9</ele>
        <time>2022-05-09T13:02:31Z</time>
      </trkpt>
      <trkpt lat="45.77611" lon="4.15144">
        <ele>416.6</ele>
        <time>2022-05-09T13:02:37Z</time>
      </trkpt>
      <trkpt lat="45.77613" lon="4.15143">
        <ele>412.5</ele>
        <time>2022-05-09T13:02:42Z</time>
      </trkpt>
      <trkpt lat="45.77617" lon="4.15144">
        <ele>416.9</ele>
        <time>2022-05-09T13:02:48Z</time>
      </trkpt>
      <trkpt lat="45.77618" lon="4.15143">
        <ele>415.8</ele>
        <time>2022-05-09T13:02:54Z</time>
      </trkpt>
      <trkpt lat="45.77618" lon="4.15143">
        <ele>417.5</ele>
        <time>2022-05-09T13:03:00Z</time>
      </trkpt>
      <trkpt lat="45.77619" lon="4.15139">
        <ele>426.5</ele>
        <time>2022-05-09T13:03:05Z</time>
      </trkpt>
      <trkpt lat="45.7762" lon="4.15137">
        <ele>422.8</ele>
        <time>2022-05-09T13:03:11Z</time>
      </trkpt>
      <trkpt lat="45.77625" lon="4.1513">
        <ele>413.5</ele>
        <time>2022-05-09T13:03:16Z</time>
      </trkpt>
      <trkpt lat="45.77631" lon="4.15125">
        <ele>411.2</ele>
        <time>2022-05-09T13:03:21Z</time>
      </trkpt>
      <trkpt lat="45.77636" lon="4.15122">
        <ele>409.7</ele>
        <time>2022-05-09T13:03:27Z</time>
      </trkpt>
      <trkpt lat="45.77641" lon="4.1512">
        <ele>408.9</ele>
        <time>2022-05-09T13:03:32Z</time>
      </trkpt>
      <trkpt lat="45.77643" lon="4.15117">
        <ele>408.3</ele>
        <time>2022-05-09T13:03:37Z</time>
      </trkpt>
      <trkpt lat="45.77643" lon="4.15111">
        <ele>409</ele>
        <time>2022-05-09T13:03:42Z</time>
      </trkpt>
      <trkpt lat="45.7764" lon="4.15109">
        <ele>408.2</ele>
        <time>2022-05-09T13:03:47Z</time>
      </trkpt>
      <trkpt lat="45.77638" lon="4.15108">
        <ele>407.7</ele>
        <time>2022-05-09T13:03:52Z</time>
      </trkpt>
      <trkpt lat="45.77641" lon="4.15108">
        <ele>408.2</ele>
        <time>2022-05-09T13:03:58Z</time>
      </trkpt>
      <trkpt lat="45.77644" lon="4.15107">
        <ele>407.5</ele>
        <time>2022-05-09T13:04:03Z</time>
      </trkpt>
      <trkpt lat="45.77648" lon="4.15112">
        <ele>408.2</ele>
        <time>2022-05-09T13:04:08Z</time>
      </trkpt>
      <trkpt lat="45.77651" lon="4.15126">
        <ele>407.8</ele>
        <time>2022-05-09T13:04:13Z</time>
      </trkpt>
      <trkpt lat="45.77652" lon="4.15137">
        <ele>407.3</ele>
        <time>2022-05-09T13:04:18Z</time>
      </trkpt>
      <trkpt lat="45.77653" lon="4.15142">
        <ele>407.3</ele>
        <time>2022-05-09T13:04:24Z</time>
      </trkpt>
      <trkpt lat="45.77654" lon="4.15144">
        <ele>406.4</ele>
        <time>2022-05-09T13:04:29Z</time>
      </trkpt>
      <trkpt lat="45.77655" lon="4.15145">
        <ele>406.6</ele>
        <time>2022-05-09T13:04:34Z</time>
      </trkpt>
      <trkpt lat="45.77662" lon="4.1514">
        <ele>408.3</ele>
        <time>2022-05-09T13:04:40Z</time>
      </trkpt>
      <trkpt lat="45.77671" lon="4.15127">
        <ele>407.5</ele>
        <time>2022-05-09T13:04:45Z</time>
      </trkpt>
      <trkpt lat="45.77678" lon="4.15113">
        <ele>405.4</ele>
        <time>2022-05-09T13:04:51Z</time>
      </trkpt>
      <trkpt lat="45.77684" lon="4.15103">
        <ele>405.7</ele>
        <time>2022-05-09T13:04:56Z</time>
      </trkpt>
      <trkpt lat="45.7769" lon="4.15094">
        <ele>405.6</ele>
        <time>2022-05-09T13:05:01Z</time>
      </trkpt>
      <trkpt lat="45.77696" lon="4.15089">
        <ele>407.6</ele>
        <time>2022-05-09T13:05:07Z</time>
      </trkpt>
      <trkpt lat="45.77703" lon="4.15088">
        <ele>405.5</ele>
        <time>2022-05-09T13:05:12Z</time>
      </trkpt>
      <trkpt lat="45.77709" lon="4.1509">
        <ele>405.4</ele>
        <time>2022-05-09T13:05:18Z</time>
      </trkpt>
      <trkpt lat="45.77714" lon="4.15092">
        <ele>405.4</ele>
        <time>2022-05-09T13:05:23Z</time>
      </trkpt>
      <trkpt lat="45.7772" lon="4.15094">
        <ele>405.6</ele>
        <time>2022-05-09T13:05:29Z</time>
      </trkpt>
      <trkpt lat="45.77726" lon="4.15095">
        <ele>405.9</ele>
        <time>2022-05-09T13:05:34Z</time>
      </trkpt>
      <trkpt lat="45.77733" lon="4.15096">
        <ele>405.7</ele>
        <time>2022-05-09T13:05:39Z</time>
      </trkpt>
      <trkpt lat="45.7774" lon="4.15095">
        <ele>405.2</ele>
        <time>2022-05-09T13:05:44Z</time>
      </trkpt>
      <trkpt lat="45.77757" lon="4.15091">
        <ele>417.3</ele>
        <time>2022-05-09T13:05:50Z</time>
      </trkpt>
      <trkpt lat="45.77774" lon="4.15086">
        <ele>423.7</ele>
        <time>2022-05-09T13:05:55Z</time>
      </trkpt>
      <trkpt lat="45.77783" lon="4.15089">
        <ele>422.3</ele>
        <time>2022-05-09T13:06:00Z</time>
      </trkpt>
      <trkpt lat="45.77794" lon="4.15094">
        <ele>420.7</ele>
        <time>2022-05-09T13:06:05Z</time>
      </trkpt>
      <trkpt lat="45.778" lon="4.15097">
        <ele>421.4</ele>
        <time>2022-05-09T13:06:11Z</time>
      </trkpt>
      <trkpt lat="45.77802" lon="4.15105">
        <ele>411.9</ele>
        <time>2022-05-09T13:06:16Z</time>
      </trkpt>
      <trkpt lat="45.77797" lon="4.15115">
        <ele>415.4</ele>
        <time>2022-05-09T13:06:22Z</time>
      </trkpt>
      <trkpt lat="45.778" lon="4.15114">
        <ele>422</ele>
        <time>2022-05-09T13:06:27Z</time>
      </trkpt>
      <trkpt lat="45.7781" lon="4.15108">
        <ele>433.3</ele>
        <time>2022-05-09T13:06:32Z</time>
      </trkpt>
      <trkpt lat="45.77818" lon="4.15104">
        <ele>436.5</ele>
        <time>2022-05-09T13:06:37Z</time>
      </trkpt>
      <trkpt lat="45.77827" lon="4.15098">
        <ele>431.4</ele>
        <time>2022-05-09T13:06:43Z</time>
      </trkpt>
      <trkpt lat="45.77835" lon="4.15095">
        <ele>428.8</ele>
        <time>2022-05-09T13:06:48Z</time>
      </trkpt>
      <trkpt lat="45.7784" lon="4.15096">
        <ele>427</ele>
        <time>2022-05-09T13:06:53Z</time>
      </trkpt>
      <trkpt lat="45.77844" lon="4.15098">
        <ele>428.9</ele>
        <time>2022-05-09T13:06:58Z</time>
      </trkpt>
      <trkpt lat="45.77849" lon="4.15098">
        <ele>424.9</ele>
        <time>2022-05-09T13:07:04Z</time>
      </trkpt>
      <trkpt lat="45.77855" lon="4.15096">
        <ele>423.3</ele>
        <time>2022-05-09T13:07:10Z</time>
      </trkpt>
      <trkpt lat="45.77861" lon="4.15098">
        <ele>414.9</ele>
        <time>2022-05-09T13:07:15Z</time>
      </trkpt>
      <trkpt lat="45.77868" lon="4.151">
        <ele>411.6</ele>
        <time>2022-05-09T13:07:20Z</time>
      </trkpt>
      <trkpt lat="45.77873" lon="4.15103">
        <ele>409.1</ele>
        <time>2022-05-09T13:07:25Z</time>
      </trkpt>
      <trkpt lat="45.77879" lon="4.15104">
        <ele>407.9</ele>
        <time>2022-05-09T13:07:31Z</time>
      </trkpt>
      <trkpt lat="45.77885" lon="4.15105">
        <ele>407.8</ele>
        <time>2022-05-09T13:07:36Z</time>
      </trkpt>
      <trkpt lat="45.7789" lon="4.15107">
        <ele>408.1</ele>
        <time>2022-05-09T13:07:41Z</time>
      </trkpt>
      <trkpt lat="45.77894" lon="4.15108">
        <ele>406.6</ele>
        <time>2022-05-09T13:07:47Z</time>
      </trkpt>
      <trkpt lat="45.77899" lon="4.15109">
        <ele>406.7</ele>
        <time>2022-05-09T13:07:52Z</time>
      </trkpt>
      <trkpt lat="45.77902" lon="4.15109">
        <ele>407.3</ele>
        <time>2022-05-09T13:07:57Z</time>
      </trkpt>
      <trkpt lat="45.77905" lon="4.15109">
        <ele>407.2</ele>
        <time>2022-05-09T13:08:03Z</time>
      </trkpt>
      <trkpt lat="45.77909" lon="4.15109">
        <ele>406.2</ele>
        <time>2022-05-09T13:08:08Z</time>
      </trkpt>
      <trkpt lat="45.77915" lon="4.15108">
        <ele>406.2</ele>
        <time>2022-05-09T13:08:13Z</time>
      </trkpt>
      <trkpt lat="45.77919" lon="4.15109">
        <ele>405.9</ele>
        <time>2022-05-09T13:08:19Z</time>
      </trkpt>
      <trkpt lat="45.77921" lon="4.15112">
        <ele>406.2</ele>
        <time>2022-05-09T13:08:24Z</time>
      </trkpt>
      <trkpt lat="45.77919" lon="4.15112">
        <ele>406</ele>
        <time>2022-05-09T13:08:29Z</time>
      </trkpt>
      <trkpt lat="45.77918" lon="4.15112">
        <ele>406.1</ele>
        <time>2022-05-09T13:08:35Z</time>
      </trkpt>
      <trkpt lat="45.77919" lon="4.15113">
        <ele>413.1</ele>
        <time>2022-05-09T13:08:40Z</time>
      </trkpt>
      <trkpt lat="45.77924" lon="4.15116">
        <ele>415.8</ele>
        <time>2022-05-09T13:08:45Z</time>
      </trkpt>
      <trkpt lat="45.77928" lon="4.15119">
        <ele>418.9</ele>
        <time>2022-05-09T13:08:51Z</time>
      </trkpt>
      <trkpt lat="45.77931" lon="4.15119">
        <ele>419.7</ele>
        <time>2022-05-09T13:08:57Z</time>
      </trkpt>
      <trkpt lat="45.77933" lon="4.15118">
        <ele>422.6</ele>
        <time>2022-05-09T13:09:03Z</time>
      </trkpt>
      <trkpt lat="45.77933" lon="4.15118">
        <ele>424.8</ele>
        <time>2022-05-09T13:09:09Z</time>
      </trkpt>
      <trkpt lat="45.77933" lon="4.15118">
        <ele>421.1</ele>
        <time>2022-05-09T13:09:15Z</time>
      </trkpt>
      <trkpt lat="45.77933" lon="4.15118">
        <ele>419.7</ele>
        <time>2022-05-09T13:09:21Z</time>
      </trkpt>
      <trkpt lat="45.77933" lon="4.15118">
        <ele>417.3</ele>
        <time>2022-05-09T13:09:27Z</time>
      </trkpt>
      <trkpt lat="45.77933" lon="4.15118">
        <ele>417.2</ele>
        <time>2022-05-09T13:09:32Z</time>
      </trkpt>
      <trkpt lat="45.77933" lon="4.15118">
        <ele>418.4</ele>
        <time>2022-05-09T13:09:38Z</time>
      </trkpt>
      <trkpt lat="45.77933" lon="4.15118">
        <ele>419.2</ele>
        <time>2022-05-09T13:09:43Z</time>
      </trkpt>
      <trkpt lat="45.77933" lon="4.15118">
        <ele>426.8</ele>
        <time>2022-05-09T13:09:49Z</time>
      </trkpt>
      <trkpt lat="45.77933" lon="4.15118">
        <ele>426.7</ele>
        <time>2022-05-09T13:10:01Z</time>
      </trkpt>
      <trkpt lat="45.77933" lon="4.15118">
        <ele>424.3</ele>
        <time>2022-05-09T13:10:12Z</time>
      </trkpt>
      <trkpt lat="45.77931" lon="4.15119">
        <ele>424.7</ele>
        <time>2022-05-09T13:10:18Z</time>
      </trkpt>
      <trkpt lat="45.77931" lon="4.15119">
        <ele>426.5</ele>
        <time>2022-05-09T13:10:24Z</time>
      </trkpt>
      <trkpt lat="45.77932" lon="4.15119">
        <ele>426.7</ele>
        <time>2022-05-09T13:10:29Z</time>
      </trkpt>
      <trkpt lat="45.77933" lon="4.15116">
        <ele>425.2</ele>
        <time>2022-05-09T13:10:34Z</time>
      </trkpt>
      <trkpt lat="45.77933" lon="4.15114">
        <ele>422.2</ele>
        <time>2022-05-09T13:10:39Z</time>
      </trkpt>
      <trkpt lat="45.77934" lon="4.15115">
        <ele>426.3</ele>
        <time>2022-05-09T13:10:45Z</time>
      </trkpt>
      <trkpt lat="45.77935" lon="4.15114">
        <ele>436.1</ele>
        <time>2022-05-09T13:10:50Z</time>
      </trkpt>
      <trkpt lat="45.77934" lon="4.15114">
        <ele>432.8</ele>
        <time>2022-05-09T13:10:56Z</time>
      </trkpt>
      <trkpt lat="45.77932" lon="4.15113">
        <ele>431.3</ele>
        <time>2022-05-09T13:11:01Z</time>
      </trkpt>
      <trkpt lat="45.77932" lon="4.15116">
        <ele>434.9</ele>
        <time>2022-05-09T13:11:06Z</time>
      </trkpt>
      <trkpt lat="45.77932" lon="4.15119">
        <ele>440.8</ele>
        <time>2022-05-09T13:11:12Z</time>
      </trkpt>
      <trkpt lat="45.77932" lon="4.15118">
        <ele>438</ele>
        <time>2022-05-09T13:11:18Z</time>
      </trkpt>
      <trkpt lat="45.77932" lon="4.15118">
        <ele>438.4</ele>
        <time>2022-05-09T13:11:23Z</time>
      </trkpt>
      <trkpt lat="45.77932" lon="4.15117">
        <ele>444.4</ele>
        <time>2022-05-09T13:11:29Z</time>
      </trkpt>
      <trkpt lat="45.77933" lon="4.15115">
        <ele>437.4</ele>
        <time>2022-05-09T13:11:34Z</time>
      </trkpt>
      <trkpt lat="45.77933" lon="4.15115">
        <ele>436</ele>
        <time>2022-05-09T13:11:39Z</time>
      </trkpt>
      <trkpt lat="45.77933" lon="4.15115">
        <ele>444.8</ele>
        <time>2022-05-09T13:11:45Z</time>
      </trkpt>
      <trkpt lat="45.77933" lon="4.15115">
        <ele>444.8</ele>
        <time>2022-05-09T13:11:51Z</time>
      </trkpt>
      <trkpt lat="45.77935" lon="4.15113">
        <ele>440.8</ele>
        <time>2022-05-09T13:11:56Z</time>
      </trkpt>
      <trkpt lat="45.77936" lon="4.15114">
        <ele>441</ele>
        <time>2022-05-09T13:12:01Z</time>
      </trkpt>
      <trkpt lat="45.77939" lon="4.15119">
        <ele>434.6</ele>
        <time>2022-05-09T13:12:07Z</time>
      </trkpt>
      <trkpt lat="45.77942" lon="4.15127">
        <ele>442.4</ele>
        <time>2022-05-09T13:12:12Z</time>
      </trkpt>
      <trkpt lat="45.77944" lon="4.15136">
        <ele>441.2</ele>
        <time>2022-05-09T13:12:18Z</time>
      </trkpt>
      <trkpt lat="45.77945" lon="4.15137">
        <ele>438.9</ele>
        <time>2022-05-09T13:12:24Z</time>
      </trkpt>
      <trkpt lat="45.77945" lon="4.15137">
        <ele>445.1</ele>
        <time>2022-05-09T13:12:30Z</time>
      </trkpt>
      <trkpt lat="45.77944" lon="4.15136">
        <ele>445.1</ele>
        <time>2022-05-09T13:12:35Z</time>
      </trkpt>
      <trkpt lat="45.77944" lon="4.15137">
        <ele>444.6</ele>
        <time>2022-05-09T13:12:41Z</time>
      </trkpt>
      <trkpt lat="45.77944" lon="4.15137">
        <ele>443.8</ele>
        <time>2022-05-09T13:12:47Z</time>
      </trkpt>
      <trkpt lat="45.77944" lon="4.15137">
        <ele>443.7</ele>
        <time>2022-05-09T13:12:53Z</time>
      </trkpt>
      <trkpt lat="45.77944" lon="4.15137">
        <ele>443.8</ele>
        <time>2022-05-09T13:12:59Z</time>
      </trkpt>
      <trkpt lat="45.77945" lon="4.15138">
        <ele>442.7</ele>
        <time>2022-05-09T13:13:04Z</time>
      </trkpt>
      <trkpt lat="45.77949" lon="4.15143">
        <ele>435</ele>
        <time>2022-05-09T13:13:10Z</time>
      </trkpt>
      <trkpt lat="45.77952" lon="4.15146">
        <ele>434.6</ele>
        <time>2022-05-09T13:13:16Z</time>
      </trkpt>
      <trkpt lat="45.77956" lon="4.15151">
        <ele>434.4</ele>
        <time>2022-05-09T13:13:21Z</time>
      </trkpt>
      <trkpt lat="45.77959" lon="4.15158">
        <ele>433.3</ele>
        <time>2022-05-09T13:13:26Z</time>
      </trkpt>
      <trkpt lat="45.77963" lon="4.15163">
        <ele>429</ele>
        <time>2022-05-09T13:13:31Z</time>
      </trkpt>
      <trkpt lat="45.77963" lon="4.15163">
        <ele>436.8</ele>
        <time>2022-05-09T13:13:37Z</time>
      </trkpt>
      <trkpt lat="45.77964" lon="4.15163">
        <ele>437.9</ele>
        <time>2022-05-09T13:13:42Z</time>
      </trkpt>
      <trkpt lat="45.77965" lon="4.15163">
        <ele>438</ele>
        <time>2022-05-09T13:13:48Z</time>
      </trkpt>
      <trkpt lat="45.77964" lon="4.15162">
        <ele>438.2</ele>
        <time>2022-05-09T13:13:54Z</time>
      </trkpt>
      <trkpt lat="45.77966" lon="4.15164">
        <ele>430.1</ele>
        <time>2022-05-09T13:13:59Z</time>
      </trkpt>
      <trkpt lat="45.77969" lon="4.15168">
        <ele>434.4</ele>
        <time>2022-05-09T13:14:04Z</time>
      </trkpt>
      <trkpt lat="45.77972" lon="4.15173">
        <ele>433.7</ele>
        <time>2022-05-09T13:14:09Z</time>
      </trkpt>
      <trkpt lat="45.77977" lon="4.15179">
        <ele>432.6</ele>
        <time>2022-05-09T13:14:15Z</time>
      </trkpt>
      <trkpt lat="45.7798" lon="4.15186">
        <ele>435.2</ele>
        <time>2022-05-09T13:14:20Z</time>
      </trkpt>
      <trkpt lat="45.77983" lon="4.15192">
        <ele>425.8</ele>
        <time>2022-05-09T13:14:25Z</time>
      </trkpt>
      <trkpt lat="45.77984" lon="4.15193">
        <ele>431.5</ele>
        <time>2022-05-09T13:14:32Z</time>
      </trkpt>
      <trkpt lat="45.77985" lon="4.15194">
        <ele>427.4</ele>
        <time>2022-05-09T13:14:38Z</time>
      </trkpt>
      <trkpt lat="45.77986" lon="4.15196">
        <ele>428.9</ele>
        <time>2022-05-09T13:14:44Z</time>
      </trkpt>
      <trkpt lat="45.77989" lon="4.15201">
        <ele>431.9</ele>
        <time>2022-05-09T13:14:49Z</time>
      </trkpt>
      <trkpt lat="45.77993" lon="4.1521">
        <ele>440.5</ele>
        <time>2022-05-09T13:14:54Z</time>
      </trkpt>
      <trkpt lat="45.77997" lon="4.15218">
        <ele>437.2</ele>
        <time>2022-05-09T13:14:59Z</time>
      </trkpt>
      <trkpt lat="45.78002" lon="4.15225">
        <ele>439.9</ele>
        <time>2022-05-09T13:15:04Z</time>
      </trkpt>
      <trkpt lat="45.78006" lon="4.15231">
        <ele>440.3</ele>
        <time>2022-05-09T13:15:10Z</time>
      </trkpt>
      <trkpt lat="45.78011" lon="4.15236">
        <ele>440.8</ele>
        <time>2022-05-09T13:15:15Z</time>
      </trkpt>
      <trkpt lat="45.78017" lon="4.15241">
        <ele>435.9</ele>
        <time>2022-05-09T13:15:21Z</time>
      </trkpt>
      <trkpt lat="45.78022" lon="4.15247">
        <ele>431.8</ele>
        <time>2022-05-09T13:15:26Z</time>
      </trkpt>
      <trkpt lat="45.78027" lon="4.15255">
        <ele>431.7</ele>
        <time>2022-05-09T13:15:31Z</time>
      </trkpt>
      <trkpt lat="45.78032" lon="4.15261">
        <ele>432.5</ele>
        <time>2022-05-09T13:15:37Z</time>
      </trkpt>
      <trkpt lat="45.78038" lon="4.15266">
        <ele>427</ele>
        <time>2022-05-09T13:15:42Z</time>
      </trkpt>
      <trkpt lat="45.78045" lon="4.1527">
        <ele>436.6</ele>
        <time>2022-05-09T13:15:48Z</time>
      </trkpt>
      <trkpt lat="45.7805" lon="4.15276">
        <ele>424.7</ele>
        <time>2022-05-09T13:15:53Z</time>
      </trkpt>
      <trkpt lat="45.78055" lon="4.15283">
        <ele>424.5</ele>
        <time>2022-05-09T13:15:58Z</time>
      </trkpt>
      <trkpt lat="45.78061" lon="4.15288">
        <ele>433.3</ele>
        <time>2022-05-09T13:16:03Z</time>
      </trkpt>
      <trkpt lat="45.78064" lon="4.15295">
        <ele>432.2</ele>
        <time>2022-05-09T13:16:09Z</time>
      </trkpt>
      <trkpt lat="45.78068" lon="4.15302">
        <ele>433.1</ele>
        <time>2022-05-09T13:16:14Z</time>
      </trkpt>
      <trkpt lat="45.78071" lon="4.15308">
        <ele>426.4</ele>
        <time>2022-05-09T13:16:19Z</time>
      </trkpt>
      <trkpt lat="45.78075" lon="4.15314">
        <ele>433</ele>
        <time>2022-05-09T13:16:24Z</time>
      </trkpt>
      <trkpt lat="45.7808" lon="4.15319">
        <ele>436.8</ele>
        <time>2022-05-09T13:16:29Z</time>
      </trkpt>
      <trkpt lat="45.78084" lon="4.15323">
        <ele>435.9</ele>
        <time>2022-05-09T13:16:34Z</time>
      </trkpt>
      <trkpt lat="45.7809" lon="4.15327">
        <ele>433.7</ele>
        <time>2022-05-09T13:16:40Z</time>
      </trkpt>
      <trkpt lat="45.78095" lon="4.15331">
        <ele>428.8</ele>
        <time>2022-05-09T13:16:45Z</time>
      </trkpt>
      <trkpt lat="45.78099" lon="4.15336">
        <ele>430</ele>
        <time>2022-05-09T13:16:50Z</time>
      </trkpt>
      <trkpt lat="45.78102" lon="4.15342">
        <ele>423.1</ele>
        <time>2022-05-09T13:16:55Z</time>
      </trkpt>
      <trkpt lat="45.78104" lon="4.15347">
        <ele>423.8</ele>
        <time>2022-05-09T13:17:00Z</time>
      </trkpt>
      <trkpt lat="45.78102" lon="4.15349">
        <ele>425.5</ele>
        <time>2022-05-09T13:17:06Z</time>
      </trkpt>
      <trkpt lat="45.78104" lon="4.1535">
        <ele>433.4</ele>
        <time>2022-05-09T13:17:11Z</time>
      </trkpt>
      <trkpt lat="45.78111" lon="4.15356">
        <ele>428.2</ele>
        <time>2022-05-09T13:17:17Z</time>
      </trkpt>
      <trkpt lat="45.78117" lon="4.15361">
        <ele>426.3</ele>
        <time>2022-05-09T13:17:22Z</time>
      </trkpt>
      <trkpt lat="45.78123" lon="4.15368">
        <ele>423.3</ele>
        <time>2022-05-09T13:17:28Z</time>
      </trkpt>
      <trkpt lat="45.7813" lon="4.15374">
        <ele>423.4</ele>
        <time>2022-05-09T13:17:33Z</time>
      </trkpt>
      <trkpt lat="45.78136" lon="4.15379">
        <ele>421.5</ele>
        <time>2022-05-09T13:17:38Z</time>
      </trkpt>
      <trkpt lat="45.78142" lon="4.15386">
        <ele>420.9</ele>
        <time>2022-05-09T13:17:43Z</time>
      </trkpt>
      <trkpt lat="45.78146" lon="4.15394">
        <ele>420.6</ele>
        <time>2022-05-09T13:17:49Z</time>
      </trkpt>
      <trkpt lat="45.78149" lon="4.15402">
        <ele>420.1</ele>
        <time>2022-05-09T13:17:54Z</time>
      </trkpt>
      <trkpt lat="45.78153" lon="4.15408">
        <ele>427.4</ele>
        <time>2022-05-09T13:18:00Z</time>
      </trkpt>
      <trkpt lat="45.78155" lon="4.15413">
        <ele>421.8</ele>
        <time>2022-05-09T13:18:05Z</time>
      </trkpt>
      <trkpt lat="45.78158" lon="4.15419">
        <ele>443.5</ele>
        <time>2022-05-09T13:18:11Z</time>
      </trkpt>
      <trkpt lat="45.78162" lon="4.15424">
        <ele>445</ele>
        <time>2022-05-09T13:18:16Z</time>
      </trkpt>
      <trkpt lat="45.78166" lon="4.15429">
        <ele>445.9</ele>
        <time>2022-05-09T13:18:21Z</time>
      </trkpt>
      <trkpt lat="45.7817" lon="4.15434">
        <ele>445.6</ele>
        <time>2022-05-09T13:18:26Z</time>
      </trkpt>
      <trkpt lat="45.78175" lon="4.1544">
        <ele>444.8</ele>
        <time>2022-05-09T13:18:32Z</time>
      </trkpt>
      <trkpt lat="45.7818" lon="4.15447">
        <ele>443.4</ele>
        <time>2022-05-09T13:18:37Z</time>
      </trkpt>
      <trkpt lat="45.78184" lon="4.15453">
        <ele>443.9</ele>
        <time>2022-05-09T13:18:42Z</time>
      </trkpt>
      <trkpt lat="45.7819" lon="4.15458">
        <ele>443.8</ele>
        <time>2022-05-09T13:18:48Z</time>
      </trkpt>
      <trkpt lat="45.78196" lon="4.1546">
        <ele>425.5</ele>
        <time>2022-05-09T13:18:53Z</time>
      </trkpt>
      <trkpt lat="45.78203" lon="4.15461">
        <ele>430.6</ele>
        <time>2022-05-09T13:18:58Z</time>
      </trkpt>
      <trkpt lat="45.78211" lon="4.1546">
        <ele>421.7</ele>
        <time>2022-05-09T13:19:03Z</time>
      </trkpt>
      <trkpt lat="45.78218" lon="4.15461">
        <ele>433.1</ele>
        <time>2022-05-09T13:19:08Z</time>
      </trkpt>
      <trkpt lat="45.78225" lon="4.15463">
        <ele>429.8</ele>
        <time>2022-05-09T13:19:14Z</time>
      </trkpt>
      <trkpt lat="45.78231" lon="4.15465">
        <ele>428.5</ele>
        <time>2022-05-09T13:19:19Z</time>
      </trkpt>
      <trkpt lat="45.78237" lon="4.15465">
        <ele>428.1</ele>
        <time>2022-05-09T13:19:24Z</time>
      </trkpt>
      <trkpt lat="45.78243" lon="4.15463">
        <ele>431.8</ele>
        <time>2022-05-09T13:19:29Z</time>
      </trkpt>
      <trkpt lat="45.78249" lon="4.15462">
        <ele>428.4</ele>
        <time>2022-05-09T13:19:34Z</time>
      </trkpt>
      <trkpt lat="45.78254" lon="4.15464">
        <ele>421.1</ele>
        <time>2022-05-09T13:19:39Z</time>
      </trkpt>
      <trkpt lat="45.78261" lon="4.15466">
        <ele>418.4</ele>
        <time>2022-05-09T13:19:45Z</time>
      </trkpt>
      <trkpt lat="45.78267" lon="4.15471">
        <ele>415.7</ele>
        <time>2022-05-09T13:19:50Z</time>
      </trkpt>
      <trkpt lat="45.78273" lon="4.15475">
        <ele>427.6</ele>
        <time>2022-05-09T13:19:55Z</time>
      </trkpt>
      <trkpt lat="45.78279" lon="4.15476">
        <ele>425.2</ele>
        <time>2022-05-09T13:20:01Z</time>
      </trkpt>
      <trkpt lat="45.78284" lon="4.15478">
        <ele>415.5</ele>
        <time>2022-05-09T13:20:06Z</time>
      </trkpt>
      <trkpt lat="45.78289" lon="4.15482">
        <ele>427.8</ele>
        <time>2022-05-09T13:20:11Z</time>
      </trkpt>
      <trkpt lat="45.78292" lon="4.15486">
        <ele>428.9</ele>
        <time>2022-05-09T13:20:16Z</time>
      </trkpt>
      <trkpt lat="45.78294" lon="4.1549">
        <ele>425</ele>
        <time>2022-05-09T13:20:22Z</time>
      </trkpt>
      <trkpt lat="45.78299" lon="4.15494">
        <ele>416.6</ele>
        <time>2022-05-09T13:20:27Z</time>
      </trkpt>
      <trkpt lat="45.78304" lon="4.15495">
        <ele>418.1</ele>
        <time>2022-05-09T13:20:32Z</time>
      </trkpt>
      <trkpt lat="45.78309" lon="4.15496">
        <ele>418.6</ele>
        <time>2022-05-09T13:20:37Z</time>
      </trkpt>
      <trkpt lat="45.78313" lon="4.15497">
        <ele>417.8</ele>
        <time>2022-05-09T13:20:42Z</time>
      </trkpt>
      <trkpt lat="45.78319" lon="4.15498">
        <ele>415.9</ele>
        <time>2022-05-09T13:20:48Z</time>
      </trkpt>
      <trkpt lat="45.78324" lon="4.15502">
        <ele>416.7</ele>
        <time>2022-05-09T13:20:53Z</time>
      </trkpt>
      <trkpt lat="45.78328" lon="4.15505">
        <ele>420.6</ele>
        <time>2022-05-09T13:20:58Z</time>
      </trkpt>
      <trkpt lat="45.78332" lon="4.15508">
        <ele>413.9</ele>
        <time>2022-05-09T13:21:03Z</time>
      </trkpt>
      <trkpt lat="45.78332" lon="4.15508">
        <ele>414.9</ele>
        <time>2022-05-09T13:21:08Z</time>
      </trkpt>
      <trkpt lat="45.78332" lon="4.15509">
        <ele>418.6</ele>
        <time>2022-05-09T13:21:14Z</time>
      </trkpt>
      <trkpt lat="45.78333" lon="4.15513">
        <ele>428.5</ele>
        <time>2022-05-09T13:21:19Z</time>
      </trkpt>
      <trkpt lat="45.78332" lon="4.15514">
        <ele>423.3</ele>
        <time>2022-05-09T13:21:24Z</time>
      </trkpt>
      <trkpt lat="45.78331" lon="4.15514">
        <ele>423</ele>
        <time>2022-05-09T13:21:30Z</time>
      </trkpt>
      <trkpt lat="45.78331" lon="4.15514">
        <ele>418.4</ele>
        <time>2022-05-09T13:21:35Z</time>
      </trkpt>
      <trkpt lat="45.78332" lon="4.15513">
        <ele>425.2</ele>
        <time>2022-05-09T13:21:41Z</time>
      </trkpt>
      <trkpt lat="45.78332" lon="4.15513">
        <ele>418.3</ele>
        <time>2022-05-09T13:21:46Z</time>
      </trkpt>
      <trkpt lat="45.78332" lon="4.15515">
        <ele>423</ele>
        <time>2022-05-09T13:21:52Z</time>
      </trkpt>
      <trkpt lat="45.78332" lon="4.15515">
        <ele>425.3</ele>
        <time>2022-05-09T13:21:57Z</time>
      </trkpt>
      <trkpt lat="45.78332" lon="4.15514">
        <ele>421</ele>
        <time>2022-05-09T13:22:08Z</time>
      </trkpt>
      <trkpt lat="45.78331" lon="4.15513">
        <ele>420.9</ele>
        <time>2022-05-09T13:22:13Z</time>
      </trkpt>
      <trkpt lat="45.7833" lon="4.15513">
        <ele>421.1</ele>
        <time>2022-05-09T13:22:18Z</time>
      </trkpt>
      <trkpt lat="45.78331" lon="4.1552">
        <ele>418.1</ele>
        <time>2022-05-09T13:22:24Z</time>
      </trkpt>
      <trkpt lat="45.78333" lon="4.15532">
        <ele>415.4</ele>
        <time>2022-05-09T13:22:29Z</time>
      </trkpt>
      <trkpt lat="45.78333" lon="4.15543">
        <ele>409.1</ele>
        <time>2022-05-09T13:22:35Z</time>
      </trkpt>
      <trkpt lat="45.7833" lon="4.15544">
        <ele>409.6</ele>
        <time>2022-05-09T13:22:40Z</time>
      </trkpt>
      <trkpt lat="45.78328" lon="4.15548">
        <ele>409.7</ele>
        <time>2022-05-09T13:22:45Z</time>
      </trkpt>
      <trkpt lat="45.78327" lon="4.15554">
        <ele>407.5</ele>
        <time>2022-05-09T13:22:50Z</time>
      </trkpt>
      <trkpt lat="45.78325" lon="4.15561">
        <ele>406.1</ele>
        <time>2022-05-09T13:22:55Z</time>
      </trkpt>
      <trkpt lat="45.78325" lon="4.1557">
        <ele>406.4</ele>
        <time>2022-05-09T13:23:01Z</time>
      </trkpt>
      <trkpt lat="45.78325" lon="4.15578">
        <ele>410.3</ele>
        <time>2022-05-09T13:23:06Z</time>
      </trkpt>
      <trkpt lat="45.78325" lon="4.15589">
        <ele>406.5</ele>
        <time>2022-05-09T13:23:11Z</time>
      </trkpt>
      <trkpt lat="45.78325" lon="4.156">
        <ele>406.8</ele>
        <time>2022-05-09T13:23:17Z</time>
      </trkpt>
      <trkpt lat="45.78325" lon="4.15608">
        <ele>411.4</ele>
        <time>2022-05-09T13:23:22Z</time>
      </trkpt>
      <trkpt lat="45.78322" lon="4.15614">
        <ele>410.9</ele>
        <time>2022-05-09T13:23:27Z</time>
      </trkpt>
      <trkpt lat="45.78309" lon="4.15615">
        <ele>416.9</ele>
        <time>2022-05-09T13:23:32Z</time>
      </trkpt>
      <trkpt lat="45.78303" lon="4.15622">
        <ele>417</ele>
        <time>2022-05-09T13:23:37Z</time>
      </trkpt>
      <trkpt lat="45.78302" lon="4.1563">
        <ele>409.5</ele>
        <time>2022-05-09T13:23:43Z</time>
      </trkpt>
      <trkpt lat="45.78303" lon="4.15636">
        <ele>409.2</ele>
        <time>2022-05-09T13:23:48Z</time>
      </trkpt>
      <trkpt lat="45.78305" lon="4.15644">
        <ele>407.9</ele>
        <time>2022-05-09T13:23:54Z</time>
      </trkpt>
      <trkpt lat="45.78305" lon="4.15651">
        <ele>407.4</ele>
        <time>2022-05-09T13:23:59Z</time>
      </trkpt>
      <trkpt lat="45.78306" lon="4.15665">
        <ele>409.6</ele>
        <time>2022-05-09T13:24:05Z</time>
      </trkpt>
      <trkpt lat="45.78298" lon="4.15678">
        <ele>410.8</ele>
        <time>2022-05-09T13:24:11Z</time>
      </trkpt>
      <trkpt lat="45.78291" lon="4.15688">
        <ele>408.3</ele>
        <time>2022-05-09T13:24:17Z</time>
      </trkpt>
      <trkpt lat="45.78286" lon="4.15693">
        <ele>417.8</ele>
        <time>2022-05-09T13:24:22Z</time>
      </trkpt>
      <trkpt lat="45.78282" lon="4.15699">
        <ele>418.4</ele>
        <time>2022-05-09T13:24:27Z</time>
      </trkpt>
      <trkpt lat="45.7828" lon="4.15705">
        <ele>410.7</ele>
        <time>2022-05-09T13:24:33Z</time>
      </trkpt>
      <trkpt lat="45.78278" lon="4.15712">
        <ele>416.2</ele>
        <time>2022-05-09T13:24:38Z</time>
      </trkpt>
      <trkpt lat="45.78275" lon="4.15717">
        <ele>417</ele>
        <time>2022-05-09T13:24:43Z</time>
      </trkpt>
      <trkpt lat="45.78271" lon="4.1572">
        <ele>421.5</ele>
        <time>2022-05-09T13:24:48Z</time>
      </trkpt>
      <trkpt lat="45.78268" lon="4.15724">
        <ele>416.9</ele>
        <time>2022-05-09T13:24:54Z</time>
      </trkpt>
      <trkpt lat="45.78265" lon="4.15728">
        <ele>416.4</ele>
        <time>2022-05-09T13:24:59Z</time>
      </trkpt>
      <trkpt lat="45.78261" lon="4.15736">
        <ele>422</ele>
        <time>2022-05-09T13:25:05Z</time>
      </trkpt>
      <trkpt lat="45.78258" lon="4.15743">
        <ele>426.3</ele>
        <time>2022-05-09T13:25:10Z</time>
      </trkpt>
      <trkpt lat="45.78254" lon="4.15749">
        <ele>425.9</ele>
        <time>2022-05-09T13:25:16Z</time>
      </trkpt>
      <trkpt lat="45.78253" lon="4.15754">
        <ele>422.2</ele>
        <time>2022-05-09T13:25:21Z</time>
      </trkpt>
      <trkpt lat="45.78253" lon="4.15762">
        <ele>416.9</ele>
        <time>2022-05-09T13:25:26Z</time>
      </trkpt>
      <trkpt lat="45.78254" lon="4.1577">
        <ele>410.5</ele>
        <time>2022-05-09T13:25:31Z</time>
      </trkpt>
      <trkpt lat="45.78252" lon="4.15773">
        <ele>415.6</ele>
        <time>2022-05-09T13:25:36Z</time>
      </trkpt>
      <trkpt lat="45.78248" lon="4.15782">
        <ele>411.2</ele>
        <time>2022-05-09T13:25:42Z</time>
      </trkpt>
      <trkpt lat="45.78245" lon="4.15792">
        <ele>414.1</ele>
        <time>2022-05-09T13:25:47Z</time>
      </trkpt>
      <trkpt lat="45.78241" lon="4.15798">
        <ele>411.8</ele>
        <time>2022-05-09T13:25:52Z</time>
      </trkpt>
      <trkpt lat="45.78236" lon="4.15799">
        <ele>406.3</ele>
        <time>2022-05-09T13:25:58Z</time>
      </trkpt>
      <trkpt lat="45.78233" lon="4.15803">
        <ele>409</ele>
        <time>2022-05-09T13:26:03Z</time>
      </trkpt>
      <trkpt lat="45.7823" lon="4.15808">
        <ele>406.7</ele>
        <time>2022-05-09T13:26:08Z</time>
      </trkpt>
      <trkpt lat="45.78233" lon="4.1581">
        <ele>411</ele>
        <time>2022-05-09T13:26:14Z</time>
      </trkpt>
      <trkpt lat="45.78234" lon="4.15815">
        <ele>419.7</ele>
        <time>2022-05-09T13:26:19Z</time>
      </trkpt>
      <trkpt lat="45.78236" lon="4.15821">
        <ele>416.5</ele>
        <time>2022-05-09T13:26:24Z</time>
      </trkpt>
      <trkpt lat="45.78232" lon="4.15832">
        <ele>415.3</ele>
        <time>2022-05-09T13:26:30Z</time>
      </trkpt>
      <trkpt lat="45.78224" lon="4.15839">
        <ele>412.7</ele>
        <time>2022-05-09T13:26:35Z</time>
      </trkpt>
      <trkpt lat="45.78219" lon="4.1584">
        <ele>411.2</ele>
        <time>2022-05-09T13:26:41Z</time>
      </trkpt>
      <trkpt lat="45.78215" lon="4.15843">
        <ele>410.8</ele>
        <time>2022-05-09T13:26:46Z</time>
      </trkpt>
      <trkpt lat="45.78213" lon="4.15854">
        <ele>417.2</ele>
        <time>2022-05-09T13:26:51Z</time>
      </trkpt>
      <trkpt lat="45.78214" lon="4.15865">
        <ele>415.3</ele>
        <time>2022-05-09T13:26:57Z</time>
      </trkpt>
      <trkpt lat="45.78212" lon="4.15873">
        <ele>424.1</ele>
        <time>2022-05-09T13:27:02Z</time>
      </trkpt>
      <trkpt lat="45.78211" lon="4.15881">
        <ele>424.6</ele>
        <time>2022-05-09T13:27:07Z</time>
      </trkpt>
      <trkpt lat="45.78209" lon="4.15889">
        <ele>424.5</ele>
        <time>2022-05-09T13:27:12Z</time>
      </trkpt>
      <trkpt lat="45.78206" lon="4.15896">
        <ele>423</ele>
        <time>2022-05-09T13:27:18Z</time>
      </trkpt>
      <trkpt lat="45.78202" lon="4.15904">
        <ele>425.4</ele>
        <time>2022-05-09T13:27:23Z</time>
      </trkpt>
      <trkpt lat="45.78197" lon="4.15911">
        <ele>425.1</ele>
        <time>2022-05-09T13:27:29Z</time>
      </trkpt>
      <trkpt lat="45.78194" lon="4.15917">
        <ele>425.2</ele>
        <time>2022-05-09T13:27:34Z</time>
      </trkpt>
      <trkpt lat="45.78191" lon="4.15923">
        <ele>418.9</ele>
        <time>2022-05-09T13:27:40Z</time>
      </trkpt>
      <trkpt lat="45.78189" lon="4.15931">
        <ele>423.3</ele>
        <time>2022-05-09T13:27:45Z</time>
      </trkpt>
      <trkpt lat="45.78187" lon="4.15938">
        <ele>427.6</ele>
        <time>2022-05-09T13:27:50Z</time>
      </trkpt>
      <trkpt lat="45.78185" lon="4.15945">
        <ele>428.5</ele>
        <time>2022-05-09T13:27:55Z</time>
      </trkpt>
      <trkpt lat="45.78183" lon="4.15952">
        <ele>429.9</ele>
        <time>2022-05-09T13:28:01Z</time>
      </trkpt>
      <trkpt lat="45.78182" lon="4.15961">
        <ele>430</ele>
        <time>2022-05-09T13:28:06Z</time>
      </trkpt>
      <trkpt lat="45.78181" lon="4.15968">
        <ele>428.5</ele>
        <time>2022-05-09T13:28:11Z</time>
      </trkpt>
      <trkpt lat="45.7818" lon="4.15976">
        <ele>429.4</ele>
        <time>2022-05-09T13:28:17Z</time>
      </trkpt>
      <trkpt lat="45.78179" lon="4.15985">
        <ele>428.4</ele>
        <time>2022-05-09T13:28:22Z</time>
      </trkpt>
      <trkpt lat="45.78177" lon="4.15992">
        <ele>422.9</ele>
        <time>2022-05-09T13:28:27Z</time>
      </trkpt>
      <trkpt lat="45.78172" lon="4.16001">
        <ele>430.3</ele>
        <time>2022-05-09T13:28:33Z</time>
      </trkpt>
      <trkpt lat="45.78168" lon="4.16008">
        <ele>428.9</ele>
        <time>2022-05-09T13:28:39Z</time>
      </trkpt>
      <trkpt lat="45.78166" lon="4.16015">
        <ele>430.2</ele>
        <time>2022-05-09T13:28:44Z</time>
      </trkpt>
      <trkpt lat="45.78164" lon="4.16022">
        <ele>425.4</ele>
        <time>2022-05-09T13:28:49Z</time>
      </trkpt>
      <trkpt lat="45.78164" lon="4.1603">
        <ele>429.9</ele>
        <time>2022-05-09T13:28:55Z</time>
      </trkpt>
      <trkpt lat="45.78163" lon="4.16037">
        <ele>429.3</ele>
        <time>2022-05-09T13:29:01Z</time>
      </trkpt>
      <trkpt lat="45.78161" lon="4.16045">
        <ele>430.7</ele>
        <time>2022-05-09T13:29:06Z</time>
      </trkpt>
      <trkpt lat="45.78159" lon="4.16052">
        <ele>432.2</ele>
        <time>2022-05-09T13:29:11Z</time>
      </trkpt>
      <trkpt lat="45.78156" lon="4.16059">
        <ele>431.1</ele>
        <time>2022-05-09T13:29:16Z</time>
      </trkpt>
      <trkpt lat="45.78153" lon="4.16065">
        <ele>429.7</ele>
        <time>2022-05-09T13:29:21Z</time>
      </trkpt>
      <trkpt lat="45.7815" lon="4.16073">
        <ele>423.9</ele>
        <time>2022-05-09T13:29:27Z</time>
      </trkpt>
      <trkpt lat="45.78147" lon="4.1608">
        <ele>421.7</ele>
        <time>2022-05-09T13:29:32Z</time>
      </trkpt>
      <trkpt lat="45.78146" lon="4.16087">
        <ele>425.2</ele>
        <time>2022-05-09T13:29:37Z</time>
      </trkpt>
      <trkpt lat="45.78145" lon="4.16096">
        <ele>424.4</ele>
        <time>2022-05-09T13:29:43Z</time>
      </trkpt>
      <trkpt lat="45.78143" lon="4.16104">
        <ele>422.7</ele>
        <time>2022-05-09T13:29:49Z</time>
      </trkpt>
      <trkpt lat="45.7814" lon="4.16111">
        <ele>422.7</ele>
        <time>2022-05-09T13:29:54Z</time>
      </trkpt>
      <trkpt lat="45.78138" lon="4.16118">
        <ele>419.9</ele>
        <time>2022-05-09T13:29:59Z</time>
      </trkpt>
      <trkpt lat="45.78135" lon="4.16126">
        <ele>424.5</ele>
        <time>2022-05-09T13:30:05Z</time>
      </trkpt>
      <trkpt lat="45.78134" lon="4.16132">
        <ele>423.9</ele>
        <time>2022-05-09T13:30:10Z</time>
      </trkpt>
      <trkpt lat="45.78133" lon="4.16139">
        <ele>420</ele>
        <time>2022-05-09T13:30:16Z</time>
      </trkpt>
      <trkpt lat="45.78131" lon="4.16147">
        <ele>419.8</ele>
        <time>2022-05-09T13:30:22Z</time>
      </trkpt>
      <trkpt lat="45.78127" lon="4.16152">
        <ele>421.2</ele>
        <time>2022-05-09T13:30:27Z</time>
      </trkpt>
      <trkpt lat="45.78125" lon="4.16157">
        <ele>419</ele>
        <time>2022-05-09T13:30:32Z</time>
      </trkpt>
      <trkpt lat="45.78122" lon="4.16164">
        <ele>412</ele>
        <time>2022-05-09T13:30:38Z</time>
      </trkpt>
      <trkpt lat="45.7812" lon="4.16172">
        <ele>410.5</ele>
        <time>2022-05-09T13:30:43Z</time>
      </trkpt>
      <trkpt lat="45.78117" lon="4.16182">
        <ele>413.4</ele>
        <time>2022-05-09T13:30:48Z</time>
      </trkpt>
      <trkpt lat="45.78114" lon="4.1619">
        <ele>411.1</ele>
        <time>2022-05-09T13:30:53Z</time>
      </trkpt>
      <trkpt lat="45.78112" lon="4.16199">
        <ele>409.8</ele>
        <time>2022-05-09T13:30:59Z</time>
      </trkpt>
      <trkpt lat="45.78112" lon="4.16209">
        <ele>408.1</ele>
        <time>2022-05-09T13:31:04Z</time>
      </trkpt>
      <trkpt lat="45.78112" lon="4.16218">
        <ele>405.8</ele>
        <time>2022-05-09T13:31:10Z</time>
      </trkpt>
      <trkpt lat="45.78113" lon="4.16225">
        <ele>407.6</ele>
        <time>2022-05-09T13:31:15Z</time>
      </trkpt>
      <trkpt lat="45.78114" lon="4.16228">
        <ele>409.8</ele>
        <time>2022-05-09T13:31:20Z</time>
      </trkpt>
      <trkpt lat="45.78115" lon="4.1622">
        <ele>413.4</ele>
        <time>2022-05-09T13:31:26Z</time>
      </trkpt>
      <trkpt lat="45.78116" lon="4.16218">
        <ele>416.4</ele>
        <time>2022-05-09T13:31:31Z</time>
      </trkpt>
      <trkpt lat="45.78116" lon="4.16217">
        <ele>420.2</ele>
        <time>2022-05-09T13:31:36Z</time>
      </trkpt>
      <trkpt lat="45.78116" lon="4.16218">
        <ele>418.1</ele>
        <time>2022-05-09T13:31:42Z</time>
      </trkpt>
      <trkpt lat="45.78115" lon="4.16219">
        <ele>423.3</ele>
        <time>2022-05-09T13:31:47Z</time>
      </trkpt>
      <trkpt lat="45.78114" lon="4.16219">
        <ele>418.1</ele>
        <time>2022-05-09T13:31:53Z</time>
      </trkpt>
      <trkpt lat="45.78112" lon="4.16221">
        <ele>417.1</ele>
        <time>2022-05-09T13:31:58Z</time>
      </trkpt>
      <trkpt lat="45.7811" lon="4.1622">
        <ele>419.2</ele>
        <time>2022-05-09T13:32:04Z</time>
      </trkpt>
      <trkpt lat="45.78109" lon="4.1622">
        <ele>421</ele>
        <time>2022-05-09T13:32:09Z</time>
      </trkpt>
      <trkpt lat="45.78109" lon="4.1622">
        <ele>419.2</ele>
        <time>2022-05-09T13:32:14Z</time>
      </trkpt>
      <trkpt lat="45.78111" lon="4.16218">
        <ele>419.6</ele>
        <time>2022-05-09T13:32:20Z</time>
      </trkpt>
      <trkpt lat="45.78111" lon="4.16218">
        <ele>425.5</ele>
        <time>2022-05-09T13:32:26Z</time>
      </trkpt>
      <trkpt lat="45.78109" lon="4.16223">
        <ele>421.2</ele>
        <time>2022-05-09T13:32:31Z</time>
      </trkpt>
      <trkpt lat="45.78106" lon="4.16227">
        <ele>419.6</ele>
        <time>2022-05-09T13:32:37Z</time>
      </trkpt>
      <trkpt lat="45.78106" lon="4.16226">
        <ele>419.6</ele>
        <time>2022-05-09T13:32:42Z</time>
      </trkpt>
      <trkpt lat="45.78104" lon="4.16231">
        <ele>425.3</ele>
        <time>2022-05-09T13:32:48Z</time>
      </trkpt>
      <trkpt lat="45.78101" lon="4.16236">
        <ele>418.5</ele>
        <time>2022-05-09T13:32:53Z</time>
      </trkpt>
      <trkpt lat="45.78097" lon="4.16241">
        <ele>412.9</ele>
        <time>2022-05-09T13:32:59Z</time>
      </trkpt>
      <trkpt lat="45.78096" lon="4.16242">
        <ele>409.9</ele>
        <time>2022-05-09T13:33:04Z</time>
      </trkpt>
      <trkpt lat="45.78098" lon="4.16243">
        <ele>408.7</ele>
        <time>2022-05-09T13:33:09Z</time>
      </trkpt>
      <trkpt lat="45.78099" lon="4.16247">
        <ele>408.4</ele>
        <time>2022-05-09T13:33:15Z</time>
      </trkpt>
      <trkpt lat="45.78098" lon="4.16254">
        <ele>407.7</ele>
        <time>2022-05-09T13:33:21Z</time>
      </trkpt>
      <trkpt lat="45.78096" lon="4.16261">
        <ele>407</ele>
        <time>2022-05-09T13:33:26Z</time>
      </trkpt>
      <trkpt lat="45.78092" lon="4.16267">
        <ele>406.8</ele>
        <time>2022-05-09T13:33:32Z</time>
      </trkpt>
      <trkpt lat="45.78088" lon="4.16272">
        <ele>406.4</ele>
        <time>2022-05-09T13:33:37Z</time>
      </trkpt>
      <trkpt lat="45.78082" lon="4.16277">
        <ele>406.9</ele>
        <time>2022-05-09T13:33:42Z</time>
      </trkpt>
      <trkpt lat="45.78074" lon="4.16281">
        <ele>406.7</ele>
        <time>2022-05-09T13:33:48Z</time>
      </trkpt>
      <trkpt lat="45.7807" lon="4.16285">
        <ele>410</ele>
        <time>2022-05-09T13:33:53Z</time>
      </trkpt>
      <trkpt lat="45.78067" lon="4.16292">
        <ele>406.5</ele>
        <time>2022-05-09T13:33:59Z</time>
      </trkpt>
      <trkpt lat="45.78063" lon="4.16299">
        <ele>406.1</ele>
        <time>2022-05-09T13:34:04Z</time>
      </trkpt>
      <trkpt lat="45.7806" lon="4.16307">
        <ele>405.7</ele>
        <time>2022-05-09T13:34:09Z</time>
      </trkpt>
      <trkpt lat="45.78055" lon="4.16316">
        <ele>405.4</ele>
        <time>2022-05-09T13:34:15Z</time>
      </trkpt>
      <trkpt lat="45.78051" lon="4.16323">
        <ele>405.3</ele>
        <time>2022-05-09T13:34:20Z</time>
      </trkpt>
      <trkpt lat="45.78049" lon="4.16329">
        <ele>405.4</ele>
        <time>2022-05-09T13:34:26Z</time>
      </trkpt>
      <trkpt lat="45.78047" lon="4.16334">
        <ele>405.7</ele>
        <time>2022-05-09T13:34:31Z</time>
      </trkpt>
      <trkpt lat="45.78049" lon="4.16339">
        <ele>405.9</ele>
        <time>2022-05-09T13:34:37Z</time>
      </trkpt>
      <trkpt lat="45.78049" lon="4.16346">
        <ele>405.1</ele>
        <time>2022-05-09T13:34:42Z</time>
      </trkpt>
      <trkpt lat="45.78048" lon="4.16352">
        <ele>405.1</ele>
        <time>2022-05-09T13:34:47Z</time>
      </trkpt>
      <trkpt lat="45.78045" lon="4.16359">
        <ele>405</ele>
        <time>2022-05-09T13:34:53Z</time>
      </trkpt>
      <trkpt lat="45.7804" lon="4.16364">
        <ele>405.3</ele>
        <time>2022-05-09T13:34:58Z</time>
      </trkpt>
      <trkpt lat="45.78035" lon="4.1637">
        <ele>404.8</ele>
        <time>2022-05-09T13:35:04Z</time>
      </trkpt>
      <trkpt lat="45.78025" lon="4.16374">
        <ele>405.5</ele>
        <time>2022-05-09T13:35:09Z</time>
      </trkpt>
      <trkpt lat="45.78017" lon="4.16384">
        <ele>407.7</ele>
        <time>2022-05-09T13:35:14Z</time>
      </trkpt>
      <trkpt lat="45.78014" lon="4.16389">
        <ele>406.8</ele>
        <time>2022-05-09T13:35:19Z</time>
      </trkpt>
      <trkpt lat="45.78012" lon="4.16389">
        <ele>409.1</ele>
        <time>2022-05-09T13:35:25Z</time>
      </trkpt>
      <trkpt lat="45.78011" lon="4.16393">
        <ele>409.2</ele>
        <time>2022-05-09T13:35:30Z</time>
      </trkpt>
      <trkpt lat="45.78011" lon="4.16401">
        <ele>413.5</ele>
        <time>2022-05-09T13:35:35Z</time>
      </trkpt>
      <trkpt lat="45.78012" lon="4.16408">
        <ele>411.9</ele>
        <time>2022-05-09T13:35:40Z</time>
      </trkpt>
      <trkpt lat="45.78015" lon="4.16416">
        <ele>406.9</ele>
        <time>2022-05-09T13:35:46Z</time>
      </trkpt>
      <trkpt lat="45.78015" lon="4.1642">
        <ele>408.6</ele>
        <time>2022-05-09T13:35:52Z</time>
      </trkpt>
      <trkpt lat="45.78014" lon="4.16424">
        <ele>407.7</ele>
        <time>2022-05-09T13:35:57Z</time>
      </trkpt>
      <trkpt lat="45.78013" lon="4.16429">
        <ele>407.5</ele>
        <time>2022-05-09T13:36:02Z</time>
      </trkpt>
      <trkpt lat="45.78007" lon="4.16437">
        <ele>405.4</ele>
        <time>2022-05-09T13:36:07Z</time>
      </trkpt>
      <trkpt lat="45.78004" lon="4.16446">
        <ele>405.2</ele>
        <time>2022-05-09T13:36:13Z</time>
      </trkpt>
      <trkpt lat="45.78" lon="4.16451">
        <ele>405.2</ele>
        <time>2022-05-09T13:36:18Z</time>
      </trkpt>
      <trkpt lat="45.77998" lon="4.16456">
        <ele>407</ele>
        <time>2022-05-09T13:36:23Z</time>
      </trkpt>
      <trkpt lat="45.78001" lon="4.16466">
        <ele>405.4</ele>
        <time>2022-05-09T13:36:29Z</time>
      </trkpt>
      <trkpt lat="45.78008" lon="4.16473">
        <ele>405.2</ele>
        <time>2022-05-09T13:36:34Z</time>
      </trkpt>
      <trkpt lat="45.78017" lon="4.16475">
        <ele>405.1</ele>
        <time>2022-05-09T13:36:39Z</time>
      </trkpt>
      <trkpt lat="45.78025" lon="4.16479">
        <ele>404.9</ele>
        <time>2022-05-09T13:36:45Z</time>
      </trkpt>
      <trkpt lat="45.7803" lon="4.16495">
        <ele>408.5</ele>
        <time>2022-05-09T13:36:51Z</time>
      </trkpt>
      <trkpt lat="45.78031" lon="4.16505">
        <ele>409</ele>
        <time>2022-05-09T13:36:56Z</time>
      </trkpt>
      <trkpt lat="45.78027" lon="4.16518">
        <ele>406.6</ele>
        <time>2022-05-09T13:37:02Z</time>
      </trkpt>
      <trkpt lat="45.78021" lon="4.16528">
        <ele>406.2</ele>
        <time>2022-05-09T13:37:08Z</time>
      </trkpt>
      <trkpt lat="45.78021" lon="4.16536">
        <ele>408</ele>
        <time>2022-05-09T13:37:13Z</time>
      </trkpt>
      <trkpt lat="45.78019" lon="4.16545">
        <ele>405.3</ele>
        <time>2022-05-09T13:37:18Z</time>
      </trkpt>
      <trkpt lat="45.78018" lon="4.16551">
        <ele>407.1</ele>
        <time>2022-05-09T13:37:23Z</time>
      </trkpt>
      <trkpt lat="45.78017" lon="4.16554">
        <ele>405.5</ele>
        <time>2022-05-09T13:37:29Z</time>
      </trkpt>
      <trkpt lat="45.78018" lon="4.16556">
        <ele>405.7</ele>
        <time>2022-05-09T13:37:35Z</time>
      </trkpt>
      <trkpt lat="45.78022" lon="4.16556">
        <ele>405.2</ele>
        <time>2022-05-09T13:37:40Z</time>
      </trkpt>
      <trkpt lat="45.78026" lon="4.1655">
        <ele>407.2</ele>
        <time>2022-05-09T13:37:45Z</time>
      </trkpt>
      <trkpt lat="45.78027" lon="4.16537">
        <ele>639</ele>
        <time>2022-05-09T13:37:50Z</time>
      </trkpt>
      <trkpt lat="45.78027" lon="4.16537">
        <ele>406.4</ele>
        <time>2022-05-09T13:37:56Z</time>
      </trkpt>
      <trkpt lat="45.78022" lon="4.16545">
        <ele>405.8</ele>
        <time>2022-05-09T13:38:01Z</time>
      </trkpt>
      <trkpt lat="45.78018" lon="4.16555">
        <ele>404.9</ele>
        <time>2022-05-09T13:38:06Z</time>
      </trkpt>
      <trkpt lat="45.78009" lon="4.16563">
        <ele>405.9</ele>
        <time>2022-05-09T13:38:11Z</time>
      </trkpt>
      <trkpt lat="45.78001" lon="4.16562">
        <ele>405.2</ele>
        <time>2022-05-09T13:38:17Z</time>
      </trkpt>
      <trkpt lat="45.78015" lon="4.16605">
        <ele>594.7</ele>
        <time>2022-05-09T13:38:23Z</time>
      </trkpt>
      <trkpt lat="45.78012" lon="4.16633">
        <ele>587.5</ele>
        <time>2022-05-09T13:38:28Z</time>
      </trkpt>
      <trkpt lat="45.78007" lon="4.16644">
        <ele>596.3</ele>
        <time>2022-05-09T13:38:33Z</time>
      </trkpt>
      <trkpt lat="45.78002" lon="4.16651">
        <ele>548.6</ele>
        <time>2022-05-09T13:38:38Z</time>
      </trkpt>
      <trkpt lat="45.77997" lon="4.16653">
        <ele>424.2</ele>
        <time>2022-05-09T13:38:44Z</time>
      </trkpt>
      <trkpt lat="45.77993" lon="4.16659">
        <ele>422.1</ele>
        <time>2022-05-09T13:38:49Z</time>
      </trkpt>
      <trkpt lat="45.77987" lon="4.16664">
        <ele>421.8</ele>
        <time>2022-05-09T13:38:55Z</time>
      </trkpt>
      <trkpt lat="45.77984" lon="4.16671">
        <ele>420.9</ele>
        <time>2022-05-09T13:39:00Z</time>
      </trkpt>
      <trkpt lat="45.77981" lon="4.1668">
        <ele>418.7</ele>
        <time>2022-05-09T13:39:06Z</time>
      </trkpt>
      <trkpt lat="45.77979" lon="4.16689">
        <ele>418.3</ele>
        <time>2022-05-09T13:39:11Z</time>
      </trkpt>
      <trkpt lat="45.77976" lon="4.16696">
        <ele>417.9</ele>
        <time>2022-05-09T13:39:16Z</time>
      </trkpt>
      <trkpt lat="45.77974" lon="4.16704">
        <ele>417.9</ele>
        <time>2022-05-09T13:39:22Z</time>
      </trkpt>
      <trkpt lat="45.77972" lon="4.16711">
        <ele>417.7</ele>
        <time>2022-05-09T13:39:27Z</time>
      </trkpt>
      <trkpt lat="45.77972" lon="4.16716">
        <ele>405.3</ele>
        <time>2022-05-09T13:39:33Z</time>
      </trkpt>
      <trkpt lat="45.77972" lon="4.16718">
        <ele>404.3</ele>
        <time>2022-05-09T13:39:38Z</time>
      </trkpt>
      <trkpt lat="45.77973" lon="4.1672">
        <ele>405.2</ele>
        <time>2022-05-09T13:39:44Z</time>
      </trkpt>
      <trkpt lat="45.77976" lon="4.16723">
        <ele>404.7</ele>
        <time>2022-05-09T13:39:49Z</time>
      </trkpt>
      <trkpt lat="45.77989" lon="4.16739">
        <ele>406.6</ele>
        <time>2022-05-09T13:39:54Z</time>
      </trkpt>
      <trkpt lat="45.77995" lon="4.16754">
        <ele>406.2</ele>
        <time>2022-05-09T13:40:00Z</time>
      </trkpt>
      <trkpt lat="45.77999" lon="4.16765">
        <ele>406.2</ele>
        <time>2022-05-09T13:40:05Z</time>
      </trkpt>
      <trkpt lat="45.78002" lon="4.16775">
        <ele>405.1</ele>
        <time>2022-05-09T13:40:11Z</time>
      </trkpt>
      <trkpt lat="45.78003" lon="4.16785">
        <ele>408.3</ele>
        <time>2022-05-09T13:40:16Z</time>
      </trkpt>
      <trkpt lat="45.78006" lon="4.16793">
        <ele>409.2</ele>
        <time>2022-05-09T13:40:21Z</time>
      </trkpt>
      <trkpt lat="45.78011" lon="4.16799">
        <ele>419.4</ele>
        <time>2022-05-09T13:40:27Z</time>
      </trkpt>
      <trkpt lat="45.78014" lon="4.16807">
        <ele>415.5</ele>
        <time>2022-05-09T13:40:32Z</time>
      </trkpt>
      <trkpt lat="45.78013" lon="4.16814">
        <ele>415.5</ele>
        <time>2022-05-09T13:40:38Z</time>
      </trkpt>
      <trkpt lat="45.7801" lon="4.16813">
        <ele>415.4</ele>
        <time>2022-05-09T13:40:43Z</time>
      </trkpt>
      <trkpt lat="45.78008" lon="4.16813">
        <ele>415.6</ele>
        <time>2022-05-09T13:40:49Z</time>
      </trkpt>
      <trkpt lat="45.78007" lon="4.16815">
        <ele>415.6</ele>
        <time>2022-05-09T13:40:54Z</time>
      </trkpt>
      <trkpt lat="45.78005" lon="4.16814">
        <ele>415.5</ele>
        <time>2022-05-09T13:40:59Z</time>
      </trkpt>
      <trkpt lat="45.78002" lon="4.16819">
        <ele>415.4</ele>
        <time>2022-05-09T13:41:05Z</time>
      </trkpt>
      <trkpt lat="45.77999" lon="4.16826">
        <ele>415.4</ele>
        <time>2022-05-09T13:41:11Z</time>
      </trkpt>
      <trkpt lat="45.77994" lon="4.16833">
        <ele>415.5</ele>
        <time>2022-05-09T13:41:16Z</time>
      </trkpt>
      <trkpt lat="45.78004" lon="4.16845">
        <ele>417.2</ele>
        <time>2022-05-09T13:41:21Z</time>
      </trkpt>
      <trkpt lat="45.78017" lon="4.16863">
        <ele>420</ele>
        <time>2022-05-09T13:41:27Z</time>
      </trkpt>
      <trkpt lat="45.78025" lon="4.16872">
        <ele>421</ele>
        <time>2022-05-09T13:41:32Z</time>
      </trkpt>
      <trkpt lat="45.78031" lon="4.16875">
        <ele>426.9</ele>
        <time>2022-05-09T13:41:37Z</time>
      </trkpt>
      <trkpt lat="45.78035" lon="4.16879">
        <ele>426.7</ele>
        <time>2022-05-09T13:41:43Z</time>
      </trkpt>
      <trkpt lat="45.78037" lon="4.16883">
        <ele>492.1</ele>
        <time>2022-05-09T13:41:48Z</time>
      </trkpt>
      <trkpt lat="45.78038" lon="4.16885">
        <ele>490</ele>
        <time>2022-05-09T13:41:54Z</time>
      </trkpt>
      <trkpt lat="45.78039" lon="4.16883">
        <ele>489.7</ele>
        <time>2022-05-09T13:41:59Z</time>
      </trkpt>
      <trkpt lat="45.78037" lon="4.16887">
        <ele>406</ele>
        <time>2022-05-09T13:42:04Z</time>
      </trkpt>
      <trkpt lat="45.78034" lon="4.16889">
        <ele>404.8</ele>
        <time>2022-05-09T13:42:10Z</time>
      </trkpt>
      <trkpt lat="45.78031" lon="4.16894">
        <ele>406.1</ele>
        <time>2022-05-09T13:42:15Z</time>
      </trkpt>
      <trkpt lat="45.7803" lon="4.169">
        <ele>405.4</ele>
        <time>2022-05-09T13:42:21Z</time>
      </trkpt>
      <trkpt lat="45.78028" lon="4.16908">
        <ele>405.4</ele>
        <time>2022-05-09T13:42:26Z</time>
      </trkpt>
      <trkpt lat="45.78027" lon="4.16915">
        <ele>405.4</ele>
        <time>2022-05-09T13:42:32Z</time>
      </trkpt>
      <trkpt lat="45.78026" lon="4.16921">
        <ele>404.5</ele>
        <time>2022-05-09T13:42:37Z</time>
      </trkpt>
      <trkpt lat="45.78023" lon="4.16927">
        <ele>405.4</ele>
        <time>2022-05-09T13:42:42Z</time>
      </trkpt>
      <trkpt lat="45.78019" lon="4.16932">
        <ele>426.2</ele>
        <time>2022-05-09T13:42:47Z</time>
      </trkpt>
      <trkpt lat="45.78016" lon="4.16939">
        <ele>426.3</ele>
        <time>2022-05-09T13:42:53Z</time>
      </trkpt>
      <trkpt lat="45.7801" lon="4.16943">
        <ele>426.6</ele>
        <time>2022-05-09T13:42:58Z</time>
      </trkpt>
      <trkpt lat="45.78009" lon="4.16948">
        <ele>426.1</ele>
        <time>2022-05-09T13:43:04Z</time>
      </trkpt>
      <trkpt lat="45.78011" lon="4.16954">
        <ele>426.5</ele>
        <time>2022-05-09T13:43:09Z</time>
      </trkpt>
      <trkpt lat="45.78014" lon="4.16962">
        <ele>426.8</ele>
        <time>2022-05-09T13:43:15Z</time>
      </trkpt>
      <trkpt lat="45.78018" lon="4.16972">
        <ele>426.7</ele>
        <time>2022-05-09T13:43:20Z</time>
      </trkpt>
      <trkpt lat="45.78022" lon="4.16984">
        <ele>426.2</ele>
        <time>2022-05-09T13:43:26Z</time>
      </trkpt>
      <trkpt lat="45.78026" lon="4.16996">
        <ele>426</ele>
        <time>2022-05-09T13:43:31Z</time>
      </trkpt>
      <trkpt lat="45.78028" lon="4.1701">
        <ele>425.8</ele>
        <time>2022-05-09T13:43:37Z</time>
      </trkpt>
      <trkpt lat="45.78029" lon="4.1702">
        <ele>426</ele>
        <time>2022-05-09T13:43:42Z</time>
      </trkpt>
      <trkpt lat="45.78029" lon="4.17031">
        <ele>426.2</ele>
        <time>2022-05-09T13:43:47Z</time>
      </trkpt>
      <trkpt lat="45.78029" lon="4.17042">
        <ele>426.3</ele>
        <time>2022-05-09T13:43:52Z</time>
      </trkpt>
      <trkpt lat="45.78029" lon="4.17052">
        <ele>426.3</ele>
        <time>2022-05-09T13:43:58Z</time>
      </trkpt>
      <trkpt lat="45.78031" lon="4.1706">
        <ele>425.9</ele>
        <time>2022-05-09T13:44:03Z</time>
      </trkpt>
      <trkpt lat="45.78032" lon="4.17061">
        <ele>426</ele>
        <time>2022-05-09T13:44:08Z</time>
      </trkpt>
      <trkpt lat="45.78031" lon="4.1706">
        <ele>425.5</ele>
        <time>2022-05-09T13:44:13Z</time>
      </trkpt>
      <trkpt lat="45.78031" lon="4.17059">
        <ele>426</ele>
        <time>2022-05-09T13:44:18Z</time>
      </trkpt>
      <trkpt lat="45.78032" lon="4.17059">
        <ele>425.7</ele>
        <time>2022-05-09T13:44:24Z</time>
      </trkpt>
      <trkpt lat="45.78033" lon="4.1706">
        <ele>425.6</ele>
        <time>2022-05-09T13:44:29Z</time>
      </trkpt>
      <trkpt lat="45.78035" lon="4.17062">
        <ele>425.8</ele>
        <time>2022-05-09T13:44:35Z</time>
      </trkpt>
      <trkpt lat="45.78037" lon="4.17063">
        <ele>426.2</ele>
        <time>2022-05-09T13:44:40Z</time>
      </trkpt>
      <trkpt lat="45.78038" lon="4.17064">
        <ele>425.5</ele>
        <time>2022-05-09T13:44:45Z</time>
      </trkpt>
      <trkpt lat="45.78048" lon="4.17066">
        <ele>425.4</ele>
        <time>2022-05-09T13:44:51Z</time>
      </trkpt>
      <trkpt lat="45.78052" lon="4.17063">
        <ele>425</ele>
        <time>2022-05-09T13:44:57Z</time>
      </trkpt>
      <trkpt lat="45.78051" lon="4.17063">
        <ele>424.9</ele>
        <time>2022-05-09T13:45:03Z</time>
      </trkpt>
      <trkpt lat="45.78048" lon="4.17063">
        <ele>424.8</ele>
        <time>2022-05-09T13:45:09Z</time>
      </trkpt>
      <trkpt lat="45.78048" lon="4.17065">
        <ele>424.8</ele>
        <time>2022-05-09T13:45:14Z</time>
      </trkpt>
      <trkpt lat="45.78049" lon="4.17068">
        <ele>422</ele>
        <time>2022-05-09T13:45:19Z</time>
      </trkpt>
      <trkpt lat="45.78053" lon="4.17078">
        <ele>419.2</ele>
        <time>2022-05-09T13:45:25Z</time>
      </trkpt>
      <trkpt lat="45.78055" lon="4.17082">
        <ele>417.4</ele>
        <time>2022-05-09T13:45:30Z</time>
      </trkpt>
      <trkpt lat="45.7806" lon="4.17093">
        <ele>406.4</ele>
        <time>2022-05-09T13:45:37Z</time>
      </trkpt>
      <trkpt lat="45.78063" lon="4.17096">
        <ele>404.4</ele>
        <time>2022-05-09T13:45:42Z</time>
      </trkpt>
      <trkpt lat="45.78065" lon="4.17099">
        <ele>403.2</ele>
        <time>2022-05-09T13:45:48Z</time>
      </trkpt>
      <trkpt lat="45.78065" lon="4.17099">
        <ele>402.5</ele>
        <time>2022-05-09T13:45:54Z</time>
      </trkpt>
      <trkpt lat="45.78065" lon="4.17099">
        <ele>402.5</ele>
        <time>2022-05-09T13:45:59Z</time>
      </trkpt>
      <trkpt lat="45.78065" lon="4.17099">
        <ele>400.3</ele>
        <time>2022-05-09T13:46:04Z</time>
      </trkpt>
      <trkpt lat="45.78065" lon="4.17098">
        <ele>401.4</ele>
        <time>2022-05-09T13:46:09Z</time>
      </trkpt>
      <trkpt lat="45.78064" lon="4.17099">
        <ele>401.7</ele>
        <time>2022-05-09T13:46:15Z</time>
      </trkpt>
      <trkpt lat="45.78065" lon="4.17097">
        <ele>401.4</ele>
        <time>2022-05-09T13:46:20Z</time>
      </trkpt>
      <trkpt lat="45.78065" lon="4.17099">
        <ele>402.7</ele>
        <time>2022-05-09T13:46:26Z</time>
      </trkpt>
      <trkpt lat="45.78065" lon="4.171">
        <ele>403</ele>
        <time>2022-05-09T13:46:31Z</time>
      </trkpt>
      <trkpt lat="45.78068" lon="4.17109">
        <ele>403.8</ele>
        <time>2022-05-09T13:46:37Z</time>
      </trkpt>
      <trkpt lat="45.7807" lon="4.17117">
        <ele>402.5</ele>
        <time>2022-05-09T13:46:42Z</time>
      </trkpt>
      <trkpt lat="45.78071" lon="4.17128">
        <ele>402.4</ele>
        <time>2022-05-09T13:46:48Z</time>
      </trkpt>
      <trkpt lat="45.78068" lon="4.17137">
        <ele>402.5</ele>
        <time>2022-05-09T13:46:53Z</time>
      </trkpt>
      <trkpt lat="45.78065" lon="4.17139">
        <ele>402.9</ele>
        <time>2022-05-09T13:46:59Z</time>
      </trkpt>
      <trkpt lat="45.78064" lon="4.17146">
        <ele>404.9</ele>
        <time>2022-05-09T13:47:04Z</time>
      </trkpt>
      <trkpt lat="45.78069" lon="4.17158">
        <ele>405.5</ele>
        <time>2022-05-09T13:47:10Z</time>
      </trkpt>
      <trkpt lat="45.78079" lon="4.17166">
        <ele>403.9</ele>
        <time>2022-05-09T13:47:16Z</time>
      </trkpt>
      <trkpt lat="45.78084" lon="4.17176">
        <ele>403</ele>
        <time>2022-05-09T13:47:21Z</time>
      </trkpt>
      <trkpt lat="45.78085" lon="4.17188">
        <ele>403.8</ele>
        <time>2022-05-09T13:47:26Z</time>
      </trkpt>
      <trkpt lat="45.78084" lon="4.17192">
        <ele>403.6</ele>
        <time>2022-05-09T13:47:32Z</time>
      </trkpt>
      <trkpt lat="45.78083" lon="4.1719">
        <ele>404.4</ele>
        <time>2022-05-09T13:47:38Z</time>
      </trkpt>
      <trkpt lat="45.78083" lon="4.17193">
        <ele>404</ele>
        <time>2022-05-09T13:47:43Z</time>
      </trkpt>
      <trkpt lat="45.78083" lon="4.17196">
        <ele>404</ele>
        <time>2022-05-09T13:47:49Z</time>
      </trkpt>
      <trkpt lat="45.78084" lon="4.17197">
        <ele>403.9</ele>
        <time>2022-05-09T13:47:55Z</time>
      </trkpt>
      <trkpt lat="45.78084" lon="4.17198">
        <ele>403.9</ele>
        <time>2022-05-09T13:48:01Z</time>
      </trkpt>
      <trkpt lat="45.78084" lon="4.17198">
        <ele>403.8</ele>
        <time>2022-05-09T13:48:06Z</time>
      </trkpt>
      <trkpt lat="45.78085" lon="4.172">
        <ele>403.8</ele>
        <time>2022-05-09T13:48:12Z</time>
      </trkpt>
      <trkpt lat="45.78086" lon="4.17206">
        <ele>402.3</ele>
        <time>2022-05-09T13:48:17Z</time>
      </trkpt>
      <trkpt lat="45.7809" lon="4.17213">
        <ele>403.8</ele>
        <time>2022-05-09T13:48:23Z</time>
      </trkpt>
      <trkpt lat="45.78095" lon="4.17218">
        <ele>403.7</ele>
        <time>2022-05-09T13:48:28Z</time>
      </trkpt>
      <trkpt lat="45.781" lon="4.17221">
        <ele>404.4</ele>
        <time>2022-05-09T13:48:34Z</time>
      </trkpt>
      <trkpt lat="45.78104" lon="4.17224">
        <ele>404.1</ele>
        <time>2022-05-09T13:48:39Z</time>
      </trkpt>
      <trkpt lat="45.78108" lon="4.17227">
        <ele>404.3</ele>
        <time>2022-05-09T13:48:44Z</time>
      </trkpt>
      <trkpt lat="45.78112" lon="4.17229">
        <ele>404.3</ele>
        <time>2022-05-09T13:48:49Z</time>
      </trkpt>
      <trkpt lat="45.78115" lon="4.17231">
        <ele>404.2</ele>
        <time>2022-05-09T13:48:55Z</time>
      </trkpt>
      <trkpt lat="45.7812" lon="4.17231">
        <ele>403.7</ele>
        <time>2022-05-09T13:49:00Z</time>
      </trkpt>
      <trkpt lat="45.78124" lon="4.17231">
        <ele>404.2</ele>
        <time>2022-05-09T13:49:05Z</time>
      </trkpt>
      <trkpt lat="45.78126" lon="4.17233">
        <ele>404.3</ele>
        <time>2022-05-09T13:49:10Z</time>
      </trkpt>
      <trkpt lat="45.78129" lon="4.17235">
        <ele>403.7</ele>
        <time>2022-05-09T13:49:16Z</time>
      </trkpt>
      <trkpt lat="45.78131" lon="4.17237">
        <ele>403.8</ele>
        <time>2022-05-09T13:49:21Z</time>
      </trkpt>
      <trkpt lat="45.78132" lon="4.1724">
        <ele>403.6</ele>
        <time>2022-05-09T13:49:27Z</time>
      </trkpt>
      <trkpt lat="45.78133" lon="4.17239">
        <ele>404.1</ele>
        <time>2022-05-09T13:49:32Z</time>
      </trkpt>
      <trkpt lat="45.78133" lon="4.17238">
        <ele>403.8</ele>
        <time>2022-05-09T13:49:38Z</time>
      </trkpt>
      <trkpt lat="45.78136" lon="4.17243">
        <ele>403.7</ele>
        <time>2022-05-09T13:49:43Z</time>
      </trkpt>
      <trkpt lat="45.78136" lon="4.17245">
        <ele>403.8</ele>
        <time>2022-05-09T13:49:49Z</time>
      </trkpt>
      <trkpt lat="45.78136" lon="4.17244">
        <ele>403.8</ele>
        <time>2022-05-09T13:49:54Z</time>
      </trkpt>
      <trkpt lat="45.78136" lon="4.17243">
        <ele>405</ele>
        <time>2022-05-09T13:50:00Z</time>
      </trkpt>
      <trkpt lat="45.78142" lon="4.17248">
        <ele>404.8</ele>
        <time>2022-05-09T13:50:06Z</time>
      </trkpt>
      <trkpt lat="45.78144" lon="4.17249">
        <ele>405</ele>
        <time>2022-05-09T13:50:11Z</time>
      </trkpt>
      <trkpt lat="45.78143" lon="4.17249">
        <ele>404.3</ele>
        <time>2022-05-09T13:50:17Z</time>
      </trkpt>
      <trkpt lat="45.7814" lon="4.17254">
        <ele>404.4</ele>
        <time>2022-05-09T13:50:22Z</time>
      </trkpt>
      <trkpt lat="45.7814" lon="4.17257">
        <ele>404.2</ele>
        <time>2022-05-09T13:50:27Z</time>
      </trkpt>
      <trkpt lat="45.78142" lon="4.1726">
        <ele>404</ele>
        <time>2022-05-09T13:50:33Z</time>
      </trkpt>
      <trkpt lat="45.78144" lon="4.17266">
        <ele>403.9</ele>
        <time>2022-05-09T13:50:38Z</time>
      </trkpt>
      <trkpt lat="45.78144" lon="4.17275">
        <ele>403.7</ele>
        <time>2022-05-09T13:50:43Z</time>
      </trkpt>
      <trkpt lat="45.78143" lon="4.17283">
        <ele>403.6</ele>
        <time>2022-05-09T13:50:48Z</time>
      </trkpt>
      <trkpt lat="45.78141" lon="4.1729">
        <ele>403.8</ele>
        <time>2022-05-09T13:50:53Z</time>
      </trkpt>
      <trkpt lat="45.78141" lon="4.17296">
        <ele>403.9</ele>
        <time>2022-05-09T13:50:58Z</time>
      </trkpt>
      <trkpt lat="45.78141" lon="4.17302">
        <ele>403.5</ele>
        <time>2022-05-09T13:51:04Z</time>
      </trkpt>
      <trkpt lat="45.78137" lon="4.17308">
        <ele>403.9</ele>
        <time>2022-05-09T13:51:09Z</time>
      </trkpt>
      <trkpt lat="45.78129" lon="4.17311">
        <ele>416.8</ele>
        <time>2022-05-09T13:51:14Z</time>
      </trkpt>
      <trkpt lat="45.7812" lon="4.17311">
        <ele>401.6</ele>
        <time>2022-05-09T13:51:19Z</time>
      </trkpt>
      <trkpt lat="45.78113" lon="4.17309">
        <ele>401.9</ele>
        <time>2022-05-09T13:51:25Z</time>
      </trkpt>
      <trkpt lat="45.78106" lon="4.17307">
        <ele>401.6</ele>
        <time>2022-05-09T13:51:30Z</time>
      </trkpt>
      <trkpt lat="45.78101" lon="4.17304">
        <ele>401.6</ele>
        <time>2022-05-09T13:51:35Z</time>
      </trkpt>
      <trkpt lat="45.78091" lon="4.17298">
        <ele>401.5</ele>
        <time>2022-05-09T13:51:41Z</time>
      </trkpt>
      <trkpt lat="45.78082" lon="4.17293">
        <ele>401.5</ele>
        <time>2022-05-09T13:51:46Z</time>
      </trkpt>
      <trkpt lat="45.78073" lon="4.17292">
        <ele>401.5</ele>
        <time>2022-05-09T13:51:52Z</time>
      </trkpt>
      <trkpt lat="45.78067" lon="4.17296">
        <ele>401.5</ele>
        <time>2022-05-09T13:51:57Z</time>
      </trkpt>
      <trkpt lat="45.78061" lon="4.17303">
        <ele>401.7</ele>
        <time>2022-05-09T13:52:02Z</time>
      </trkpt>
      <trkpt lat="45.78056" lon="4.17312">
        <ele>401.5</ele>
        <time>2022-05-09T13:52:08Z</time>
      </trkpt>
      <trkpt lat="45.78052" lon="4.17321">
        <ele>401.1</ele>
        <time>2022-05-09T13:52:13Z</time>
      </trkpt>
      <trkpt lat="45.78049" lon="4.1733">
        <ele>401.1</ele>
        <time>2022-05-09T13:52:18Z</time>
      </trkpt>
      <trkpt lat="45.78046" lon="4.17338">
        <ele>401.1</ele>
        <time>2022-05-09T13:52:24Z</time>
      </trkpt>
      <trkpt lat="45.78041" lon="4.17343">
        <ele>401</ele>
        <time>2022-05-09T13:52:29Z</time>
      </trkpt>
      <trkpt lat="45.78034" lon="4.17347">
        <ele>401.1</ele>
        <time>2022-05-09T13:52:34Z</time>
      </trkpt>
      <trkpt lat="45.78028" lon="4.17344">
        <ele>401.1</ele>
        <time>2022-05-09T13:52:40Z</time>
      </trkpt>
      <trkpt lat="45.78021" lon="4.1734">
        <ele>401.1</ele>
        <time>2022-05-09T13:52:45Z</time>
      </trkpt>
      <trkpt lat="45.78013" lon="4.17336">
        <ele>401</ele>
        <time>2022-05-09T13:52:50Z</time>
      </trkpt>
      <trkpt lat="45.78005" lon="4.17335">
        <ele>401</ele>
        <time>2022-05-09T13:52:55Z</time>
      </trkpt>
      <trkpt lat="45.77998" lon="4.17337">
        <ele>401</ele>
        <time>2022-05-09T13:53:00Z</time>
      </trkpt>
      <trkpt lat="45.77992" lon="4.17341">
        <ele>401</ele>
        <time>2022-05-09T13:53:05Z</time>
      </trkpt>
      <trkpt lat="45.77987" lon="4.17348">
        <ele>401</ele>
        <time>2022-05-09T13:53:10Z</time>
      </trkpt>
      <trkpt lat="45.77982" lon="4.17357">
        <ele>400.9</ele>
        <time>2022-05-09T13:53:16Z</time>
      </trkpt>
      <trkpt lat="45.77979" lon="4.17367">
        <ele>400.9</ele>
        <time>2022-05-09T13:53:21Z</time>
      </trkpt>
      <trkpt lat="45.77975" lon="4.17375">
        <ele>400.9</ele>
        <time>2022-05-09T13:53:26Z</time>
      </trkpt>
      <trkpt lat="45.77971" lon="4.17383">
        <ele>400.9</ele>
        <time>2022-05-09T13:53:31Z</time>
      </trkpt>
      <trkpt lat="45.77967" lon="4.1739">
        <ele>416.1</ele>
        <time>2022-05-09T13:53:36Z</time>
      </trkpt>
      <trkpt lat="45.77959" lon="4.1739">
        <ele>401.1</ele>
        <time>2022-05-09T13:53:42Z</time>
      </trkpt>
      <trkpt lat="45.7793" lon="4.17389">
        <ele>402.1</ele>
        <time>2022-05-09T13:53:47Z</time>
      </trkpt>
      <trkpt lat="45.7791" lon="4.17389">
        <ele>403.2</ele>
        <time>2022-05-09T13:53:52Z</time>
      </trkpt>
      <trkpt lat="45.77897" lon="4.17382">
        <ele>403.2</ele>
        <time>2022-05-09T13:53:58Z</time>
      </trkpt>
      <trkpt lat="45.77901" lon="4.17377">
        <ele>402.9</ele>
        <time>2022-05-09T13:54:04Z</time>
      </trkpt>
      <trkpt lat="45.77902" lon="4.17378">
        <ele>403.8</ele>
        <time>2022-05-09T13:54:10Z</time>
      </trkpt>
      <trkpt lat="45.77901" lon="4.17379">
        <ele>405.1</ele>
        <time>2022-05-09T13:54:15Z</time>
      </trkpt>
      <trkpt lat="45.77901" lon="4.17378">
        <ele>404.9</ele>
        <time>2022-05-09T13:54:21Z</time>
      </trkpt>
      <trkpt lat="45.779" lon="4.17378">
        <ele>405.2</ele>
        <time>2022-05-09T13:54:26Z</time>
      </trkpt>
      <trkpt lat="45.779" lon="4.1738">
        <ele>405.9</ele>
        <time>2022-05-09T13:54:31Z</time>
      </trkpt>
      <trkpt lat="45.779" lon="4.17383">
        <ele>406.2</ele>
        <time>2022-05-09T13:54:37Z</time>
      </trkpt>
      <trkpt lat="45.779" lon="4.17384">
        <ele>407.3</ele>
        <time>2022-05-09T13:54:43Z</time>
      </trkpt>
      <trkpt lat="45.779" lon="4.17386">
        <ele>408.8</ele>
        <time>2022-05-09T13:54:49Z</time>
      </trkpt>
      <trkpt lat="45.779" lon="4.17389">
        <ele>406.4</ele>
        <time>2022-05-09T13:54:55Z</time>
      </trkpt>
      <trkpt lat="45.77901" lon="4.17392">
        <ele>406.8</ele>
        <time>2022-05-09T13:55:01Z</time>
      </trkpt>
      <trkpt lat="45.77901" lon="4.17397">
        <ele>407.5</ele>
        <time>2022-05-09T13:55:06Z</time>
      </trkpt>
      <trkpt lat="45.77904" lon="4.174">
        <ele>409.1</ele>
        <time>2022-05-09T13:55:12Z</time>
      </trkpt>
      <trkpt lat="45.77908" lon="4.17406">
        <ele>408.2</ele>
        <time>2022-05-09T13:55:17Z</time>
      </trkpt>
      <trkpt lat="45.77911" lon="4.17409">
        <ele>408.2</ele>
        <time>2022-05-09T13:55:23Z</time>
      </trkpt>
      <trkpt lat="45.77911" lon="4.17412">
        <ele>406.5</ele>
        <time>2022-05-09T13:55:28Z</time>
      </trkpt>
      <trkpt lat="45.77911" lon="4.17414">
        <ele>406.6</ele>
        <time>2022-05-09T13:55:33Z</time>
      </trkpt>
      <trkpt lat="45.77913" lon="4.17415">
        <ele>408.4</ele>
        <time>2022-05-09T13:55:39Z</time>
      </trkpt>
      <trkpt lat="45.77913" lon="4.17416">
        <ele>408.4</ele>
        <time>2022-05-09T13:55:44Z</time>
      </trkpt>
      <trkpt lat="45.77914" lon="4.17417">
        <ele>407.7</ele>
        <time>2022-05-09T13:55:50Z</time>
      </trkpt>
      <trkpt lat="45.77914" lon="4.17416">
        <ele>409.3</ele>
        <time>2022-05-09T13:55:55Z</time>
      </trkpt>
      <trkpt lat="45.77914" lon="4.17416">
        <ele>410.3</ele>
        <time>2022-05-09T13:56:01Z</time>
      </trkpt>
      <trkpt lat="45.77915" lon="4.17421">
        <ele>408.3</ele>
        <time>2022-05-09T13:56:07Z</time>
      </trkpt>
      <trkpt lat="45.77917" lon="4.17428">
        <ele>407.3</ele>
        <time>2022-05-09T13:56:13Z</time>
      </trkpt>
      <trkpt lat="45.7792" lon="4.17434">
        <ele>407.3</ele>
        <time>2022-05-09T13:56:18Z</time>
      </trkpt>
      <trkpt lat="45.77924" lon="4.17441">
        <ele>406.7</ele>
        <time>2022-05-09T13:56:23Z</time>
      </trkpt>
      <trkpt lat="45.77928" lon="4.17442">
        <ele>404.9</ele>
        <time>2022-05-09T13:56:28Z</time>
      </trkpt>
      <trkpt lat="45.77928" lon="4.1744">
        <ele>403.9</ele>
        <time>2022-05-09T13:56:34Z</time>
      </trkpt>
      <trkpt lat="45.7793" lon="4.17444">
        <ele>403.2</ele>
        <time>2022-05-09T13:56:40Z</time>
      </trkpt>
      <trkpt lat="45.77934" lon="4.17451">
        <ele>433.4</ele>
        <time>2022-05-09T13:56:45Z</time>
      </trkpt>
      <trkpt lat="45.77939" lon="4.17456">
        <ele>427.8</ele>
        <time>2022-05-09T13:56:50Z</time>
      </trkpt>
      <trkpt lat="45.77943" lon="4.17455">
        <ele>432.1</ele>
        <time>2022-05-09T13:56:56Z</time>
      </trkpt>
      <trkpt lat="45.77948" lon="4.1745">
        <ele>437.7</ele>
        <time>2022-05-09T13:57:01Z</time>
      </trkpt>
      <trkpt lat="45.77953" lon="4.17447">
        <ele>438.5</ele>
        <time>2022-05-09T13:57:06Z</time>
      </trkpt>
      <trkpt lat="45.7796" lon="4.17455">
        <ele>436.7</ele>
        <time>2022-05-09T13:57:11Z</time>
      </trkpt>
      <trkpt lat="45.77962" lon="4.17473">
        <ele>434.8</ele>
        <time>2022-05-09T13:57:17Z</time>
      </trkpt>
      <trkpt lat="45.77963" lon="4.17484">
        <ele>434.4</ele>
        <time>2022-05-09T13:57:22Z</time>
      </trkpt>
      <trkpt lat="45.77961" lon="4.17505">
        <ele>430.1</ele>
        <time>2022-05-09T13:57:28Z</time>
      </trkpt>
      <trkpt lat="45.77965" lon="4.17513">
        <ele>421.2</ele>
        <time>2022-05-09T13:57:33Z</time>
      </trkpt>
      <trkpt lat="45.77968" lon="4.17522">
        <ele>421.4</ele>
        <time>2022-05-09T13:57:39Z</time>
      </trkpt>
      <trkpt lat="45.77973" lon="4.17529">
        <ele>415.9</ele>
        <time>2022-05-09T13:57:44Z</time>
      </trkpt>
      <trkpt lat="45.77978" lon="4.17535">
        <ele>417.1</ele>
        <time>2022-05-09T13:57:50Z</time>
      </trkpt>
      <trkpt lat="45.77982" lon="4.17541">
        <ele>415.7</ele>
        <time>2022-05-09T13:57:55Z</time>
      </trkpt>
      <trkpt lat="45.77987" lon="4.17546">
        <ele>415.1</ele>
        <time>2022-05-09T13:58:00Z</time>
      </trkpt>
      <trkpt lat="45.77993" lon="4.17552">
        <ele>415.9</ele>
        <time>2022-05-09T13:58:05Z</time>
      </trkpt>
      <trkpt lat="45.77999" lon="4.17558">
        <ele>415.3</ele>
        <time>2022-05-09T13:58:10Z</time>
      </trkpt>
      <trkpt lat="45.78005" lon="4.17564">
        <ele>414.4</ele>
        <time>2022-05-09T13:58:15Z</time>
      </trkpt>
      <trkpt lat="45.78011" lon="4.1757">
        <ele>414.8</ele>
        <time>2022-05-09T13:58:20Z</time>
      </trkpt>
      <trkpt lat="45.78017" lon="4.17577">
        <ele>414.1</ele>
        <time>2022-05-09T13:58:25Z</time>
      </trkpt>
      <trkpt lat="45.78022" lon="4.17585">
        <ele>412.3</ele>
        <time>2022-05-09T13:58:31Z</time>
      </trkpt>
      <trkpt lat="45.78027" lon="4.17592">
        <ele>407.2</ele>
        <time>2022-05-09T13:58:36Z</time>
      </trkpt>
      <trkpt lat="45.78031" lon="4.17599">
        <ele>406.7</ele>
        <time>2022-05-09T13:58:41Z</time>
      </trkpt>
      <trkpt lat="45.78034" lon="4.17603">
        <ele>407.9</ele>
        <time>2022-05-09T13:58:47Z</time>
      </trkpt>
      <trkpt lat="45.78034" lon="4.17603">
        <ele>406.1</ele>
        <time>2022-05-09T13:58:53Z</time>
      </trkpt>
      <trkpt lat="45.78034" lon="4.17604">
        <ele>399.6</ele>
        <time>2022-05-09T13:58:59Z</time>
      </trkpt>
      <trkpt lat="45.78036" lon="4.17604">
        <ele>398.1</ele>
        <time>2022-05-09T13:59:05Z</time>
      </trkpt>
      <trkpt lat="45.78037" lon="4.17607">
        <ele>397.9</ele>
        <time>2022-05-09T13:59:10Z</time>
      </trkpt>
      <trkpt lat="45.78039" lon="4.17607">
        <ele>398</ele>
        <time>2022-05-09T13:59:15Z</time>
      </trkpt>
      <trkpt lat="45.78038" lon="4.17605">
        <ele>398</ele>
        <time>2022-05-09T13:59:20Z</time>
      </trkpt>
      <trkpt lat="45.78038" lon="4.17604">
        <ele>398.4</ele>
        <time>2022-05-09T13:59:26Z</time>
      </trkpt>
      <trkpt lat="45.78037" lon="4.17604">
        <ele>396.7</ele>
        <time>2022-05-09T13:59:31Z</time>
      </trkpt>
      <trkpt lat="45.78032" lon="4.17603">
        <ele>395.8</ele>
        <time>2022-05-09T13:59:37Z</time>
      </trkpt>
      <trkpt lat="45.7803" lon="4.176">
        <ele>396</ele>
        <time>2022-05-09T13:59:42Z</time>
      </trkpt>
      <trkpt lat="45.78031" lon="4.17601">
        <ele>396.1</ele>
        <time>2022-05-09T13:59:47Z</time>
      </trkpt>
      <trkpt lat="45.78031" lon="4.17601">
        <ele>396.9</ele>
        <time>2022-05-09T13:59:53Z</time>
      </trkpt>
      <trkpt lat="45.78031" lon="4.176">
        <ele>397.1</ele>
        <time>2022-05-09T13:59:59Z</time>
      </trkpt>
      <trkpt lat="45.78032" lon="4.17601">
        <ele>396.8</ele>
        <time>2022-05-09T14:00:04Z</time>
      </trkpt>
      <trkpt lat="45.78037" lon="4.17605">
        <ele>395.7</ele>
        <time>2022-05-09T14:00:10Z</time>
      </trkpt>
      <trkpt lat="45.78041" lon="4.17611">
        <ele>394.8</ele>
        <time>2022-05-09T14:00:15Z</time>
      </trkpt>
      <trkpt lat="45.78044" lon="4.17616">
        <ele>395.9</ele>
        <time>2022-05-09T14:00:20Z</time>
      </trkpt>
      <trkpt lat="45.78045" lon="4.1762">
        <ele>396.7</ele>
        <time>2022-05-09T14:00:25Z</time>
      </trkpt>
      <trkpt lat="45.78048" lon="4.17625">
        <ele>396.3</ele>
        <time>2022-05-09T14:00:31Z</time>
      </trkpt>
      <trkpt lat="45.78049" lon="4.1763">
        <ele>395.2</ele>
        <time>2022-05-09T14:00:36Z</time>
      </trkpt>
      <trkpt lat="45.78051" lon="4.17635">
        <ele>395</ele>
        <time>2022-05-09T14:00:41Z</time>
      </trkpt>
      <trkpt lat="45.78053" lon="4.17641">
        <ele>393.6</ele>
        <time>2022-05-09T14:00:47Z</time>
      </trkpt>
      <trkpt lat="45.78054" lon="4.17645">
        <ele>393.9</ele>
        <time>2022-05-09T14:00:52Z</time>
      </trkpt>
      <trkpt lat="45.78057" lon="4.17649">
        <ele>394.6</ele>
        <time>2022-05-09T14:00:57Z</time>
      </trkpt>
      <trkpt lat="45.7806" lon="4.17654">
        <ele>393.2</ele>
        <time>2022-05-09T14:01:02Z</time>
      </trkpt>
      <trkpt lat="45.78063" lon="4.1766">
        <ele>393</ele>
        <time>2022-05-09T14:01:08Z</time>
      </trkpt>
      <trkpt lat="45.78067" lon="4.17665">
        <ele>393.6</ele>
        <time>2022-05-09T14:01:13Z</time>
      </trkpt>
      <trkpt lat="45.78069" lon="4.17672">
        <ele>393.6</ele>
        <time>2022-05-09T14:01:18Z</time>
      </trkpt>
      <trkpt lat="45.78071" lon="4.17679">
        <ele>394.9</ele>
        <time>2022-05-09T14:01:23Z</time>
      </trkpt>
      <trkpt lat="45.78072" lon="4.17686">
        <ele>396.1</ele>
        <time>2022-05-09T14:01:29Z</time>
      </trkpt>
      <trkpt lat="45.78076" lon="4.17691">
        <ele>396.1</ele>
        <time>2022-05-09T14:01:34Z</time>
      </trkpt>
      <trkpt lat="45.7808" lon="4.17698">
        <ele>396.9</ele>
        <time>2022-05-09T14:01:40Z</time>
      </trkpt>
      <trkpt lat="45.78083" lon="4.17702">
        <ele>397.3</ele>
        <time>2022-05-09T14:01:45Z</time>
      </trkpt>
      <trkpt lat="45.78085" lon="4.17706">
        <ele>395.7</ele>
        <time>2022-05-09T14:01:50Z</time>
      </trkpt>
      <trkpt lat="45.78086" lon="4.1771">
        <ele>396.7</ele>
        <time>2022-05-09T14:01:56Z</time>
      </trkpt>
      <trkpt lat="45.78086" lon="4.17718">
        <ele>396.8</ele>
        <time>2022-05-09T14:02:02Z</time>
      </trkpt>
      <trkpt lat="45.78086" lon="4.17724">
        <ele>396.6</ele>
        <time>2022-05-09T14:02:07Z</time>
      </trkpt>
      <trkpt lat="45.78084" lon="4.17732">
        <ele>394.5</ele>
        <time>2022-05-09T14:02:12Z</time>
      </trkpt>
      <trkpt lat="45.78084" lon="4.1774">
        <ele>397.5</ele>
        <time>2022-05-09T14:02:18Z</time>
      </trkpt>
      <trkpt lat="45.78084" lon="4.17746">
        <ele>398.1</ele>
        <time>2022-05-09T14:02:23Z</time>
      </trkpt>
      <trkpt lat="45.78084" lon="4.1775">
        <ele>396.3</ele>
        <time>2022-05-09T14:02:29Z</time>
      </trkpt>
      <trkpt lat="45.78083" lon="4.17758">
        <ele>397.1</ele>
        <time>2022-05-09T14:02:34Z</time>
      </trkpt>
      <trkpt lat="45.78088" lon="4.17763">
        <ele>397</ele>
        <time>2022-05-09T14:02:39Z</time>
      </trkpt>
      <trkpt lat="45.78089" lon="4.1777">
        <ele>399.5</ele>
        <time>2022-05-09T14:02:45Z</time>
      </trkpt>
      <trkpt lat="45.78089" lon="4.17769">
        <ele>399.8</ele>
        <time>2022-05-09T14:02:50Z</time>
      </trkpt>
      <trkpt lat="45.78087" lon="4.17777">
        <ele>399.2</ele>
        <time>2022-05-09T14:02:56Z</time>
      </trkpt>
      <trkpt lat="45.78083" lon="4.17788">
        <ele>399.6</ele>
        <time>2022-05-09T14:03:01Z</time>
      </trkpt>
      <trkpt lat="45.78077" lon="4.17799">
        <ele>591.2</ele>
        <time>2022-05-09T14:03:07Z</time>
      </trkpt>
      <trkpt lat="45.78072" lon="4.17804">
        <ele>400.6</ele>
        <time>2022-05-09T14:03:12Z</time>
      </trkpt>
      <trkpt lat="45.78065" lon="4.17805">
        <ele>400.9</ele>
        <time>2022-05-09T14:03:17Z</time>
      </trkpt>
      <trkpt lat="45.78058" lon="4.17804">
        <ele>399.6</ele>
        <time>2022-05-09T14:03:23Z</time>
      </trkpt>
      <trkpt lat="45.78054" lon="4.178">
        <ele>400.8</ele>
        <time>2022-05-09T14:03:29Z</time>
      </trkpt>
      <trkpt lat="45.78054" lon="4.17796">
        <ele>400.8</ele>
        <time>2022-05-09T14:03:34Z</time>
      </trkpt>
      <trkpt lat="45.78053" lon="4.17798">
        <ele>399.3</ele>
        <time>2022-05-09T14:03:40Z</time>
      </trkpt>
      <trkpt lat="45.78049" lon="4.17799">
        <ele>400.2</ele>
        <time>2022-05-09T14:03:45Z</time>
      </trkpt>
      <trkpt lat="45.7804" lon="4.17805">
        <ele>400.1</ele>
        <time>2022-05-09T14:03:50Z</time>
      </trkpt>
      <trkpt lat="45.78034" lon="4.17815">
        <ele>400.3</ele>
        <time>2022-05-09T14:03:55Z</time>
      </trkpt>
      <trkpt lat="45.78029" lon="4.17823">
        <ele>401.6</ele>
        <time>2022-05-09T14:04:01Z</time>
      </trkpt>
      <trkpt lat="45.78026" lon="4.17831">
        <ele>398.2</ele>
        <time>2022-05-09T14:04:06Z</time>
      </trkpt>
      <trkpt lat="45.7802" lon="4.17844">
        <ele>397.6</ele>
        <time>2022-05-09T14:04:12Z</time>
      </trkpt>
      <trkpt lat="45.78013" lon="4.17853">
        <ele>393.5</ele>
        <time>2022-05-09T14:04:17Z</time>
      </trkpt>
      <trkpt lat="45.78005" lon="4.17858">
        <ele>393.2</ele>
        <time>2022-05-09T14:04:22Z</time>
      </trkpt>
      <trkpt lat="45.77997" lon="4.17861">
        <ele>392.9</ele>
        <time>2022-05-09T14:04:28Z</time>
      </trkpt>
      <trkpt lat="45.77989" lon="4.17864">
        <ele>386.4</ele>
        <time>2022-05-09T14:04:33Z</time>
      </trkpt>
      <trkpt lat="45.77983" lon="4.17869">
        <ele>389.8</ele>
        <time>2022-05-09T14:04:39Z</time>
      </trkpt>
      <trkpt lat="45.7798" lon="4.17874">
        <ele>391.4</ele>
        <time>2022-05-09T14:04:44Z</time>
      </trkpt>
      <trkpt lat="45.77976" lon="4.1788">
        <ele>391.4</ele>
        <time>2022-05-09T14:04:49Z</time>
      </trkpt>
      <trkpt lat="45.77972" lon="4.17886">
        <ele>389.6</ele>
        <time>2022-05-09T14:04:54Z</time>
      </trkpt>
      <trkpt lat="45.77968" lon="4.17891">
        <ele>388.7</ele>
        <time>2022-05-09T14:04:59Z</time>
      </trkpt>
      <trkpt lat="45.7796" lon="4.17897">
        <ele>387.9</ele>
        <time>2022-05-09T14:05:06Z</time>
      </trkpt>
      <trkpt lat="45.77955" lon="4.17902">
        <ele>389.6</ele>
        <time>2022-05-09T14:05:11Z</time>
      </trkpt>
      <trkpt lat="45.7795" lon="4.17908">
        <ele>390.8</ele>
        <time>2022-05-09T14:05:16Z</time>
      </trkpt>
      <trkpt lat="45.77946" lon="4.17915">
        <ele>391.3</ele>
        <time>2022-05-09T14:05:21Z</time>
      </trkpt>
      <trkpt lat="45.77942" lon="4.17921">
        <ele>391.7</ele>
        <time>2022-05-09T14:05:26Z</time>
      </trkpt>
      <trkpt lat="45.77937" lon="4.17927">
        <ele>391.9</ele>
        <time>2022-05-09T14:05:32Z</time>
      </trkpt>
      <trkpt lat="45.77933" lon="4.17932">
        <ele>391.5</ele>
        <time>2022-05-09T14:05:37Z</time>
      </trkpt>
      <trkpt lat="45.77929" lon="4.17938">
        <ele>392.9</ele>
        <time>2022-05-09T14:05:42Z</time>
      </trkpt>
      <trkpt lat="45.77925" lon="4.17945">
        <ele>391.9</ele>
        <time>2022-05-09T14:05:48Z</time>
      </trkpt>
      <trkpt lat="45.77919" lon="4.17948">
        <ele>390.6</ele>
        <time>2022-05-09T14:05:53Z</time>
      </trkpt>
      <trkpt lat="45.77913" lon="4.17945">
        <ele>392.3</ele>
        <time>2022-05-09T14:05:59Z</time>
      </trkpt>
      <trkpt lat="45.77908" lon="4.17945">
        <ele>393.3</ele>
        <time>2022-05-09T14:06:04Z</time>
      </trkpt>
      <trkpt lat="45.77902" lon="4.17946">
        <ele>390.5</ele>
        <time>2022-05-09T14:06:09Z</time>
      </trkpt>
      <trkpt lat="45.77897" lon="4.17948">
        <ele>392.9</ele>
        <time>2022-05-09T14:06:14Z</time>
      </trkpt>
      <trkpt lat="45.77891" lon="4.1795">
        <ele>391.7</ele>
        <time>2022-05-09T14:06:20Z</time>
      </trkpt>
      <trkpt lat="45.77886" lon="4.17951">
        <ele>393</ele>
        <time>2022-05-09T14:06:25Z</time>
      </trkpt>
      <trkpt lat="45.77881" lon="4.17955">
        <ele>390.3</ele>
        <time>2022-05-09T14:06:30Z</time>
      </trkpt>
      <trkpt lat="45.77875" lon="4.1796">
        <ele>391.6</ele>
        <time>2022-05-09T14:06:36Z</time>
      </trkpt>
      <trkpt lat="45.77869" lon="4.17963">
        <ele>391.2</ele>
        <time>2022-05-09T14:06:41Z</time>
      </trkpt>
      <trkpt lat="45.77864" lon="4.17965">
        <ele>394</ele>
        <time>2022-05-09T14:06:46Z</time>
      </trkpt>
      <trkpt lat="45.77858" lon="4.17966">
        <ele>392.2</ele>
        <time>2022-05-09T14:06:51Z</time>
      </trkpt>
      <trkpt lat="45.77853" lon="4.17967">
        <ele>393.1</ele>
        <time>2022-05-09T14:06:57Z</time>
      </trkpt>
      <trkpt lat="45.77849" lon="4.17969">
        <ele>391.5</ele>
        <time>2022-05-09T14:07:02Z</time>
      </trkpt>
      <trkpt lat="45.77844" lon="4.1797">
        <ele>393.9</ele>
        <time>2022-05-09T14:07:07Z</time>
      </trkpt>
      <trkpt lat="45.7784" lon="4.17971">
        <ele>391.2</ele>
        <time>2022-05-09T14:07:13Z</time>
      </trkpt>
      <trkpt lat="45.77836" lon="4.17976">
        <ele>389.9</ele>
        <time>2022-05-09T14:07:18Z</time>
      </trkpt>
      <trkpt lat="45.77832" lon="4.17982">
        <ele>386.4</ele>
        <time>2022-05-09T14:07:23Z</time>
      </trkpt>
      <trkpt lat="45.7783" lon="4.17987">
        <ele>385.6</ele>
        <time>2022-05-09T14:07:28Z</time>
      </trkpt>
      <trkpt lat="45.7783" lon="4.17986">
        <ele>384.6</ele>
        <time>2022-05-09T14:07:34Z</time>
      </trkpt>
      <trkpt lat="45.77828" lon="4.17985">
        <ele>383.8</ele>
        <time>2022-05-09T14:07:39Z</time>
      </trkpt>
      <trkpt lat="45.77822" lon="4.17989">
        <ele>387.7</ele>
        <time>2022-05-09T14:07:45Z</time>
      </trkpt>
      <trkpt lat="45.77815" lon="4.17993">
        <ele>390.5</ele>
        <time>2022-05-09T14:07:50Z</time>
      </trkpt>
      <trkpt lat="45.77809" lon="4.17996">
        <ele>396.5</ele>
        <time>2022-05-09T14:07:55Z</time>
      </trkpt>
      <trkpt lat="45.77807" lon="4.18001">
        <ele>394</ele>
        <time>2022-05-09T14:08:00Z</time>
      </trkpt>
      <trkpt lat="45.77807" lon="4.18006">
        <ele>398.7</ele>
        <time>2022-05-09T14:08:05Z</time>
      </trkpt>
      <trkpt lat="45.77805" lon="4.18011">
        <ele>398.8</ele>
        <time>2022-05-09T14:08:10Z</time>
      </trkpt>
      <trkpt lat="45.77801" lon="4.18014">
        <ele>398.9</ele>
        <time>2022-05-09T14:08:16Z</time>
      </trkpt>
      <trkpt lat="45.77796" lon="4.18014">
        <ele>396.8</ele>
        <time>2022-05-09T14:08:21Z</time>
      </trkpt>
      <trkpt lat="45.7779" lon="4.18016">
        <ele>397.2</ele>
        <time>2022-05-09T14:08:26Z</time>
      </trkpt>
      <trkpt lat="45.77784" lon="4.18023">
        <ele>398.2</ele>
        <time>2022-05-09T14:08:32Z</time>
      </trkpt>
      <trkpt lat="45.77779" lon="4.18034">
        <ele>394.4</ele>
        <time>2022-05-09T14:08:37Z</time>
      </trkpt>
      <trkpt lat="45.77774" lon="4.18044">
        <ele>395</ele>
        <time>2022-05-09T14:08:42Z</time>
      </trkpt>
      <trkpt lat="45.77767" lon="4.18053">
        <ele>398.5</ele>
        <time>2022-05-09T14:08:48Z</time>
      </trkpt>
      <trkpt lat="45.7776" lon="4.18059">
        <ele>379</ele>
        <time>2022-05-09T14:08:53Z</time>
      </trkpt>
      <trkpt lat="45.77755" lon="4.18067">
        <ele>379.4</ele>
        <time>2022-05-09T14:08:58Z</time>
      </trkpt>
      <trkpt lat="45.7775" lon="4.18072">
        <ele>379</ele>
        <time>2022-05-09T14:09:04Z</time>
      </trkpt>
      <trkpt lat="45.77748" lon="4.18078">
        <ele>379.4</ele>
        <time>2022-05-09T14:09:09Z</time>
      </trkpt>
      <trkpt lat="45.77744" lon="4.18084">
        <ele>379.8</ele>
        <time>2022-05-09T14:09:14Z</time>
      </trkpt>
      <trkpt lat="45.77736" lon="4.18086">
        <ele>379</ele>
        <time>2022-05-09T14:09:19Z</time>
      </trkpt>
      <trkpt lat="45.7773" lon="4.18093">
        <ele>377.5</ele>
        <time>2022-05-09T14:09:25Z</time>
      </trkpt>
      <trkpt lat="45.77732" lon="4.18093">
        <ele>376.7</ele>
        <time>2022-05-09T14:09:31Z</time>
      </trkpt>
      <trkpt lat="45.77731" lon="4.18094">
        <ele>377.7</ele>
        <time>2022-05-09T14:09:36Z</time>
      </trkpt>
      <trkpt lat="45.77729" lon="4.18096">
        <ele>378.5</ele>
        <time>2022-05-09T14:09:41Z</time>
      </trkpt>
      <trkpt lat="45.77726" lon="4.18099">
        <ele>379</ele>
        <time>2022-05-09T14:09:47Z</time>
      </trkpt>
      <trkpt lat="45.77725" lon="4.18102">
        <ele>379.8</ele>
        <time>2022-05-09T14:09:52Z</time>
      </trkpt>
      <trkpt lat="45.77722" lon="4.18105">
        <ele>379.4</ele>
        <time>2022-05-09T14:09:57Z</time>
      </trkpt>
      <trkpt lat="45.77719" lon="4.18107">
        <ele>378.2</ele>
        <time>2022-05-09T14:10:03Z</time>
      </trkpt>
      <trkpt lat="45.77719" lon="4.18106">
        <ele>376.6</ele>
        <time>2022-05-09T14:10:09Z</time>
      </trkpt>
      <trkpt lat="45.77714" lon="4.18108">
        <ele>376.2</ele>
        <time>2022-05-09T14:10:14Z</time>
      </trkpt>
      <trkpt lat="45.77708" lon="4.18112">
        <ele>376.8</ele>
        <time>2022-05-09T14:10:19Z</time>
      </trkpt>
      <trkpt lat="45.77701" lon="4.18115">
        <ele>376.7</ele>
        <time>2022-05-09T14:10:24Z</time>
      </trkpt>
      <trkpt lat="45.77694" lon="4.18115">
        <ele>377.3</ele>
        <time>2022-05-09T14:10:30Z</time>
      </trkpt>
      <trkpt lat="45.77688" lon="4.18111">
        <ele>378</ele>
        <time>2022-05-09T14:10:35Z</time>
      </trkpt>
      <trkpt lat="45.77684" lon="4.18103">
        <ele>376.8</ele>
        <time>2022-05-09T14:10:40Z</time>
      </trkpt>
      <trkpt lat="45.77683" lon="4.18094">
        <ele>376.5</ele>
        <time>2022-05-09T14:10:46Z</time>
      </trkpt>
      <trkpt lat="45.7768" lon="4.18085">
        <ele>376.9</ele>
        <time>2022-05-09T14:10:51Z</time>
      </trkpt>
      <trkpt lat="45.77677" lon="4.18077">
        <ele>374.6</ele>
        <time>2022-05-09T14:10:57Z</time>
      </trkpt>
      <trkpt lat="45.77673" lon="4.1807">
        <ele>374.8</ele>
        <time>2022-05-09T14:11:02Z</time>
      </trkpt>
      <trkpt lat="45.77669" lon="4.18064">
        <ele>383.2</ele>
        <time>2022-05-09T14:11:07Z</time>
      </trkpt>
      <trkpt lat="45.77666" lon="4.18059">
        <ele>383.8</ele>
        <time>2022-05-09T14:11:12Z</time>
      </trkpt>
      <trkpt lat="45.77664" lon="4.18051">
        <ele>384.4</ele>
        <time>2022-05-09T14:11:18Z</time>
      </trkpt>
      <trkpt lat="45.77661" lon="4.18043">
        <ele>387.8</ele>
        <time>2022-05-09T14:11:23Z</time>
      </trkpt>
      <trkpt lat="45.77658" lon="4.18034">
        <ele>389</ele>
        <time>2022-05-09T14:11:28Z</time>
      </trkpt>
      <trkpt lat="45.77655" lon="4.18025">
        <ele>387.8</ele>
        <time>2022-05-09T14:11:34Z</time>
      </trkpt>
      <trkpt lat="45.77653" lon="4.18016">
        <ele>382.7</ele>
        <time>2022-05-09T14:11:39Z</time>
      </trkpt>
      <trkpt lat="45.77649" lon="4.18008">
        <ele>374.4</ele>
        <time>2022-05-09T14:11:45Z</time>
      </trkpt>
      <trkpt lat="45.77644" lon="4.18001">
        <ele>374.3</ele>
        <time>2022-05-09T14:11:50Z</time>
      </trkpt>
      <trkpt lat="45.77641" lon="4.17992">
        <ele>372.7</ele>
        <time>2022-05-09T14:11:56Z</time>
      </trkpt>
      <trkpt lat="45.77639" lon="4.17983">
        <ele>373.3</ele>
        <time>2022-05-09T14:12:01Z</time>
      </trkpt>
      <trkpt lat="45.77637" lon="4.17975">
        <ele>372.2</ele>
        <time>2022-05-09T14:12:06Z</time>
      </trkpt>
      <trkpt lat="45.77632" lon="4.17968">
        <ele>372.6</ele>
        <time>2022-05-09T14:12:12Z</time>
      </trkpt>
      <trkpt lat="45.77627" lon="4.17966">
        <ele>389.6</ele>
        <time>2022-05-09T14:12:17Z</time>
      </trkpt>
      <trkpt lat="45.7762" lon="4.17971">
        <ele>392.4</ele>
        <time>2022-05-09T14:12:23Z</time>
      </trkpt>
      <trkpt lat="45.77617" lon="4.17981">
        <ele>392.1</ele>
        <time>2022-05-09T14:12:28Z</time>
      </trkpt>
      <trkpt lat="45.77616" lon="4.17987">
        <ele>396.7</ele>
        <time>2022-05-09T14:12:33Z</time>
      </trkpt>
      <trkpt lat="45.77616" lon="4.17989">
        <ele>381.3</ele>
        <time>2022-05-09T14:12:39Z</time>
      </trkpt>
      <trkpt lat="45.77617" lon="4.1799">
        <ele>392.1</ele>
        <time>2022-05-09T14:12:44Z</time>
      </trkpt>
      <trkpt lat="45.77617" lon="4.17991">
        <ele>390.7</ele>
        <time>2022-05-09T14:12:50Z</time>
      </trkpt>
      <trkpt lat="45.77617" lon="4.17991">
        <ele>392.2</ele>
        <time>2022-05-09T14:12:56Z</time>
      </trkpt>
      <trkpt lat="45.77614" lon="4.17989">
        <ele>393.7</ele>
        <time>2022-05-09T14:13:01Z</time>
      </trkpt>
      <trkpt lat="45.77606" lon="4.17988">
        <ele>393.5</ele>
        <time>2022-05-09T14:13:07Z</time>
      </trkpt>
      <trkpt lat="45.77597" lon="4.17989">
        <ele>390.4</ele>
        <time>2022-05-09T14:13:12Z</time>
      </trkpt>
      <trkpt lat="45.7759" lon="4.17988">
        <ele>391.3</ele>
        <time>2022-05-09T14:13:18Z</time>
      </trkpt>
      <trkpt lat="45.77583" lon="4.17986">
        <ele>392.4</ele>
        <time>2022-05-09T14:13:24Z</time>
      </trkpt>
      <trkpt lat="45.77578" lon="4.17987">
        <ele>396.3</ele>
        <time>2022-05-09T14:13:29Z</time>
      </trkpt>
      <trkpt lat="45.77574" lon="4.17993">
        <ele>396.7</ele>
        <time>2022-05-09T14:13:34Z</time>
      </trkpt>
      <trkpt lat="45.7757" lon="4.18003">
        <ele>395.6</ele>
        <time>2022-05-09T14:13:40Z</time>
      </trkpt>
      <trkpt lat="45.77564" lon="4.1801">
        <ele>397.3</ele>
        <time>2022-05-09T14:13:45Z</time>
      </trkpt>
      <trkpt lat="45.7756" lon="4.18018">
        <ele>398</ele>
        <time>2022-05-09T14:13:50Z</time>
      </trkpt>
      <trkpt lat="45.77556" lon="4.18024">
        <ele>398.8</ele>
        <time>2022-05-09T14:13:55Z</time>
      </trkpt>
      <trkpt lat="45.77552" lon="4.18029">
        <ele>399.8</ele>
        <time>2022-05-09T14:14:01Z</time>
      </trkpt>
      <trkpt lat="45.77547" lon="4.18032">
        <ele>400.1</ele>
        <time>2022-05-09T14:14:06Z</time>
      </trkpt>
      <trkpt lat="45.77542" lon="4.18035">
        <ele>400.8</ele>
        <time>2022-05-09T14:14:12Z</time>
      </trkpt>
      <trkpt lat="45.77536" lon="4.18037">
        <ele>398</ele>
        <time>2022-05-09T14:14:17Z</time>
      </trkpt>
      <trkpt lat="45.77532" lon="4.18032">
        <ele>396.4</ele>
        <time>2022-05-09T14:14:22Z</time>
      </trkpt>
      <trkpt lat="45.77525" lon="4.18025">
        <ele>396.4</ele>
        <time>2022-05-09T14:14:28Z</time>
      </trkpt>
      <trkpt lat="45.77519" lon="4.18026">
        <ele>394.8</ele>
        <time>2022-05-09T14:14:33Z</time>
      </trkpt>
      <trkpt lat="45.77513" lon="4.1803">
        <ele>397.5</ele>
        <time>2022-05-09T14:14:39Z</time>
      </trkpt>
      <trkpt lat="45.77507" lon="4.18033">
        <ele>397.4</ele>
        <time>2022-05-09T14:14:45Z</time>
      </trkpt>
      <trkpt lat="45.77503" lon="4.18036">
        <ele>401</ele>
        <time>2022-05-09T14:14:50Z</time>
      </trkpt>
      <trkpt lat="45.77499" lon="4.18042">
        <ele>400.8</ele>
        <time>2022-05-09T14:14:56Z</time>
      </trkpt>
      <trkpt lat="45.77496" lon="4.18046">
        <ele>399.7</ele>
        <time>2022-05-09T14:15:01Z</time>
      </trkpt>
      <trkpt lat="45.77495" lon="4.18052">
        <ele>401.5</ele>
        <time>2022-05-09T14:15:06Z</time>
      </trkpt>
      <trkpt lat="45.77497" lon="4.18062">
        <ele>401.4</ele>
        <time>2022-05-09T14:15:11Z</time>
      </trkpt>
      <trkpt lat="45.77503" lon="4.18076">
        <ele>401.6</ele>
        <time>2022-05-09T14:15:17Z</time>
      </trkpt>
      <trkpt lat="45.77509" lon="4.18089">
        <ele>401.6</ele>
        <time>2022-05-09T14:15:22Z</time>
      </trkpt>
      <trkpt lat="45.77514" lon="4.18099">
        <ele>402.1</ele>
        <time>2022-05-09T14:15:27Z</time>
      </trkpt>
      <trkpt lat="45.77518" lon="4.18108">
        <ele>401.3</ele>
        <time>2022-05-09T14:15:32Z</time>
      </trkpt>
      <trkpt lat="45.77522" lon="4.18117">
        <ele>400.7</ele>
        <time>2022-05-09T14:15:38Z</time>
      </trkpt>
      <trkpt lat="45.77524" lon="4.18125">
        <ele>401.8</ele>
        <time>2022-05-09T14:15:43Z</time>
      </trkpt>
      <trkpt lat="45.77526" lon="4.18133">
        <ele>401.8</ele>
        <time>2022-05-09T14:15:48Z</time>
      </trkpt>
      <trkpt lat="45.77522" lon="4.1814">
        <ele>398.9</ele>
        <time>2022-05-09T14:15:53Z</time>
      </trkpt>
      <trkpt lat="45.77511" lon="4.18146">
        <ele>400</ele>
        <time>2022-05-09T14:15:58Z</time>
      </trkpt>
      <trkpt lat="45.77496" lon="4.18148">
        <ele>399.4</ele>
        <time>2022-05-09T14:16:04Z</time>
      </trkpt>
      <trkpt lat="45.77482" lon="4.18145">
        <ele>399.3</ele>
        <time>2022-05-09T14:16:09Z</time>
      </trkpt>
      <trkpt lat="45.77471" lon="4.18139">
        <ele>400</ele>
        <time>2022-05-09T14:16:14Z</time>
      </trkpt>
      <trkpt lat="45.77459" lon="4.18128">
        <ele>399.5</ele>
        <time>2022-05-09T14:16:20Z</time>
      </trkpt>
      <trkpt lat="45.7745" lon="4.18122">
        <ele>402.7</ele>
        <time>2022-05-09T14:16:25Z</time>
      </trkpt>
      <trkpt lat="45.77441" lon="4.18116">
        <ele>402.7</ele>
        <time>2022-05-09T14:16:30Z</time>
      </trkpt>
      <trkpt lat="45.77433" lon="4.18114">
        <ele>400</ele>
        <time>2022-05-09T14:16:36Z</time>
      </trkpt>
      <trkpt lat="45.77423" lon="4.18118">
        <ele>399.4</ele>
        <time>2022-05-09T14:16:42Z</time>
      </trkpt>
      <trkpt lat="45.77413" lon="4.18124">
        <ele>399.4</ele>
        <time>2022-05-09T14:16:47Z</time>
      </trkpt>
      <trkpt lat="45.77406" lon="4.18131">
        <ele>399</ele>
        <time>2022-05-09T14:16:52Z</time>
      </trkpt>
      <trkpt lat="45.77399" lon="4.18138">
        <ele>399.3</ele>
        <time>2022-05-09T14:16:58Z</time>
      </trkpt>
      <trkpt lat="45.77394" lon="4.18145">
        <ele>399.9</ele>
        <time>2022-05-09T14:17:03Z</time>
      </trkpt>
      <trkpt lat="45.77391" lon="4.18154">
        <ele>384</ele>
        <time>2022-05-09T14:17:08Z</time>
      </trkpt>
      <trkpt lat="45.77387" lon="4.18163">
        <ele>397.9</ele>
        <time>2022-05-09T14:17:14Z</time>
      </trkpt>
      <trkpt lat="45.77383" lon="4.18168">
        <ele>397.5</ele>
        <time>2022-05-09T14:17:19Z</time>
      </trkpt>
      <trkpt lat="45.77378" lon="4.18174">
        <ele>397.9</ele>
        <time>2022-05-09T14:17:25Z</time>
      </trkpt>
      <trkpt lat="45.77371" lon="4.18176">
        <ele>398.8</ele>
        <time>2022-05-09T14:17:30Z</time>
      </trkpt>
      <trkpt lat="45.77357" lon="4.18172">
        <ele>395.5</ele>
        <time>2022-05-09T14:17:35Z</time>
      </trkpt>
      <trkpt lat="45.77346" lon="4.18174">
        <ele>392</ele>
        <time>2022-05-09T14:17:40Z</time>
      </trkpt>
      <trkpt lat="45.77339" lon="4.18177">
        <ele>393.8</ele>
        <time>2022-05-09T14:17:45Z</time>
      </trkpt>
      <trkpt lat="45.77332" lon="4.18178">
        <ele>398.3</ele>
        <time>2022-05-09T14:17:50Z</time>
      </trkpt>
      <trkpt lat="45.77325" lon="4.18177">
        <ele>399</ele>
        <time>2022-05-09T14:17:56Z</time>
      </trkpt>
      <trkpt lat="45.77319" lon="4.18175">
        <ele>399.6</ele>
        <time>2022-05-09T14:18:01Z</time>
      </trkpt>
      <trkpt lat="45.77313" lon="4.18175">
        <ele>396.7</ele>
        <time>2022-05-09T14:18:06Z</time>
      </trkpt>
      <trkpt lat="45.77309" lon="4.182">
        <ele>398.2</ele>
        <time>2022-05-09T14:18:12Z</time>
      </trkpt>
      <trkpt lat="45.77307" lon="4.18213">
        <ele>398.3</ele>
        <time>2022-05-09T14:18:17Z</time>
      </trkpt>
      <trkpt lat="45.77307" lon="4.18215">
        <ele>378.4</ele>
        <time>2022-05-09T14:18:22Z</time>
      </trkpt>
      <trkpt lat="45.77307" lon="4.18217">
        <ele>379.6</ele>
        <time>2022-05-09T14:18:28Z</time>
      </trkpt>
      <trkpt lat="45.77304" lon="4.18219">
        <ele>379</ele>
        <time>2022-05-09T14:18:33Z</time>
      </trkpt>
      <trkpt lat="45.77298" lon="4.18218">
        <ele>380.2</ele>
        <time>2022-05-09T14:18:38Z</time>
      </trkpt>
      <trkpt lat="45.77294" lon="4.18223">
        <ele>379.3</ele>
        <time>2022-05-09T14:18:43Z</time>
      </trkpt>
      <trkpt lat="45.77293" lon="4.18233">
        <ele>378.9</ele>
        <time>2022-05-09T14:18:48Z</time>
      </trkpt>
      <trkpt lat="45.77294" lon="4.18242">
        <ele>378.4</ele>
        <time>2022-05-09T14:18:54Z</time>
      </trkpt>
      <trkpt lat="45.77295" lon="4.18248">
        <ele>378.4</ele>
        <time>2022-05-09T14:18:59Z</time>
      </trkpt>
      <trkpt lat="45.77294" lon="4.18248">
        <ele>378.3</ele>
        <time>2022-05-09T14:19:05Z</time>
      </trkpt>
      <trkpt lat="45.77291" lon="4.18247">
        <ele>378.2</ele>
        <time>2022-05-09T14:19:10Z</time>
      </trkpt>
      <trkpt lat="45.77283" lon="4.18248">
        <ele>378.9</ele>
        <time>2022-05-09T14:19:15Z</time>
      </trkpt>
      <trkpt lat="45.77267" lon="4.18254">
        <ele>376.6</ele>
        <time>2022-05-09T14:19:21Z</time>
      </trkpt>
      <trkpt lat="45.77256" lon="4.18259">
        <ele>375.2</ele>
        <time>2022-05-09T14:19:26Z</time>
      </trkpt>
      <trkpt lat="45.77245" lon="4.18262">
        <ele>375.1</ele>
        <time>2022-05-09T14:19:31Z</time>
      </trkpt>
      <trkpt lat="45.77236" lon="4.18263">
        <ele>376.1</ele>
        <time>2022-05-09T14:19:37Z</time>
      </trkpt>
      <trkpt lat="45.77227" lon="4.18261">
        <ele>375.3</ele>
        <time>2022-05-09T14:19:42Z</time>
      </trkpt>
      <trkpt lat="45.77215" lon="4.1826">
        <ele>373.8</ele>
        <time>2022-05-09T14:19:48Z</time>
      </trkpt>
      <trkpt lat="45.77209" lon="4.18262">
        <ele>391.3</ele>
        <time>2022-05-09T14:19:53Z</time>
      </trkpt>
      <trkpt lat="45.77204" lon="4.18262">
        <ele>391.1</ele>
        <time>2022-05-09T14:19:59Z</time>
      </trkpt>
      <trkpt lat="45.77198" lon="4.1826">
        <ele>392.7</ele>
        <time>2022-05-09T14:20:04Z</time>
      </trkpt>
      <trkpt lat="45.77192" lon="4.18261">
        <ele>392.7</ele>
        <time>2022-05-09T14:20:09Z</time>
      </trkpt>
      <trkpt lat="45.77186" lon="4.18262">
        <ele>374.4</ele>
        <time>2022-05-09T14:20:14Z</time>
      </trkpt>
      <trkpt lat="45.7718" lon="4.18263">
        <ele>374.7</ele>
        <time>2022-05-09T14:20:19Z</time>
      </trkpt>
      <trkpt lat="45.77174" lon="4.18272">
        <ele>385.1</ele>
        <time>2022-05-09T14:20:25Z</time>
      </trkpt>
      <trkpt lat="45.7717" lon="4.1828">
        <ele>385.1</ele>
        <time>2022-05-09T14:20:30Z</time>
      </trkpt>
      <trkpt lat="45.77164" lon="4.1828">
        <ele>385.1</ele>
        <time>2022-05-09T14:20:36Z</time>
      </trkpt>
      <trkpt lat="45.77159" lon="4.18279">
        <ele>385.1</ele>
        <time>2022-05-09T14:20:41Z</time>
      </trkpt>
      <trkpt lat="45.77159" lon="4.1828">
        <ele>385.1</ele>
        <time>2022-05-09T14:20:46Z</time>
      </trkpt>
      <trkpt lat="45.77161" lon="4.18286">
        <ele>385.1</ele>
        <time>2022-05-09T14:20:52Z</time>
      </trkpt>
      <trkpt lat="45.77158" lon="4.18293">
        <ele>385.1</ele>
        <time>2022-05-09T14:20:57Z</time>
      </trkpt>
      <trkpt lat="45.77152" lon="4.18298">
        <ele>385.1</ele>
        <time>2022-05-09T14:21:03Z</time>
      </trkpt>
      <trkpt lat="45.7715" lon="4.18302">
        <ele>385.1</ele>
        <time>2022-05-09T14:21:08Z</time>
      </trkpt>
      <trkpt lat="45.7715" lon="4.18302">
        <ele>385.1</ele>
        <time>2022-05-09T14:21:14Z</time>
      </trkpt>
      <trkpt lat="45.77151" lon="4.18303">
        <ele>385.1</ele>
        <time>2022-05-09T14:21:19Z</time>
      </trkpt>
      <trkpt lat="45.77151" lon="4.18308">
        <ele>385.1</ele>
        <time>2022-05-09T14:21:25Z</time>
      </trkpt>
      <trkpt lat="45.77147" lon="4.18314">
        <ele>385.1</ele>
        <time>2022-05-09T14:21:30Z</time>
      </trkpt>
      <trkpt lat="45.77145" lon="4.1832">
        <ele>391.4</ele>
        <time>2022-05-09T14:21:35Z</time>
      </trkpt>
      <trkpt lat="45.77146" lon="4.18327">
        <ele>389.5</ele>
        <time>2022-05-09T14:21:40Z</time>
      </trkpt>
      <trkpt lat="45.77146" lon="4.1833">
        <ele>388.8</ele>
        <time>2022-05-09T14:21:46Z</time>
      </trkpt>
      <trkpt lat="45.77147" lon="4.18328">
        <ele>388.1</ele>
        <time>2022-05-09T14:21:51Z</time>
      </trkpt>
      <trkpt lat="45.77148" lon="4.18329">
        <ele>387</ele>
        <time>2022-05-09T14:21:56Z</time>
      </trkpt>
      <trkpt lat="45.77151" lon="4.18336">
        <ele>390</ele>
        <time>2022-05-09T14:22:02Z</time>
      </trkpt>
      <trkpt lat="45.77151" lon="4.18346">
        <ele>380.6</ele>
        <time>2022-05-09T14:22:07Z</time>
      </trkpt>
      <trkpt lat="45.77152" lon="4.18355">
        <ele>385.7</ele>
        <time>2022-05-09T14:22:12Z</time>
      </trkpt>
      <trkpt lat="45.77155" lon="4.18361">
        <ele>390.5</ele>
        <time>2022-05-09T14:22:17Z</time>
      </trkpt>
      <trkpt lat="45.77158" lon="4.18369">
        <ele>392.4</ele>
        <time>2022-05-09T14:22:23Z</time>
      </trkpt>
      <trkpt lat="45.77159" lon="4.18376">
        <ele>389.2</ele>
        <time>2022-05-09T14:22:28Z</time>
      </trkpt>
      <trkpt lat="45.77161" lon="4.18383">
        <ele>390</ele>
        <time>2022-05-09T14:22:34Z</time>
      </trkpt>
      <trkpt lat="45.77164" lon="4.18391">
        <ele>378</ele>
        <time>2022-05-09T14:22:39Z</time>
      </trkpt>
      <trkpt lat="45.77168" lon="4.18398">
        <ele>377.4</ele>
        <time>2022-05-09T14:22:45Z</time>
      </trkpt>
      <trkpt lat="45.77172" lon="4.18403">
        <ele>390.4</ele>
        <time>2022-05-09T14:22:50Z</time>
      </trkpt>
      <trkpt lat="45.77177" lon="4.18407">
        <ele>391.5</ele>
        <time>2022-05-09T14:22:55Z</time>
      </trkpt>
      <trkpt lat="45.77181" lon="4.18412">
        <ele>391.8</ele>
        <time>2022-05-09T14:23:01Z</time>
      </trkpt>
      <trkpt lat="45.77187" lon="4.18414">
        <ele>392.8</ele>
        <time>2022-05-09T14:23:06Z</time>
      </trkpt>
      <trkpt lat="45.77194" lon="4.18415">
        <ele>398.1</ele>
        <time>2022-05-09T14:23:11Z</time>
      </trkpt>
      <trkpt lat="45.77199" lon="4.18414">
        <ele>399.7</ele>
        <time>2022-05-09T14:23:17Z</time>
      </trkpt>
      <trkpt lat="45.77205" lon="4.18418">
        <ele>396.5</ele>
        <time>2022-05-09T14:23:22Z</time>
      </trkpt>
      <trkpt lat="45.77209" lon="4.18426">
        <ele>397.8</ele>
        <time>2022-05-09T14:23:27Z</time>
      </trkpt>
      <trkpt lat="45.77214" lon="4.18435">
        <ele>398.1</ele>
        <time>2022-05-09T14:23:33Z</time>
      </trkpt>
      <trkpt lat="45.7722" lon="4.18442">
        <ele>398.1</ele>
        <time>2022-05-09T14:23:38Z</time>
      </trkpt>
      <trkpt lat="45.77226" lon="4.18445">
        <ele>398.4</ele>
        <time>2022-05-09T14:23:44Z</time>
      </trkpt>
      <trkpt lat="45.77233" lon="4.18448">
        <ele>399.8</ele>
        <time>2022-05-09T14:23:49Z</time>
      </trkpt>
      <trkpt lat="45.7724" lon="4.1845">
        <ele>379.4</ele>
        <time>2022-05-09T14:23:54Z</time>
      </trkpt>
      <trkpt lat="45.77244" lon="4.18453">
        <ele>398.2</ele>
        <time>2022-05-09T14:23:59Z</time>
      </trkpt>
      <trkpt lat="45.77251" lon="4.18457">
        <ele>399.1</ele>
        <time>2022-05-09T14:24:05Z</time>
      </trkpt>
      <trkpt lat="45.77257" lon="4.18461">
        <ele>400.6</ele>
        <time>2022-05-09T14:24:11Z</time>
      </trkpt>
      <trkpt lat="45.77262" lon="4.18469">
        <ele>400.4</ele>
        <time>2022-05-09T14:24:16Z</time>
      </trkpt>
      <trkpt lat="45.77266" lon="4.18474">
        <ele>378.7</ele>
        <time>2022-05-09T14:24:22Z</time>
      </trkpt>
      <trkpt lat="45.77271" lon="4.1848">
        <ele>378.8</ele>
        <time>2022-05-09T14:24:27Z</time>
      </trkpt>
      <trkpt lat="45.77275" lon="4.18486">
        <ele>379</ele>
        <time>2022-05-09T14:24:33Z</time>
      </trkpt>
      <trkpt lat="45.77279" lon="4.18491">
        <ele>378.8</ele>
        <time>2022-05-09T14:24:38Z</time>
      </trkpt>
      <trkpt lat="45.77285" lon="4.18493">
        <ele>398.9</ele>
        <time>2022-05-09T14:24:43Z</time>
      </trkpt>
      <trkpt lat="45.77291" lon="4.18494">
        <ele>398</ele>
        <time>2022-05-09T14:24:48Z</time>
      </trkpt>
      <trkpt lat="45.77296" lon="4.18493">
        <ele>398.2</ele>
        <time>2022-05-09T14:24:54Z</time>
      </trkpt>
      <trkpt lat="45.77301" lon="4.18496">
        <ele>397.6</ele>
        <time>2022-05-09T14:24:59Z</time>
      </trkpt>
      <trkpt lat="45.77306" lon="4.185">
        <ele>397.6</ele>
        <time>2022-05-09T14:25:04Z</time>
      </trkpt>
      <trkpt lat="45.77309" lon="4.18505">
        <ele>398.8</ele>
        <time>2022-05-09T14:25:10Z</time>
      </trkpt>
      <trkpt lat="45.77309" lon="4.18513">
        <ele>399.4</ele>
        <time>2022-05-09T14:25:15Z</time>
      </trkpt>
      <trkpt lat="45.77311" lon="4.18517">
        <ele>396.6</ele>
        <time>2022-05-09T14:25:20Z</time>
      </trkpt>
      <trkpt lat="45.77313" lon="4.18517">
        <ele>390</ele>
        <time>2022-05-09T14:25:26Z</time>
      </trkpt>
      <trkpt lat="45.77316" lon="4.18517">
        <ele>393.4</ele>
        <time>2022-05-09T14:25:31Z</time>
      </trkpt>
      <trkpt lat="45.77319" lon="4.18521">
        <ele>394.2</ele>
        <time>2022-05-09T14:25:36Z</time>
      </trkpt>
      <trkpt lat="45.77325" lon="4.18528">
        <ele>388.7</ele>
        <time>2022-05-09T14:25:41Z</time>
      </trkpt>
      <trkpt lat="45.77329" lon="4.18536">
        <ele>393.5</ele>
        <time>2022-05-09T14:25:47Z</time>
      </trkpt>
      <trkpt lat="45.7733" lon="4.18535">
        <ele>384.2</ele>
        <time>2022-05-09T14:25:52Z</time>
      </trkpt>
      <trkpt lat="45.7733" lon="4.18534">
        <ele>389.2</ele>
        <time>2022-05-09T14:25:57Z</time>
      </trkpt>
      <trkpt lat="45.77331" lon="4.18535">
        <ele>386.2</ele>
        <time>2022-05-09T14:26:03Z</time>
      </trkpt>
      <trkpt lat="45.77331" lon="4.18536">
        <ele>385.7</ele>
        <time>2022-05-09T14:26:09Z</time>
      </trkpt>
      <trkpt lat="45.77334" lon="4.18539">
        <ele>394</ele>
        <time>2022-05-09T14:26:15Z</time>
      </trkpt>
      <trkpt lat="45.77335" lon="4.18544">
        <ele>389.7</ele>
        <time>2022-05-09T14:26:20Z</time>
      </trkpt>
      <trkpt lat="45.77335" lon="4.18547">
        <ele>395.1</ele>
        <time>2022-05-09T14:26:25Z</time>
      </trkpt>
      <trkpt lat="45.77331" lon="4.18548">
        <ele>395.1</ele>
        <time>2022-05-09T14:26:31Z</time>
      </trkpt>
      <trkpt lat="45.77331" lon="4.18547">
        <ele>394.5</ele>
        <time>2022-05-09T14:26:37Z</time>
      </trkpt>
      <trkpt lat="45.7733" lon="4.18547">
        <ele>392.7</ele>
        <time>2022-05-09T14:26:42Z</time>
      </trkpt>
      <trkpt lat="45.7733" lon="4.18547">
        <ele>393.1</ele>
        <time>2022-05-09T14:26:48Z</time>
      </trkpt>
      <trkpt lat="45.77329" lon="4.18547">
        <ele>392.2</ele>
        <time>2022-05-09T14:26:54Z</time>
      </trkpt>
      <trkpt lat="45.77328" lon="4.18548">
        <ele>394.6</ele>
        <time>2022-05-09T14:27:00Z</time>
      </trkpt>
      <trkpt lat="45.77328" lon="4.18552">
        <ele>395.6</ele>
        <time>2022-05-09T14:27:06Z</time>
      </trkpt>
      <trkpt lat="45.77329" lon="4.18553">
        <ele>392.9</ele>
        <time>2022-05-09T14:27:11Z</time>
      </trkpt>
      <trkpt lat="45.77333" lon="4.18551">
        <ele>393.6</ele>
        <time>2022-05-09T14:27:16Z</time>
      </trkpt>
      <trkpt lat="45.77334" lon="4.1855">
        <ele>384.5</ele>
        <time>2022-05-09T14:27:22Z</time>
      </trkpt>
      <trkpt lat="45.77335" lon="4.18551">
        <ele>387.7</ele>
        <time>2022-05-09T14:27:27Z</time>
      </trkpt>
      <trkpt lat="45.77336" lon="4.18553">
        <ele>384.8</ele>
        <time>2022-05-09T14:27:32Z</time>
      </trkpt>
      <trkpt lat="45.77336" lon="4.18552">
        <ele>386.9</ele>
        <time>2022-05-09T14:27:38Z</time>
      </trkpt>
      <trkpt lat="45.77338" lon="4.18552">
        <ele>388.2</ele>
        <time>2022-05-09T14:27:43Z</time>
      </trkpt>
      <trkpt lat="45.77337" lon="4.18551">
        <ele>388.3</ele>
        <time>2022-05-09T14:27:48Z</time>
      </trkpt>
      <trkpt lat="45.77336" lon="4.18551">
        <ele>387.6</ele>
        <time>2022-05-09T14:27:54Z</time>
      </trkpt>
      <trkpt lat="45.77339" lon="4.18551">
        <ele>391.2</ele>
        <time>2022-05-09T14:27:59Z</time>
      </trkpt>
      <trkpt lat="45.77342" lon="4.18551">
        <ele>383.1</ele>
        <time>2022-05-09T14:28:05Z</time>
      </trkpt>
      <trkpt lat="45.77342" lon="4.18549">
        <ele>384.3</ele>
        <time>2022-05-09T14:28:11Z</time>
      </trkpt>
      <trkpt lat="45.77342" lon="4.18548">
        <ele>384.6</ele>
        <time>2022-05-09T14:28:17Z</time>
      </trkpt>
      <trkpt lat="45.77342" lon="4.18548">
        <ele>377.9</ele>
        <time>2022-05-09T14:28:22Z</time>
      </trkpt>
      <trkpt lat="45.77341" lon="4.18549">
        <ele>381.3</ele>
        <time>2022-05-09T14:28:28Z</time>
      </trkpt>
      <trkpt lat="45.77341" lon="4.18548">
        <ele>385.9</ele>
        <time>2022-05-09T14:28:33Z</time>
      </trkpt>
      <trkpt lat="45.77341" lon="4.18549">
        <ele>377.2</ele>
        <time>2022-05-09T14:28:39Z</time>
      </trkpt>
      <trkpt lat="45.77341" lon="4.18549">
        <ele>383.2</ele>
        <time>2022-05-09T14:28:45Z</time>
      </trkpt>
      <trkpt lat="45.77339" lon="4.1855">
        <ele>383.1</ele>
        <time>2022-05-09T14:28:54Z</time>
      </trkpt>
      <trkpt lat="45.7734" lon="4.1855">
        <ele>383.2</ele>
        <time>2022-05-09T14:29:02Z</time>
      </trkpt>
      <trkpt lat="45.7734" lon="4.1855">
        <ele>383.2</ele>
        <time>2022-05-09T14:29:07Z</time>
      </trkpt>
      <trkpt lat="45.77339" lon="4.1855">
        <ele>383.2</ele>
        <time>2022-05-09T14:29:13Z</time>
      </trkpt>
      <trkpt lat="45.7734" lon="4.1855">
        <ele>372.8</ele>
        <time>2022-05-09T14:29:19Z</time>
      </trkpt>
      <trkpt lat="45.7734" lon="4.1855">
        <ele>385.7</ele>
        <time>2022-05-09T14:29:26Z</time>
      </trkpt>
      <trkpt lat="45.7734" lon="4.1855">
        <ele>389.3</ele>
        <time>2022-05-09T14:29:31Z</time>
      </trkpt>
      <trkpt lat="45.77341" lon="4.18549">
        <ele>391.1</ele>
        <time>2022-05-09T14:29:37Z</time>
      </trkpt>
      <trkpt lat="45.7734" lon="4.18551">
        <ele>382.5</ele>
        <time>2022-05-09T14:29:42Z</time>
      </trkpt>
      <trkpt lat="45.77339" lon="4.18553">
        <ele>386.6</ele>
        <time>2022-05-09T14:29:48Z</time>
      </trkpt>
      <trkpt lat="45.7734" lon="4.18552">
        <ele>380.3</ele>
        <time>2022-05-09T14:29:54Z</time>
      </trkpt>
      <trkpt lat="45.77342" lon="4.18553">
        <ele>377.8</ele>
        <time>2022-05-09T14:29:59Z</time>
      </trkpt>
      <trkpt lat="45.77342" lon="4.18553">
        <ele>375.4</ele>
        <time>2022-05-09T14:30:05Z</time>
      </trkpt>
      <trkpt lat="45.77343" lon="4.18554">
        <ele>376.7</ele>
        <time>2022-05-09T14:30:10Z</time>
      </trkpt>
      <trkpt lat="45.77342" lon="4.18555">
        <ele>377.5</ele>
        <time>2022-05-09T14:30:16Z</time>
      </trkpt>
      <trkpt lat="45.77342" lon="4.18555">
        <ele>377.9</ele>
        <time>2022-05-09T14:30:21Z</time>
      </trkpt>
      <trkpt lat="45.77341" lon="4.18555">
        <ele>378.1</ele>
        <time>2022-05-09T14:30:26Z</time>
      </trkpt>
      <trkpt lat="45.7734" lon="4.18555">
        <ele>387.9</ele>
        <time>2022-05-09T14:30:32Z</time>
      </trkpt>
      <trkpt lat="45.77339" lon="4.18557">
        <ele>393.3</ele>
        <time>2022-05-09T14:30:37Z</time>
      </trkpt>
      <trkpt lat="45.7734" lon="4.18558">
        <ele>383.5</ele>
        <time>2022-05-09T14:30:42Z</time>
      </trkpt>
      <trkpt lat="45.7734" lon="4.18558">
        <ele>387.5</ele>
        <time>2022-05-09T14:30:48Z</time>
      </trkpt>
      <trkpt lat="45.7734" lon="4.18557">
        <ele>379.3</ele>
        <time>2022-05-09T14:30:53Z</time>
      </trkpt>
      <trkpt lat="45.77336" lon="4.18559">
        <ele>407.6</ele>
        <time>2022-05-09T14:30:58Z</time>
      </trkpt>
      <trkpt lat="45.7733" lon="4.18563">
        <ele>385.6</ele>
        <time>2022-05-09T14:31:04Z</time>
      </trkpt>
      <trkpt lat="45.77326" lon="4.18566">
        <ele>378.1</ele>
        <time>2022-05-09T14:31:09Z</time>
      </trkpt>
      <trkpt lat="45.77321" lon="4.18571">
        <ele>380</ele>
        <time>2022-05-09T14:31:14Z</time>
      </trkpt>
      <trkpt lat="45.77319" lon="4.18575">
        <ele>382.1</ele>
        <time>2022-05-09T14:31:19Z</time>
      </trkpt>
      <trkpt lat="45.77315" lon="4.18579">
        <ele>385.7</ele>
        <time>2022-05-09T14:31:24Z</time>
      </trkpt>
      <trkpt lat="45.77309" lon="4.18582">
        <ele>388.3</ele>
        <time>2022-05-09T14:31:30Z</time>
      </trkpt>
      <trkpt lat="45.77306" lon="4.18587">
        <ele>392.6</ele>
        <time>2022-05-09T14:31:36Z</time>
      </trkpt>
      <trkpt lat="45.77306" lon="4.18594">
        <ele>392.5</ele>
        <time>2022-05-09T14:31:41Z</time>
      </trkpt>
      <trkpt lat="45.77307" lon="4.18602">
        <ele>395.6</ele>
        <time>2022-05-09T14:31:46Z</time>
      </trkpt>
      <trkpt lat="45.77306" lon="4.18609">
        <ele>397.1</ele>
        <time>2022-05-09T14:31:51Z</time>
      </trkpt>
      <trkpt lat="45.77305" lon="4.18613">
        <ele>397.1</ele>
        <time>2022-05-09T14:31:56Z</time>
      </trkpt>
      <trkpt lat="45.77303" lon="4.18616">
        <ele>398</ele>
        <time>2022-05-09T14:32:01Z</time>
      </trkpt>
      <trkpt lat="45.77298" lon="4.18616">
        <ele>398</ele>
        <time>2022-05-09T14:32:06Z</time>
      </trkpt>
      <trkpt lat="45.77294" lon="4.18614">
        <ele>397.8</ele>
        <time>2022-05-09T14:32:11Z</time>
      </trkpt>
      <trkpt lat="45.77287" lon="4.18613">
        <ele>394.8</ele>
        <time>2022-05-09T14:32:16Z</time>
      </trkpt>
      <trkpt lat="45.77282" lon="4.18614">
        <ele>397.6</ele>
        <time>2022-05-09T14:32:22Z</time>
      </trkpt>
      <trkpt lat="45.77276" lon="4.18617">
        <ele>397.4</ele>
        <time>2022-05-09T14:32:27Z</time>
      </trkpt>
      <trkpt lat="45.7727" lon="4.18622">
        <ele>398.3</ele>
        <time>2022-05-09T14:32:33Z</time>
      </trkpt>
      <trkpt lat="45.77266" lon="4.1863">
        <ele>398.4</ele>
        <time>2022-05-09T14:32:38Z</time>
      </trkpt>
      <trkpt lat="45.77265" lon="4.18636">
        <ele>398.4</ele>
        <time>2022-05-09T14:32:43Z</time>
      </trkpt>
      <trkpt lat="45.77267" lon="4.1864">
        <ele>392.5</ele>
        <time>2022-05-09T14:32:49Z</time>
      </trkpt>
      <trkpt lat="45.77264" lon="4.18646">
        <ele>387</ele>
        <time>2022-05-09T14:32:54Z</time>
      </trkpt>
      <trkpt lat="45.77258" lon="4.1865">
        <ele>385.3</ele>
        <time>2022-05-09T14:32:59Z</time>
      </trkpt>
      <trkpt lat="45.77255" lon="4.18657">
        <ele>385</ele>
        <time>2022-05-09T14:33:05Z</time>
      </trkpt>
      <trkpt lat="45.77253" lon="4.18664">
        <ele>386.5</ele>
        <time>2022-05-09T14:33:10Z</time>
      </trkpt>
      <trkpt lat="45.77251" lon="4.1867">
        <ele>388.8</ele>
        <time>2022-05-09T14:33:15Z</time>
      </trkpt>
      <trkpt lat="45.77248" lon="4.18676">
        <ele>393</ele>
        <time>2022-05-09T14:33:20Z</time>
      </trkpt>
      <trkpt lat="45.77245" lon="4.18684">
        <ele>388.2</ele>
        <time>2022-05-09T14:33:26Z</time>
      </trkpt>
      <trkpt lat="45.77244" lon="4.18691">
        <ele>387.8</ele>
        <time>2022-05-09T14:33:31Z</time>
      </trkpt>
      <trkpt lat="45.77246" lon="4.18701">
        <ele>387.2</ele>
        <time>2022-05-09T14:33:37Z</time>
      </trkpt>
      <trkpt lat="45.77248" lon="4.18709">
        <ele>387.2</ele>
        <time>2022-05-09T14:33:42Z</time>
      </trkpt>
      <trkpt lat="45.7725" lon="4.18718">
        <ele>386</ele>
        <time>2022-05-09T14:33:48Z</time>
      </trkpt>
      <trkpt lat="45.77253" lon="4.18726">
        <ele>388.9</ele>
        <time>2022-05-09T14:33:53Z</time>
      </trkpt>
      <trkpt lat="45.77255" lon="4.18734">
        <ele>390.9</ele>
        <time>2022-05-09T14:33:59Z</time>
      </trkpt>
      <trkpt lat="45.77256" lon="4.18742">
        <ele>388.4</ele>
        <time>2022-05-09T14:34:04Z</time>
      </trkpt>
      <trkpt lat="45.77254" lon="4.18748">
        <ele>371.8</ele>
        <time>2022-05-09T14:34:10Z</time>
      </trkpt>
      <trkpt lat="45.7725" lon="4.18753">
        <ele>370.3</ele>
        <time>2022-05-09T14:34:15Z</time>
      </trkpt>
      <trkpt lat="45.77247" lon="4.18757">
        <ele>371.4</ele>
        <time>2022-05-09T14:34:21Z</time>
      </trkpt>
      <trkpt lat="45.77242" lon="4.18762">
        <ele>385.2</ele>
        <time>2022-05-09T14:34:26Z</time>
      </trkpt>
      <trkpt lat="45.7724" lon="4.18757">
        <ele>387.7</ele>
        <time>2022-05-09T14:34:32Z</time>
      </trkpt>
      <trkpt lat="45.77239" lon="4.18757">
        <ele>370.7</ele>
        <time>2022-05-09T14:34:38Z</time>
      </trkpt>
      <trkpt lat="45.77239" lon="4.18758">
        <ele>370.5</ele>
        <time>2022-05-09T14:34:43Z</time>
      </trkpt>
      <trkpt lat="45.77238" lon="4.18758">
        <ele>371.2</ele>
        <time>2022-05-09T14:34:48Z</time>
      </trkpt>
      <trkpt lat="45.77238" lon="4.18758">
        <ele>370.9</ele>
        <time>2022-05-09T14:34:53Z</time>
      </trkpt>
      <trkpt lat="45.7724" lon="4.18757">
        <ele>370.9</ele>
        <time>2022-05-09T14:34:58Z</time>
      </trkpt>
      <trkpt lat="45.7724" lon="4.18757">
        <ele>368.7</ele>
        <time>2022-05-09T14:35:19Z</time>
      </trkpt>
      <trkpt lat="45.7724" lon="4.18757">
        <ele>369.1</ele>
        <time>2022-05-09T14:35:31Z</time>
      </trkpt>
      <trkpt lat="45.7724" lon="4.18757">
        <ele>382.9</ele>
        <time>2022-05-09T14:36:31Z</time>
      </trkpt>
      <trkpt lat="45.7724" lon="4.18756">
        <ele>384.8</ele>
        <time>2022-05-09T14:36:36Z</time>
      </trkpt>
      <trkpt lat="45.77239" lon="4.18755">
        <ele>383.3</ele>
        <time>2022-05-09T14:36:42Z</time>
      </trkpt>
      <trkpt lat="45.77235" lon="4.18764">
        <ele>389.9</ele>
        <time>2022-05-09T14:36:47Z</time>
      </trkpt>
      <trkpt lat="45.77227" lon="4.18777">
        <ele>396.1</ele>
        <time>2022-05-09T14:36:53Z</time>
      </trkpt>
      <trkpt lat="45.77221" lon="4.18786">
        <ele>398.2</ele>
        <time>2022-05-09T14:36:58Z</time>
      </trkpt>
      <trkpt lat="45.77217" lon="4.18794">
        <ele>398.7</ele>
        <time>2022-05-09T14:37:04Z</time>
      </trkpt>
      <trkpt lat="45.77212" lon="4.18802">
        <ele>399</ele>
        <time>2022-05-09T14:37:09Z</time>
      </trkpt>
      <trkpt lat="45.77205" lon="4.18807">
        <ele>396.2</ele>
        <time>2022-05-09T14:37:15Z</time>
      </trkpt>
      <trkpt lat="45.77196" lon="4.18811">
        <ele>373.7</ele>
        <time>2022-05-09T14:37:20Z</time>
      </trkpt>
      <trkpt lat="45.77187" lon="4.18816">
        <ele>373.8</ele>
        <time>2022-05-09T14:37:26Z</time>
      </trkpt>
      <trkpt lat="45.77168" lon="4.18816">
        <ele>374</ele>
        <time>2022-05-09T14:37:31Z</time>
      </trkpt>
      <trkpt lat="45.77155" lon="4.18814">
        <ele>370.4</ele>
        <time>2022-05-09T14:37:36Z</time>
      </trkpt>
      <trkpt lat="45.77148" lon="4.18816">
        <ele>371.4</ele>
        <time>2022-05-09T14:37:42Z</time>
      </trkpt>
      <trkpt lat="45.77143" lon="4.18821">
        <ele>371.7</ele>
        <time>2022-05-09T14:37:47Z</time>
      </trkpt>
      <trkpt lat="45.77137" lon="4.18824">
        <ele>370.8</ele>
        <time>2022-05-09T14:37:52Z</time>
      </trkpt>
      <trkpt lat="45.77131" lon="4.18829">
        <ele>372.4</ele>
        <time>2022-05-09T14:37:58Z</time>
      </trkpt>
      <trkpt lat="45.77124" lon="4.18831">
        <ele>371.4</ele>
        <time>2022-05-09T14:38:03Z</time>
      </trkpt>
      <trkpt lat="45.77114" lon="4.18838">
        <ele>369.6</ele>
        <time>2022-05-09T14:38:11Z</time>
      </trkpt>
      <trkpt lat="45.77107" lon="4.18842">
        <ele>370.5</ele>
        <time>2022-05-09T14:38:17Z</time>
      </trkpt>
      <trkpt lat="45.77098" lon="4.18844">
        <ele>371.5</ele>
        <time>2022-05-09T14:38:22Z</time>
      </trkpt>
      <trkpt lat="45.77089" lon="4.18846">
        <ele>369.1</ele>
        <time>2022-05-09T14:38:28Z</time>
      </trkpt>
      <trkpt lat="45.77083" lon="4.18852">
        <ele>370.7</ele>
        <time>2022-05-09T14:38:33Z</time>
      </trkpt>
      <trkpt lat="45.77076" lon="4.18862">
        <ele>372.3</ele>
        <time>2022-05-09T14:38:38Z</time>
      </trkpt>
      <trkpt lat="45.77069" lon="4.18866">
        <ele>373.4</ele>
        <time>2022-05-09T14:38:44Z</time>
      </trkpt>
      <trkpt lat="45.77062" lon="4.18872">
        <ele>375.2</ele>
        <time>2022-05-09T14:38:49Z</time>
      </trkpt>
      <trkpt lat="45.77054" lon="4.18878">
        <ele>375.9</ele>
        <time>2022-05-09T14:38:55Z</time>
      </trkpt>
      <trkpt lat="45.77048" lon="4.18884">
        <ele>375.1</ele>
        <time>2022-05-09T14:39:00Z</time>
      </trkpt>
      <trkpt lat="45.77043" lon="4.18891">
        <ele>375.8</ele>
        <time>2022-05-09T14:39:06Z</time>
      </trkpt>
      <trkpt lat="45.77037" lon="4.189">
        <ele>375.9</ele>
        <time>2022-05-09T14:39:11Z</time>
      </trkpt>
      <trkpt lat="45.77033" lon="4.18908">
        <ele>376.9</ele>
        <time>2022-05-09T14:39:16Z</time>
      </trkpt>
      <trkpt lat="45.77026" lon="4.18915">
        <ele>376.3</ele>
        <time>2022-05-09T14:39:22Z</time>
      </trkpt>
      <trkpt lat="45.77017" lon="4.18918">
        <ele>376.3</ele>
        <time>2022-05-09T14:39:28Z</time>
      </trkpt>
      <trkpt lat="45.77009" lon="4.18921">
        <ele>377.4</ele>
        <time>2022-05-09T14:39:33Z</time>
      </trkpt>
      <trkpt lat="45.77002" lon="4.18924">
        <ele>377.2</ele>
        <time>2022-05-09T14:39:39Z</time>
      </trkpt>
      <trkpt lat="45.76995" lon="4.18926">
        <ele>376.3</ele>
        <time>2022-05-09T14:39:44Z</time>
      </trkpt>
      <trkpt lat="45.76987" lon="4.18928">
        <ele>377</ele>
        <time>2022-05-09T14:39:49Z</time>
      </trkpt>
      <trkpt lat="45.76979" lon="4.1893">
        <ele>377.3</ele>
        <time>2022-05-09T14:39:55Z</time>
      </trkpt>
      <trkpt lat="45.76971" lon="4.18932">
        <ele>377.3</ele>
        <time>2022-05-09T14:40:00Z</time>
      </trkpt>
      <trkpt lat="45.76964" lon="4.18933">
        <ele>377.1</ele>
        <time>2022-05-09T14:40:05Z</time>
      </trkpt>
      <trkpt lat="45.76958" lon="4.18927">
        <ele>376.7</ele>
        <time>2022-05-09T14:40:11Z</time>
      </trkpt>
      <trkpt lat="45.76956" lon="4.18919">
        <ele>376.9</ele>
        <time>2022-05-09T14:40:16Z</time>
      </trkpt>
      <trkpt lat="45.76957" lon="4.1891">
        <ele>377.3</ele>
        <time>2022-05-09T14:40:21Z</time>
      </trkpt>
      <trkpt lat="45.7696" lon="4.18902">
        <ele>376.5</ele>
        <time>2022-05-09T14:40:27Z</time>
      </trkpt>
      <trkpt lat="45.7696" lon="4.18892">
        <ele>376.2</ele>
        <time>2022-05-09T14:40:32Z</time>
      </trkpt>
      <trkpt lat="45.76958" lon="4.18885">
        <ele>376.4</ele>
        <time>2022-05-09T14:40:37Z</time>
      </trkpt>
      <trkpt lat="45.76953" lon="4.18882">
        <ele>377.3</ele>
        <time>2022-05-09T14:40:42Z</time>
      </trkpt>
      <trkpt lat="45.76948" lon="4.18878">
        <ele>376.9</ele>
        <time>2022-05-09T14:40:48Z</time>
      </trkpt>
      <trkpt lat="45.76944" lon="4.18876">
        <ele>377.2</ele>
        <time>2022-05-09T14:40:54Z</time>
      </trkpt>
      <trkpt lat="45.76939" lon="4.18881">
        <ele>377.2</ele>
        <time>2022-05-09T14:40:59Z</time>
      </trkpt>
      <trkpt lat="45.76937" lon="4.18881">
        <ele>377.1</ele>
        <time>2022-05-09T14:41:05Z</time>
      </trkpt>
      <trkpt lat="45.76937" lon="4.18879">
        <ele>377.2</ele>
        <time>2022-05-09T14:41:10Z</time>
      </trkpt>
      <trkpt lat="45.76938" lon="4.18878">
        <ele>377.3</ele>
        <time>2022-05-09T14:41:16Z</time>
      </trkpt>
      <trkpt lat="45.76939" lon="4.18881">
        <ele>377.5</ele>
        <time>2022-05-09T14:41:21Z</time>
      </trkpt>
      <trkpt lat="45.76937" lon="4.18877">
        <ele>377</ele>
        <time>2022-05-09T14:41:27Z</time>
      </trkpt>
      <trkpt lat="45.76938" lon="4.18874">
        <ele>377.3</ele>
        <time>2022-05-09T14:41:32Z</time>
      </trkpt>
      <trkpt lat="45.76944" lon="4.18875">
        <ele>377.2</ele>
        <time>2022-05-09T14:41:38Z</time>
      </trkpt>
      <trkpt lat="45.76951" lon="4.18878">
        <ele>399.6</ele>
        <time>2022-05-09T14:41:43Z</time>
      </trkpt>
      <trkpt lat="45.76954" lon="4.1888">
        <ele>401.7</ele>
        <time>2022-05-09T14:41:48Z</time>
      </trkpt>
      <trkpt lat="45.76956" lon="4.18883">
        <ele>401.5</ele>
        <time>2022-05-09T14:41:53Z</time>
      </trkpt>
      <trkpt lat="45.76958" lon="4.18883">
        <ele>400.7</ele>
        <time>2022-05-09T14:41:59Z</time>
      </trkpt>
      <trkpt lat="45.76949" lon="4.18888">
        <ele>400.1</ele>
        <time>2022-05-09T14:42:04Z</time>
      </trkpt>
      <trkpt lat="45.76934" lon="4.18898">
        <ele>401.4</ele>
        <time>2022-05-09T14:42:09Z</time>
      </trkpt>
      <trkpt lat="45.76927" lon="4.18891">
        <ele>377.4</ele>
        <time>2022-05-09T14:42:14Z</time>
      </trkpt>
      <trkpt lat="45.76931" lon="4.18883">
        <ele>608.5</ele>
        <time>2022-05-09T14:42:19Z</time>
      </trkpt>
      <trkpt lat="45.7693" lon="4.18875">
        <ele>377</ele>
        <time>2022-05-09T14:42:25Z</time>
      </trkpt>
      <trkpt lat="45.76929" lon="4.18867">
        <ele>377.3</ele>
        <time>2022-05-09T14:42:30Z</time>
      </trkpt>
      <trkpt lat="45.7693" lon="4.18856">
        <ele>376.9</ele>
        <time>2022-05-09T14:42:36Z</time>
      </trkpt>
      <trkpt lat="45.76904" lon="4.18789">
        <ele>381.1</ele>
        <time>2022-05-09T14:42:41Z</time>
      </trkpt>
      <trkpt lat="45.76905" lon="4.18779">
        <ele>382.4</ele>
        <time>2022-05-09T14:42:47Z</time>
      </trkpt>
      <trkpt lat="45.76906" lon="4.18773">
        <ele>380.8</ele>
        <time>2022-05-09T14:42:52Z</time>
      </trkpt>
      <trkpt lat="45.76904" lon="4.18763">
        <ele>437.3</ele>
        <time>2022-05-09T14:42:58Z</time>
      </trkpt>
      <trkpt lat="45.76901" lon="4.18755">
        <ele>428.7</ele>
        <time>2022-05-09T14:43:03Z</time>
      </trkpt>
      <trkpt lat="45.76898" lon="4.18747">
        <ele>443.4</ele>
        <time>2022-05-09T14:43:09Z</time>
      </trkpt>
      <trkpt lat="45.76896" lon="4.18741">
        <ele>443.1</ele>
        <time>2022-05-09T14:43:14Z</time>
      </trkpt>
      <trkpt lat="45.76895" lon="4.18735">
        <ele>449.4</ele>
        <time>2022-05-09T14:43:19Z</time>
      </trkpt>
      <trkpt lat="45.76892" lon="4.18728">
        <ele>502.9</ele>
        <time>2022-05-09T14:43:25Z</time>
      </trkpt>
      <trkpt lat="45.76891" lon="4.18722">
        <ele>517.9</ele>
        <time>2022-05-09T14:43:30Z</time>
      </trkpt>
      <trkpt lat="45.76892" lon="4.18716">
        <ele>472</ele>
        <time>2022-05-09T14:43:35Z</time>
      </trkpt>
      <trkpt lat="45.76892" lon="4.1871">
        <ele>484.8</ele>
        <time>2022-05-09T14:43:40Z</time>
      </trkpt>
      <trkpt lat="45.76891" lon="4.18704">
        <ele>373.2</ele>
        <time>2022-05-09T14:43:45Z</time>
      </trkpt>
      <trkpt lat="45.7689" lon="4.18698">
        <ele>374</ele>
        <time>2022-05-09T14:43:51Z</time>
      </trkpt>
      <trkpt lat="45.76889" lon="4.18691">
        <ele>375.1</ele>
        <time>2022-05-09T14:43:56Z</time>
      </trkpt>
      <trkpt lat="45.76888" lon="4.18684">
        <ele>376.1</ele>
        <time>2022-05-09T14:44:01Z</time>
      </trkpt>
      <trkpt lat="45.76887" lon="4.18676">
        <ele>375.6</ele>
        <time>2022-05-09T14:44:07Z</time>
      </trkpt>
      <trkpt lat="45.76885" lon="4.18667">
        <ele>373.5</ele>
        <time>2022-05-09T14:44:12Z</time>
      </trkpt>
      <trkpt lat="45.76886" lon="4.18661">
        <ele>374.4</ele>
        <time>2022-05-09T14:44:17Z</time>
      </trkpt>
      <trkpt lat="45.76887" lon="4.18655">
        <ele>371.8</ele>
        <time>2022-05-09T14:44:22Z</time>
      </trkpt>
      <trkpt lat="45.76885" lon="4.18648">
        <ele>372.8</ele>
        <time>2022-05-09T14:44:27Z</time>
      </trkpt>
      <trkpt lat="45.76882" lon="4.18641">
        <ele>384</ele>
        <time>2022-05-09T14:44:33Z</time>
      </trkpt>
      <trkpt lat="45.76876" lon="4.18635">
        <ele>383.4</ele>
        <time>2022-05-09T14:44:38Z</time>
      </trkpt>
      <trkpt lat="45.7687" lon="4.18629">
        <ele>391.9</ele>
        <time>2022-05-09T14:44:44Z</time>
      </trkpt>
      <trkpt lat="45.76865" lon="4.18624">
        <ele>388.6</ele>
        <time>2022-05-09T14:44:49Z</time>
      </trkpt>
      <trkpt lat="45.7686" lon="4.18619">
        <ele>391.9</ele>
        <time>2022-05-09T14:44:54Z</time>
      </trkpt>
      <trkpt lat="45.76856" lon="4.18616">
        <ele>501.5</ele>
        <time>2022-05-09T14:45:00Z</time>
      </trkpt>
      <trkpt lat="45.76856" lon="4.18618">
        <ele>535.7</ele>
        <time>2022-05-09T14:45:05Z</time>
      </trkpt>
      <trkpt lat="45.76862" lon="4.18619">
        <ele>373.2</ele>
        <time>2022-05-09T14:45:11Z</time>
      </trkpt>
      <trkpt lat="45.76866" lon="4.18613">
        <ele>373.9</ele>
        <time>2022-05-09T14:45:16Z</time>
      </trkpt>
      <trkpt lat="45.76874" lon="4.18606">
        <ele>373.7</ele>
        <time>2022-05-09T14:45:21Z</time>
      </trkpt>
      <trkpt lat="45.76876" lon="4.18599">
        <ele>374.1</ele>
        <time>2022-05-09T14:45:26Z</time>
      </trkpt>
      <trkpt lat="45.76876" lon="4.18586">
        <ele>374</ele>
        <time>2022-05-09T14:45:32Z</time>
      </trkpt>
      <trkpt lat="45.76876" lon="4.18575">
        <ele>374.3</ele>
        <time>2022-05-09T14:45:37Z</time>
      </trkpt>
      <trkpt lat="45.76877" lon="4.18565">
        <ele>374.4</ele>
        <time>2022-05-09T14:45:43Z</time>
      </trkpt>
      <trkpt lat="45.7688" lon="4.18557">
        <ele>376.6</ele>
        <time>2022-05-09T14:45:48Z</time>
      </trkpt>
      <trkpt lat="45.7688" lon="4.18549">
        <ele>399.9</ele>
        <time>2022-05-09T14:45:53Z</time>
      </trkpt>
      <trkpt lat="45.76877" lon="4.18539">
        <ele>399.7</ele>
        <time>2022-05-09T14:45:59Z</time>
      </trkpt>
      <trkpt lat="45.76876" lon="4.18529">
        <ele>399.5</ele>
        <time>2022-05-09T14:46:04Z</time>
      </trkpt>
      <trkpt lat="45.76879" lon="4.18519">
        <ele>374.5</ele>
        <time>2022-05-09T14:46:10Z</time>
      </trkpt>
      <trkpt lat="45.76883" lon="4.18509">
        <ele>526.6</ele>
        <time>2022-05-09T14:46:15Z</time>
      </trkpt>
      <trkpt lat="45.76887" lon="4.18495">
        <ele>489.5</ele>
        <time>2022-05-09T14:46:21Z</time>
      </trkpt>
      <trkpt lat="45.76891" lon="4.18485">
        <ele>473.2</ele>
        <time>2022-05-09T14:46:26Z</time>
      </trkpt>
      <trkpt lat="45.76895" lon="4.18475">
        <ele>455.7</ele>
        <time>2022-05-09T14:46:31Z</time>
      </trkpt>
      <trkpt lat="45.76896" lon="4.18466">
        <ele>447.8</ele>
        <time>2022-05-09T14:46:37Z</time>
      </trkpt>
      <trkpt lat="45.76891" lon="4.18457">
        <ele>438.2</ele>
        <time>2022-05-09T14:46:42Z</time>
      </trkpt>
      <trkpt lat="45.76889" lon="4.1845">
        <ele>390.1</ele>
        <time>2022-05-09T14:46:48Z</time>
      </trkpt>
      <trkpt lat="45.7689" lon="4.18441">
        <ele>385.4</ele>
        <time>2022-05-09T14:46:53Z</time>
      </trkpt>
      <trkpt lat="45.76891" lon="4.18432">
        <ele>385.4</ele>
        <time>2022-05-09T14:46:58Z</time>
      </trkpt>
      <trkpt lat="45.76892" lon="4.18423">
        <ele>379.1</ele>
        <time>2022-05-09T14:47:03Z</time>
      </trkpt>
      <trkpt lat="45.76893" lon="4.18415">
        <ele>380.4</ele>
        <time>2022-05-09T14:47:08Z</time>
      </trkpt>
      <trkpt lat="45.76894" lon="4.18407">
        <ele>380.3</ele>
        <time>2022-05-09T14:47:13Z</time>
      </trkpt>
      <trkpt lat="45.76895" lon="4.18399">
        <ele>379.4</ele>
        <time>2022-05-09T14:47:19Z</time>
      </trkpt>
      <trkpt lat="45.76896" lon="4.18392">
        <ele>500</ele>
        <time>2022-05-09T14:47:24Z</time>
      </trkpt>
      <trkpt lat="45.76899" lon="4.18385">
        <ele>490.8</ele>
        <time>2022-05-09T14:47:30Z</time>
      </trkpt>
      <trkpt lat="45.76902" lon="4.18378">
        <ele>392.9</ele>
        <time>2022-05-09T14:47:35Z</time>
      </trkpt>
      <trkpt lat="45.76903" lon="4.18371">
        <ele>392.9</ele>
        <time>2022-05-09T14:47:40Z</time>
      </trkpt>
      <trkpt lat="45.76905" lon="4.18365">
        <ele>392.9</ele>
        <time>2022-05-09T14:47:45Z</time>
      </trkpt>
      <trkpt lat="45.76906" lon="4.1836">
        <ele>392.9</ele>
        <time>2022-05-09T14:47:51Z</time>
      </trkpt>
      <trkpt lat="45.76909" lon="4.18359">
        <ele>392.9</ele>
        <time>2022-05-09T14:47:56Z</time>
      </trkpt>
      <trkpt lat="45.7691" lon="4.18358">
        <ele>392.9</ele>
        <time>2022-05-09T14:48:02Z</time>
      </trkpt>
      <trkpt lat="45.76912" lon="4.18355">
        <ele>392.9</ele>
        <time>2022-05-09T14:48:07Z</time>
      </trkpt>
      <trkpt lat="45.76912" lon="4.18343">
        <ele>392.9</ele>
        <time>2022-05-09T14:48:12Z</time>
      </trkpt>
      <trkpt lat="45.7691" lon="4.1834">
        <ele>392.9</ele>
        <time>2022-05-09T14:48:18Z</time>
      </trkpt>
      <trkpt lat="45.76911" lon="4.18345">
        <ele>392.9</ele>
        <time>2022-05-09T14:48:24Z</time>
      </trkpt>
      <trkpt lat="45.76911" lon="4.18347">
        <ele>392.9</ele>
        <time>2022-05-09T14:48:30Z</time>
      </trkpt>
      <trkpt lat="45.76911" lon="4.18347">
        <ele>392.9</ele>
        <time>2022-05-09T14:48:36Z</time>
      </trkpt>
      <trkpt lat="45.76911" lon="4.18346">
        <ele>392.9</ele>
        <time>2022-05-09T14:48:42Z</time>
      </trkpt>
      <trkpt lat="45.76912" lon="4.18346">
        <ele>392.9</ele>
        <time>2022-05-09T14:48:48Z</time>
      </trkpt>
      <trkpt lat="45.76913" lon="4.18343">
        <ele>392.9</ele>
        <time>2022-05-09T14:48:53Z</time>
      </trkpt>
      <trkpt lat="45.76916" lon="4.18336">
        <ele>392.9</ele>
        <time>2022-05-09T14:48:58Z</time>
      </trkpt>
      <trkpt lat="45.76918" lon="4.18327">
        <ele>392.9</ele>
        <time>2022-05-09T14:49:03Z</time>
      </trkpt>
      <trkpt lat="45.76921" lon="4.18318">
        <ele>392.9</ele>
        <time>2022-05-09T14:49:09Z</time>
      </trkpt>
      <trkpt lat="45.76922" lon="4.1831">
        <ele>392.9</ele>
        <time>2022-05-09T14:49:14Z</time>
      </trkpt>
      <trkpt lat="45.76922" lon="4.18304">
        <ele>392.9</ele>
        <time>2022-05-09T14:49:19Z</time>
      </trkpt>
      <trkpt lat="45.76924" lon="4.18298">
        <ele>392.9</ele>
        <time>2022-05-09T14:49:24Z</time>
      </trkpt>
      <trkpt lat="45.76927" lon="4.18294">
        <ele>379.4</ele>
        <time>2022-05-09T14:49:29Z</time>
      </trkpt>
      <trkpt lat="45.76931" lon="4.18288">
        <ele>379.5</ele>
        <time>2022-05-09T14:49:35Z</time>
      </trkpt>
      <trkpt lat="45.76933" lon="4.18282">
        <ele>395.3</ele>
        <time>2022-05-09T14:49:41Z</time>
      </trkpt>
      <trkpt lat="45.76932" lon="4.18276">
        <ele>409.7</ele>
        <time>2022-05-09T14:49:46Z</time>
      </trkpt>
      <trkpt lat="45.76932" lon="4.1827">
        <ele>393.5</ele>
        <time>2022-05-09T14:49:52Z</time>
      </trkpt>
      <trkpt lat="45.76933" lon="4.18271">
        <ele>379</ele>
        <time>2022-05-09T14:49:57Z</time>
      </trkpt>
      <trkpt lat="45.76934" lon="4.18272">
        <ele>392.9</ele>
        <time>2022-05-09T14:50:03Z</time>
      </trkpt>
      <trkpt lat="45.76934" lon="4.18273">
        <ele>392.9</ele>
        <time>2022-05-09T14:50:08Z</time>
      </trkpt>
      <trkpt lat="45.76935" lon="4.18273">
        <ele>392.9</ele>
        <time>2022-05-09T14:50:14Z</time>
      </trkpt>
      <trkpt lat="45.76935" lon="4.18274">
        <ele>392.9</ele>
        <time>2022-05-09T14:50:19Z</time>
      </trkpt>
      <trkpt lat="45.76935" lon="4.18275">
        <ele>392.9</ele>
        <time>2022-05-09T14:50:25Z</time>
      </trkpt>
      <trkpt lat="45.76935" lon="4.18276">
        <ele>392.9</ele>
        <time>2022-05-09T14:50:31Z</time>
      </trkpt>
      <trkpt lat="45.76936" lon="4.18274">
        <ele>392.9</ele>
        <time>2022-05-09T14:50:36Z</time>
      </trkpt>
      <trkpt lat="45.76939" lon="4.18273">
        <ele>392.9</ele>
        <time>2022-05-09T14:50:42Z</time>
      </trkpt>
      <trkpt lat="45.76941" lon="4.18271">
        <ele>392.9</ele>
        <time>2022-05-09T14:50:47Z</time>
      </trkpt>
      <trkpt lat="45.76944" lon="4.18271">
        <ele>392.9</ele>
        <time>2022-05-09T14:50:53Z</time>
      </trkpt>
      <trkpt lat="45.76946" lon="4.18275">
        <ele>392.9</ele>
        <time>2022-05-09T14:50:59Z</time>
      </trkpt>
      <trkpt lat="45.76948" lon="4.1828">
        <ele>392.9</ele>
        <time>2022-05-09T14:51:04Z</time>
      </trkpt>
      <trkpt lat="45.7695" lon="4.18285">
        <ele>392.9</ele>
        <time>2022-05-09T14:51:09Z</time>
      </trkpt>
      <trkpt lat="45.76952" lon="4.18288">
        <ele>392.9</ele>
        <time>2022-05-09T14:51:14Z</time>
      </trkpt>
      <trkpt lat="45.76955" lon="4.18289">
        <ele>392.9</ele>
        <time>2022-05-09T14:51:20Z</time>
      </trkpt>
      <trkpt lat="45.76959" lon="4.18288">
        <ele>392.9</ele>
        <time>2022-05-09T14:51:25Z</time>
      </trkpt>
      <trkpt lat="45.76963" lon="4.18285">
        <ele>392.9</ele>
        <time>2022-05-09T14:51:30Z</time>
      </trkpt>
      <trkpt lat="45.76968" lon="4.18279">
        <ele>392.9</ele>
        <time>2022-05-09T14:51:36Z</time>
      </trkpt>
      <trkpt lat="45.76971" lon="4.18272">
        <ele>392.9</ele>
        <time>2022-05-09T14:51:41Z</time>
      </trkpt>
      <trkpt lat="45.76974" lon="4.18267">
        <ele>392.9</ele>
        <time>2022-05-09T14:51:46Z</time>
      </trkpt>
      <trkpt lat="45.76976" lon="4.18261">
        <ele>380.3</ele>
        <time>2022-05-09T14:51:52Z</time>
      </trkpt>
      <trkpt lat="45.76964" lon="4.18225">
        <ele>380.8</ele>
        <time>2022-05-09T14:51:57Z</time>
      </trkpt>
      <trkpt lat="45.76961" lon="4.18213">
        <ele>380.8</ele>
        <time>2022-05-09T14:52:03Z</time>
      </trkpt>
      <trkpt lat="45.76959" lon="4.18201">
        <ele>380.7</ele>
        <time>2022-05-09T14:52:08Z</time>
      </trkpt>
      <trkpt lat="45.76958" lon="4.18191">
        <ele>380.7</ele>
        <time>2022-05-09T14:52:13Z</time>
      </trkpt>
      <trkpt lat="45.76958" lon="4.18187">
        <ele>380.8</ele>
        <time>2022-05-09T14:52:18Z</time>
      </trkpt>
      <trkpt lat="45.76957" lon="4.18184">
        <ele>380.6</ele>
        <time>2022-05-09T14:52:23Z</time>
      </trkpt>
      <trkpt lat="45.76956" lon="4.18183">
        <ele>380.4</ele>
        <time>2022-05-09T14:52:28Z</time>
      </trkpt>
      <trkpt lat="45.76956" lon="4.18182">
        <ele>380.3</ele>
        <time>2022-05-09T14:52:34Z</time>
      </trkpt>
      <trkpt lat="45.76958" lon="4.18181">
        <ele>380.3</ele>
        <time>2022-05-09T14:52:39Z</time>
      </trkpt>
      <trkpt lat="45.76963" lon="4.18179">
        <ele>380.3</ele>
        <time>2022-05-09T14:52:45Z</time>
      </trkpt>
      <trkpt lat="45.76969" lon="4.18179">
        <ele>380</ele>
        <time>2022-05-09T14:52:51Z</time>
      </trkpt>
      <trkpt lat="45.76976" lon="4.18167">
        <ele>380.2</ele>
        <time>2022-05-09T14:52:56Z</time>
      </trkpt>
      <trkpt lat="45.76979" lon="4.18154">
        <ele>380.3</ele>
        <time>2022-05-09T14:53:02Z</time>
      </trkpt>
      <trkpt lat="45.76981" lon="4.18147">
        <ele>379.9</ele>
        <time>2022-05-09T14:53:07Z</time>
      </trkpt>
      <trkpt lat="45.76982" lon="4.1814">
        <ele>380.4</ele>
        <time>2022-05-09T14:53:13Z</time>
      </trkpt>
      <trkpt lat="45.76983" lon="4.18135">
        <ele>382.6</ele>
        <time>2022-05-09T14:53:18Z</time>
      </trkpt>
      <trkpt lat="45.76985" lon="4.1813">
        <ele>383.2</ele>
        <time>2022-05-09T14:53:23Z</time>
      </trkpt>
      <trkpt lat="45.76986" lon="4.18126">
        <ele>383</ele>
        <time>2022-05-09T14:53:28Z</time>
      </trkpt>
      <trkpt lat="45.76988" lon="4.18123">
        <ele>382</ele>
        <time>2022-05-09T14:53:33Z</time>
      </trkpt>
      <trkpt lat="45.7699" lon="4.18122">
        <ele>381.7</ele>
        <time>2022-05-09T14:53:39Z</time>
      </trkpt>
      <trkpt lat="45.76994" lon="4.1812">
        <ele>398</ele>
        <time>2022-05-09T14:53:45Z</time>
      </trkpt>
      <trkpt lat="45.76997" lon="4.18119">
        <ele>396.8</ele>
        <time>2022-05-09T14:53:50Z</time>
      </trkpt>
      <trkpt lat="45.77" lon="4.18119">
        <ele>397.2</ele>
        <time>2022-05-09T14:53:55Z</time>
      </trkpt>
      <trkpt lat="45.77" lon="4.18124">
        <ele>397.6</ele>
        <time>2022-05-09T14:54:00Z</time>
      </trkpt>
      <trkpt lat="45.76999" lon="4.18128">
        <ele>384.8</ele>
        <time>2022-05-09T14:54:05Z</time>
      </trkpt>
      <trkpt lat="45.76999" lon="4.18132">
        <ele>384.5</ele>
        <time>2022-05-09T14:54:11Z</time>
      </trkpt>
      <trkpt lat="45.76999" lon="4.18137">
        <ele>383.9</ele>
        <time>2022-05-09T14:54:16Z</time>
      </trkpt>
      <trkpt lat="45.77003" lon="4.18143">
        <ele>383.5</ele>
        <time>2022-05-09T14:54:21Z</time>
      </trkpt>
      <trkpt lat="45.77008" lon="4.18147">
        <ele>399.5</ele>
        <time>2022-05-09T14:54:26Z</time>
      </trkpt>
      <trkpt lat="45.77013" lon="4.18148">
        <ele>399.5</ele>
        <time>2022-05-09T14:54:31Z</time>
      </trkpt>
      <trkpt lat="45.77017" lon="4.18149">
        <ele>399.5</ele>
        <time>2022-05-09T14:54:37Z</time>
      </trkpt>
      <trkpt lat="45.77021" lon="4.18152">
        <ele>399.5</ele>
        <time>2022-05-09T14:54:42Z</time>
      </trkpt>
      <trkpt lat="45.77022" lon="4.18158">
        <ele>399.5</ele>
        <time>2022-05-09T14:54:48Z</time>
      </trkpt>
      <trkpt lat="45.77021" lon="4.18166">
        <ele>399.5</ele>
        <time>2022-05-09T14:54:53Z</time>
      </trkpt>
      <trkpt lat="45.77018" lon="4.18178">
        <ele>399.5</ele>
        <time>2022-05-09T14:54:58Z</time>
      </trkpt>
      <trkpt lat="45.77016" lon="4.1819">
        <ele>399.5</ele>
        <time>2022-05-09T14:55:03Z</time>
      </trkpt>
      <trkpt lat="45.77012" lon="4.18201">
        <ele>399.8</ele>
        <time>2022-05-09T14:55:08Z</time>
      </trkpt>
      <trkpt lat="45.77004" lon="4.18207">
        <ele>399.8</ele>
        <time>2022-05-09T14:55:13Z</time>
      </trkpt>
      <trkpt lat="45.76997" lon="4.18212">
        <ele>399.8</ele>
        <time>2022-05-09T14:55:18Z</time>
      </trkpt>
      <trkpt lat="45.76997" lon="4.18219">
        <ele>399.8</ele>
        <time>2022-05-09T14:55:23Z</time>
      </trkpt>
      <trkpt lat="45.77005" lon="4.18221">
        <ele>399.5</ele>
        <time>2022-05-09T14:55:29Z</time>
      </trkpt>
      <trkpt lat="45.77005" lon="4.18219">
        <ele>399.5</ele>
        <time>2022-05-09T14:55:34Z</time>
      </trkpt>
      <trkpt lat="45.77007" lon="4.1822">
        <ele>399.5</ele>
        <time>2022-05-09T14:55:40Z</time>
      </trkpt>
      <trkpt lat="45.77007" lon="4.1822">
        <ele>399.5</ele>
        <time>2022-05-09T14:55:46Z</time>
      </trkpt>
      <trkpt lat="45.77008" lon="4.18216">
        <ele>399.5</ele>
        <time>2022-05-09T14:55:52Z</time>
      </trkpt>
      <trkpt lat="45.77007" lon="4.1822">
        <ele>399.5</ele>
        <time>2022-05-09T14:55:57Z</time>
      </trkpt>
      <trkpt lat="45.77008" lon="4.18221">
        <ele>399.5</ele>
        <time>2022-05-09T14:56:03Z</time>
      </trkpt>
      <trkpt lat="45.77009" lon="4.18221">
        <ele>399.5</ele>
        <time>2022-05-09T14:56:08Z</time>
      </trkpt>
      <trkpt lat="45.7701" lon="4.18221">
        <ele>399.5</ele>
        <time>2022-05-09T14:56:14Z</time>
      </trkpt>
      <trkpt lat="45.7701" lon="4.1822">
        <ele>399.5</ele>
        <time>2022-05-09T14:56:20Z</time>
      </trkpt>
      <trkpt lat="45.77009" lon="4.18218">
        <ele>399.5</ele>
        <time>2022-05-09T14:56:25Z</time>
      </trkpt>
      <trkpt lat="45.77008" lon="4.18216">
        <ele>399.5</ele>
        <time>2022-05-09T14:56:30Z</time>
      </trkpt>
      <trkpt lat="45.77009" lon="4.18216">
        <ele>399.5</ele>
        <time>2022-05-09T14:56:35Z</time>
      </trkpt>
      <trkpt lat="45.77009" lon="4.18215">
        <ele>399.5</ele>
        <time>2022-05-09T14:56:41Z</time>
      </trkpt>
      <trkpt lat="45.77009" lon="4.18214">
        <ele>399.5</ele>
        <time>2022-05-09T14:56:46Z</time>
      </trkpt>
      <trkpt lat="45.77009" lon="4.18213">
        <ele>399.5</ele>
        <time>2022-05-09T14:56:52Z</time>
      </trkpt>
      <trkpt lat="45.7701" lon="4.18213">
        <ele>399.5</ele>
        <time>2022-05-09T14:56:57Z</time>
      </trkpt>
      <trkpt lat="45.77005" lon="4.18204">
        <ele>399.5</ele>
        <time>2022-05-09T14:57:02Z</time>
      </trkpt>
      <trkpt lat="45.77001" lon="4.18197">
        <ele>399.5</ele>
        <time>2022-05-09T14:57:07Z</time>
      </trkpt>
      <trkpt lat="45.76994" lon="4.1819">
        <ele>399.5</ele>
        <time>2022-05-09T14:57:13Z</time>
      </trkpt>
      <trkpt lat="45.76998" lon="4.18185">
        <ele>399.5</ele>
        <time>2022-05-09T14:57:18Z</time>
      </trkpt>
      <trkpt lat="45.77004" lon="4.18181">
        <ele>399.8</ele>
        <time>2022-05-09T14:57:23Z</time>
      </trkpt>
      <trkpt lat="45.77011" lon="4.18181">
        <ele>399.8</ele>
        <time>2022-05-09T14:57:28Z</time>
      </trkpt>
      <trkpt lat="45.77018" lon="4.18182">
        <ele>399.8</ele>
        <time>2022-05-09T14:57:33Z</time>
      </trkpt>
      <trkpt lat="45.77024" lon="4.18183">
        <ele>399.8</ele>
        <time>2022-05-09T14:57:39Z</time>
      </trkpt>
      <trkpt lat="45.77022" lon="4.18196">
        <ele>399.8</ele>
        <time>2022-05-09T14:57:44Z</time>
      </trkpt>
      <trkpt lat="45.77021" lon="4.18197">
        <ele>399.8</ele>
        <time>2022-05-09T14:57:49Z</time>
      </trkpt>
      <trkpt lat="45.7702" lon="4.18198">
        <ele>399.8</ele>
        <time>2022-05-09T14:57:54Z</time>
      </trkpt>
      <trkpt lat="45.7702" lon="4.18198">
        <ele>399.8</ele>
        <time>2022-05-09T14:57:59Z</time>
      </trkpt>
      <trkpt lat="45.77021" lon="4.18198">
        <ele>400.1</ele>
        <time>2022-05-09T14:58:04Z</time>
      </trkpt>
      <trkpt lat="45.77022" lon="4.18198">
        <ele>400.1</ele>
        <time>2022-05-09T14:58:10Z</time>
      </trkpt>
      <trkpt lat="45.77022" lon="4.18198">
        <ele>400.1</ele>
        <time>2022-05-09T14:58:15Z</time>
      </trkpt>
      <trkpt lat="45.77022" lon="4.18198">
        <ele>400.1</ele>
        <time>2022-05-09T14:58:21Z</time>
      </trkpt>
      <trkpt lat="45.77022" lon="4.18197">
        <ele>400.1</ele>
        <time>2022-05-09T15:00:41Z</time>
      </trkpt>
      <trkpt lat="45.77024" lon="4.18196">
        <ele>400.1</ele>
        <time>2022-05-09T15:00:46Z</time>
      </trkpt>
      <trkpt lat="45.77026" lon="4.18196">
        <ele>400.1</ele>
        <time>2022-05-09T15:00:52Z</time>
      </trkpt>
      <trkpt lat="45.77025" lon="4.18193">
        <ele>400.1</ele>
        <time>2022-05-09T15:00:58Z</time>
      </trkpt>
      <trkpt lat="45.77025" lon="4.18192">
        <ele>400.1</ele>
        <time>2022-05-09T15:01:03Z</time>
      </trkpt>
      <trkpt lat="45.77026" lon="4.18189">
        <ele>400.1</ele>
        <time>2022-05-09T15:01:09Z</time>
      </trkpt>
      <trkpt lat="45.77026" lon="4.18189">
        <ele>400.1</ele>
        <time>2022-05-09T15:01:15Z</time>
      </trkpt>
      <trkpt lat="45.77025" lon="4.18186">
        <ele>400.1</ele>
        <time>2022-05-09T15:01:20Z</time>
      </trkpt>
      <trkpt lat="45.77024" lon="4.18185">
        <ele>400.1</ele>
        <time>2022-05-09T15:01:26Z</time>
      </trkpt>
      <trkpt lat="45.77025" lon="4.18186">
        <ele>400.1</ele>
        <time>2022-05-09T15:01:31Z</time>
      </trkpt>
      <trkpt lat="45.77025" lon="4.18186">
        <ele>400.1</ele>
        <time>2022-05-09T15:01:37Z</time>
      </trkpt>
      <trkpt lat="45.77024" lon="4.18186">
        <ele>400.1</ele>
        <time>2022-05-09T15:01:42Z</time>
      </trkpt>
      <trkpt lat="45.77025" lon="4.18186">
        <ele>400.1</ele>
        <time>2022-05-09T15:01:53Z</time>
      </trkpt>
      <trkpt lat="45.77025" lon="4.18186">
        <ele>400.1</ele>
        <time>2022-05-09T15:01:59Z</time>
      </trkpt>
      <trkpt lat="45.77025" lon="4.18186">
        <ele>400.1</ele>
        <time>2022-05-09T15:02:05Z</time>
      </trkpt>
      <trkpt lat="45.77025" lon="4.18186">
        <ele>400.1</ele>
        <time>2022-05-09T15:02:10Z</time>
      </trkpt>
      <trkpt lat="45.77025" lon="4.18186">
        <ele>400.1</ele>
        <time>2022-05-09T15:02:16Z</time>
      </trkpt>
      <trkpt lat="45.77023" lon="4.18189">
        <ele>400.1</ele>
        <time>2022-05-09T15:02:22Z</time>
      </trkpt>
      <trkpt lat="45.77023" lon="4.18188">
        <ele>400.1</ele>
        <time>2022-05-09T15:02:27Z</time>
      </trkpt>
      <trkpt lat="45.77023" lon="4.18188">
        <ele>400.1</ele>
        <time>2022-05-09T15:02:33Z</time>
      </trkpt>
      <trkpt lat="45.77023" lon="4.18188">
        <ele>400.1</ele>
        <time>2022-05-09T15:02:38Z</time>
      </trkpt>
      <trkpt lat="45.77023" lon="4.18188">
        <ele>400.1</ele>
        <time>2022-05-09T15:02:44Z</time>
      </trkpt>
      <trkpt lat="45.77023" lon="4.18188">
        <ele>400.1</ele>
        <time>2022-05-09T15:02:49Z</time>
      </trkpt>
      <trkpt lat="45.77023" lon="4.18188">
        <ele>400.1</ele>
        <time>2022-05-09T15:02:54Z</time>
      </trkpt>
      <trkpt lat="45.77024" lon="4.18188">
        <ele>400.1</ele>
        <time>2022-05-09T15:03:00Z</time>
      </trkpt>
      <trkpt lat="45.77024" lon="4.18189">
        <ele>400.1</ele>
        <time>2022-05-09T15:03:06Z</time>
      </trkpt>
      <trkpt lat="45.77024" lon="4.18189">
        <ele>400.1</ele>
        <time>2022-05-09T15:03:12Z</time>
      </trkpt>
      <trkpt lat="45.77024" lon="4.18189">
        <ele>400.1</ele>
        <time>2022-05-09T15:03:17Z</time>
      </trkpt>
      <trkpt lat="45.77024" lon="4.18189">
        <ele>400.1</ele>
        <time>2022-05-09T15:03:23Z</time>
      </trkpt>
      <trkpt lat="45.77025" lon="4.18188">
        <ele>400.1</ele>
        <time>2022-05-09T15:03:29Z</time>
      </trkpt>
      <trkpt lat="45.77025" lon="4.18188">
        <ele>400.1</ele>
        <time>2022-05-09T15:03:35Z</time>
      </trkpt>
      <trkpt lat="45.77026" lon="4.18187">
        <ele>400.1</ele>
        <time>2022-05-09T15:03:41Z</time>
      </trkpt>
      <trkpt lat="45.77028" lon="4.18186">
        <ele>400.1</ele>
        <time>2022-05-09T15:03:46Z</time>
      </trkpt>
      <trkpt lat="45.77029" lon="4.18185">
        <ele>400.1</ele>
        <time>2022-05-09T15:03:52Z</time>
      </trkpt>
      <trkpt lat="45.7703" lon="4.18184">
        <ele>400.1</ele>
        <time>2022-05-09T15:03:58Z</time>
      </trkpt>
    </trkseg>
  </trk>
</gpx>